GFSCGP_700_spd_000.txt.gz
Wind_Speed
11 2 4 6 7 10 4 7 8 20 14 13 8 21 16 14 15 17 17 15 20 21 23 18 17 16 14 17 17 18 19 26 24 22 16 18 23 25 26 32 34 32 34 37
5 8 7 10 9 7 6 10 21 18 12 8 20 21 20 17 14 13 15 15 17 20 23 21 19 18 15 19 23 23 18 17 16 15 18 24 26 29 31 33 36 41 40 44
9 9 9 6 5 9 8 17 17 13 9 9 20 20 17 17 19 18 16 15 16 14 14 16 17 18 15 10 9 9 10 12 17 22 24 27 27 30 36 37 35 36 41 45
7 9 9 5 5 4 7 7 4 4 8 16 9 10 22 20 18 17 17 15 13 11 10 13 15 14 5 6 10 12 13 17 21 23 25 29 32 35 35 36 38 39 43 47
7 6 5 4 2 0 4 2 1 2 5 7 7 14 20 19 16 14 15 13 12 8 9 10 14 16 16 18 19 18 21 25 24 24 27 27 27 28 32 37 39 45 47 48
6 2 3 2 10 8 4 3 2 1 1 1 5 10 25 22 20 15 12 12 10 10 7 8 8 6 10 16 18 17 15 20 21 26 31 34 37 41 43 46 48 46 48 49
9 6 7 8 8 8 2 2 3 3 2 4 2 5 6 16 15 12 14 9 9 12 16 11 12 16 19 23 20 25 27 29 32 38 41 42 45 49 50 49 46 41 46 44
5 4 3 5 6 6 8 7 5 4 2 2 4 5 6 17 14 9 4 1 9 18 12 9 15 18 21 23 27 27 27 28 34 40 43 46 48 43 45 50 56 44 49 49
7 4 6 9 8 5 5 11 7 5 2 2 5 13 13 11 9 12 10 11 3 7 9 13 15 19 24 24 28 27 28 32 37 41 44 45 41 41 46 49 55 56 54 41
9 9 11 11 11 10 10 6 2 3 2 1 2 9 7 16 13 11 8 6 11 14 12 15 20 25 26 24 20 26 36 44 43 47 48 46 43 43 46 46 46 42 41 47
12 8 9 7 5 6 4 3 3 2 1 4 2 3 6 17 11 12 12 8 6 12 15 18 22 24 24 24 31 37 45 43 46 50 45 40 40 42 45 45 43 42 48 45
10 11 9 7 5 6 3 2 1 1 1 2 3 3 11 17 15 13 15 13 14 21 21 22 25 30 32 36 41 45 41 44 49 44 41 40 41 43 44 45 45 45 47 48
14 10 9 5 5 4 4 2 2 2 4 5 3 3 15 12 14 16 18 22 24 23 22 26 27 31 38 43 44 44 46 46 40 39 38 38 41 42 44 48 50 48 43 44
10 14 7 8 5 5 7 6 5 8 10 12 16 13 19 21 21 21 20 18 20 23 25 26 31 41 47 48 45 46 45 40 39 37 37 41 43 43 42 42 40 38 37 48
9 10 8 8 9 9 11 10 12 12 10 12 13 14 22 21 19 18 19 19 22 23 24 31 40 44 45 45 46 43 40 40 39 38 41 43 43 43 39 37 40 44 43 41
12 10 10 9 10 9 9 11 11 12 16 18 19 15 18 20 21 19 20 23 23 27 32 40 41 43 46 45 43 41 40 40 40 41 42 41 43 43 40 39 40 39 32 30
11 10 9 6 9 9 6 10 7 8 11 13 13 18 19 20 20 20 21 24 27 33 40 41 43 44 43 40 41 40 40 40 42 43 43 42 43 40 37 34 32 24 21 19
9 8 7 5 6 0 7 11 9 12 16 19 21 19 17 18 22 25 28 31 36 42 39 43 41 39 40 40 39 43 42 43 43 44 45 42 41 37 35 30 24 20 18 22
11 10 6 4 8 10 10 15 14 11 14 17 18 19 23 26 28 27 31 36 41 36 41 39 38 39 39 41 43 46 45 45 45 47 45 42 40 36 32 28 24 21 20 21
14 14 12 8 4 6 9 15 16 14 18 11 11 18 20 24 29 34 41 41 36 38 35 35 36 38 40 43 46 47 48 49 49 49 46 42 38 34 30 27 23 23 23 26
17 17 17 16 10 9 15 16 15 11 13 13 20 20 22 25 29 31 33 36 34 33 34 34 35 37 41 46 46 48 49 50 48 47 43 40 35 32 28 24 25 24 25 27
14 11 14 12 10 11 12 16 19 20 24 24 24 26 26 29 30 33 35 32 32 31 32 33 35 39 44 45 47 47 47 47 46 42 40 36 32 29 26 24 24 24 26 26
18 22 17 16 11 15 21 25 23 23 26 27 28 28 30 31 34 33 31 32 30 29 31 33 38 42 42 43 44 45 46 45 42 39 37 34 30 26 24 23 20 21 23 24
22 21 22 24 27 25 23 25 24 27 28 29 30 31 35 35 34 35 29 29 28 29 32 37 39 40 42 42 43 43 43 42 39 36 34 31 28 23 20 19 21 21 22 23
20 19 23 28 28 28 26 27 33 33 29 30 30 32 35 36 31 23 27 26 28 32 37 38 40 42 43 42 41 41 42 39 36 34 29 27 26 22 20 20 22 22 23 24
25 26 27 31 27 31 33 32 30 29 33 34 36 36 35 30 23 25 25 28 32 35 37 39 42 42 40 39 38 41 41 39 37 31 25 25 25 23 22 22 23 24 24 24

GFSCGP_700_spd_003.txt.gz
Wind_Speed
12 5 4 3 5 5 6 11 18 20 17 16 14 16 21 18 17 18 21 23 23 22 22 18 17 14 14 15 19 20 21 24 26 22 21 17 18 21 26 30 31 31 33 35
8 3 1 4 7 5 7 4 14 13 14 15 15 20 19 19 18 18 21 18 17 20 21 18 16 14 14 15 18 19 22 23 17 19 19 21 22 27 29 29 31 34 36 39
6 5 6 8 9 4 12 17 18 15 11 12 20 14 13 15 16 15 13 12 12 10 8 11 10 12 14 16 17 17 16 15 16 19 20 23 24 25 28 29 31 34 38 42
7 9 11 11 5 4 15 12 13 13 11 19 15 8 15 17 16 13 12 9 7 1 10 7 12 15 16 13 12 15 14 14 17 18 17 20 21 24 27 30 35 40 43 45
7 6 7 6 6 8 10 9 9 10 13 13 11 7 19 19 18 17 14 10 7 2 6 6 11 13 16 15 18 17 17 18 17 21 24 27 30 36 38 41 44 46 50 53
10 8 7 6 7 10 9 9 8 5 7 4 12 7 22 29 26 21 15 10 6 12 6 12 8 9 5 12 14 14 19 24 28 30 32 36 40 44 48 51 54 53 54 47
8 7 7 13 8 5 7 10 3 1 0 4 5 8 6 28 23 16 12 11 9 3 15 19 15 11 13 17 18 20 27 29 33 35 41 44 48 49 51 54 52 47 46 47
5 4 6 13 9 4 7 7 4 5 3 2 2 2 2 25 14 12 13 13 6 15 25 20 17 13 15 18 22 25 32 34 33 37 43 47 47 49 49 46 49 51 51 50
7 4 6 8 8 6 3 6 5 6 4 2 2 4 9 18 17 19 18 13 20 16 18 21 17 16 19 22 26 30 34 35 38 42 48 47 47 48 47 49 52 52 50 45
8 8 11 10 7 6 5 4 1 3 3 1 3 7 8 21 21 20 18 21 17 17 21 21 20 22 23 26 29 29 35 42 44 44 43 44 46 46 48 50 49 49 48 44
12 8 12 9 4 7 5 1 2 3 2 5 2 5 15 18 21 21 20 17 16 18 22 23 23 24 26 25 27 35 42 40 40 42 46 46 45 45 46 48 50 50 50 48
12 9 12 8 7 6 3 3 3 2 4 3 2 4 7 14 20 19 17 16 19 20 23 25 26 25 27 28 33 44 40 39 42 44 43 43 43 45 46 48 47 47 47 43
13 11 11 5 7 7 6 6 5 3 5 7 3 4 10 17 19 18 20 22 25 24 25 26 26 29 33 35 39 39 38 39 40 42 42 43 46 48 46 44 43 43 41 40
16 14 11 12 5 9 9 10 9 10 8 9 16 11 13 19 24 25 25 25 25 25 26 26 27 31 34 40 40 38 38 40 42 41 42 44 47 47 47 46 45 41 38 36
16 11 13 9 8 8 9 13 15 17 16 15 16 18 19 22 27 27 29 26 24 24 24 26 28 36 37 37 37 37 40 41 41 41 42 45 46 46 47 45 42 38 35 33
15 8 13 12 12 12 14 15 16 18 18 20 22 23 22 23 24 26 25 24 25 26 29 36 38 39 38 38 37 39 41 41 41 42 43 45 46 46 46 44 39 36 31 25
14 12 12 7 11 12 14 18 17 15 17 18 21 19 18 18 20 24 25 26 29 32 35 36 38 39 39 38 40 41 40 41 43 44 46 47 48 48 46 41 35 31 25 19
13 13 10 5 6 1 13 13 16 17 17 18 20 22 22 18 17 22 26 29 31 34 37 39 39 40 37 40 40 41 43 46 46 48 49 49 48 45 41 36 33 28 24 16
14 13 10 5 10 12 11 15 19 19 20 17 18 18 15 17 20 22 24 29 33 36 35 36 35 34 37 39 41 43 47 48 49 49 48 47 45 42 37 33 30 28 25 23
18 18 17 11 5 6 9 10 15 19 25 19 16 11 19 20 24 22 27 32 32 34 34 32 31 34 37 39 42 46 48 48 47 46 46 44 42 39 34 31 28 25 23 24
15 19 20 19 12 10 16 16 16 14 17 10 16 22 24 24 24 27 29 31 33 33 29 29 31 34 37 41 44 46 46 46 45 44 43 42 38 35 33 30 27 24 24 23
13 11 15 17 14 14 18 18 18 17 18 24 26 26 27 25 26 29 32 34 31 27 25 29 32 34 38 42 44 44 45 45 43 42 41 38 35 33 31 29 24 21 20 23
19 21 17 18 14 17 15 14 25 25 26 27 26 27 29 28 29 30 32 30 25 22 26 30 32 35 39 41 43 45 44 42 41 41 38 36 34 30 28 25 23 21 23 24
23 21 26 27 27 26 27 29 30 30 29 26 31 30 28 30 31 34 29 23 20 25 28 30 34 38 39 41 43 43 41 39 40 41 37 34 30 25 25 23 23 22 24 26
18 22 25 27 25 28 31 30 28 27 30 35 30 28 30 31 32 28 22 18 23 26 30 34 37 39 41 43 43 40 38 38 40 38 33 29 24 24 27 25 23 22 25 27
24 25 26 29 24 26 28 27 30 32 31 29 30 31 31 35 28 19 17 20 24 29 33 37 37 40 43 43 40 36 36 37 39 35 31 27 21 24 30 25 22 22 25 27

GFSCGP_700_spd_006.txt.gz
Wind_Speed
9 10 12 12 10 8 5 8 12 13 11 16 15 10 6 15 13 15 14 15 16 17 17 15 15 14 13 14 15 17 19 20 22 20 19 20 20 19 20 26 27 32 32 35
9 6 6 4 2 1 6 9 12 13 20 17 14 12 13 17 16 16 16 17 19 20 19 17 16 16 15 16 15 16 18 21 21 17 18 17 19 23 28 28 31 35 34 37
9 5 4 2 3 4 6 5 9 16 17 10 11 9 12 18 17 16 14 11 10 5 1 4 6 8 10 13 17 18 18 20 22 21 22 23 22 23 25 28 32 35 38 40
7 4 5 5 5 5 8 7 8 16 17 9 13 6 11 14 14 11 8 6 6 7 2 4 5 5 12 17 15 15 18 18 18 16 20 22 26 29 32 37 42 45 48 50
8 6 5 5 5 6 6 5 6 8 10 11 13 5 15 16 16 15 12 11 10 6 2 7 5 13 22 15 9 12 12 13 18 22 25 29 32 36 40 44 46 48 51 54
6 8 7 8 8 10 12 7 7 5 6 3 13 10 14 26 26 22 18 15 11 7 8 9 3 12 11 11 14 12 13 18 20 27 32 37 40 42 45 49 47 50 52 52
7 7 9 9 9 9 10 10 1 1 0 4 8 10 16 14 26 23 16 14 10 9 8 11 17 20 12 16 16 18 21 24 28 34 36 39 42 44 45 47 50 52 52 50
7 5 9 12 11 5 9 13 5 6 3 4 7 6 7 13 22 19 13 13 15 12 15 20 17 17 18 18 19 20 23 26 30 36 43 45 45 45 47 49 50 50 50 49
8 5 8 10 12 7 4 4 8 3 3 2 4 6 6 11 22 23 22 22 19 18 22 21 20 22 22 23 23 23 22 26 32 40 44 44 45 46 48 49 48 47 48 50
6 5 9 7 7 8 5 6 2 2 3 2 3 6 8 16 23 24 26 23 21 20 22 22 23 24 26 27 27 29 29 31 35 41 43 43 43 44 45 45 45 46 46 46
10 8 10 9 5 10 7 3 2 2 1 5 1 5 8 13 15 16 20 21 21 22 22 24 27 27 29 29 29 31 33 36 40 40 41 42 43 43 43 43 44 44 45 45
14 8 13 11 8 8 7 5 4 3 3 3 2 7 8 12 20 23 23 23 23 23 25 27 30 30 29 29 29 33 37 41 38 38 40 43 44 45 45 45 46 46 45 43
13 7 9 5 8 11 9 8 7 6 6 7 2 5 7 7 10 21 24 24 23 25 25 26 29 27 30 31 35 37 39 32 36 39 43 45 46 45 47 48 48 47 44 41
15 8 12 13 4 9 11 12 11 9 6 7 16 17 15 14 13 17 20 24 27 26 26 26 27 28 31 36 39 33 30 35 39 42 44 45 46 47 49 49 48 45 42 39
14 10 17 11 9 9 10 12 13 16 16 16 19 20 16 19 19 21 24 27 29 28 27 27 28 33 39 40 34 33 34 38 41 42 44 46 47 48 49 49 46 44 40 36
15 9 11 14 12 13 14 14 17 19 21 23 24 25 20 18 19 22 24 27 29 28 28 29 33 38 40 35 35 34 37 39 41 43 45 47 48 49 49 47 45 42 37 33
14 14 9 8 14 15 16 20 21 23 24 22 24 19 17 16 17 19 19 22 26 27 28 31 37 38 34 34 33 35 38 40 42 44 47 49 50 49 46 45 42 38 34 28
12 12 10 6 8 1 18 18 17 17 17 22 22 20 19 19 18 17 18 20 24 27 29 33 35 33 35 32 33 36 38 41 45 46 48 49 48 46 44 41 38 34 30 26
13 13 9 6 12 17 15 16 17 19 20 23 23 20 18 20 18 20 19 18 23 26 31 35 34 33 31 32 34 37 40 43 46 47 48 47 45 45 42 37 34 32 28 25
16 17 16 11 5 6 11 12 12 17 28 25 22 18 16 17 26 23 18 22 25 29 33 34 32 29 30 32 35 37 41 44 46 47 46 43 44 44 40 36 32 29 27 25
11 14 19 21 15 14 18 19 18 13 21 12 11 15 24 27 26 25 25 25 27 30 31 30 28 27 30 33 36 40 43 45 47 46 43 41 43 43 39 34 29 27 25 23
14 8 12 13 11 12 17 20 19 17 15 22 22 25 29 26 28 31 27 28 32 31 30 27 25 28 31 35 39 41 43 46 46 43 40 41 42 38 35 30 26 25 24 23
16 19 15 14 13 17 21 21 20 19 26 28 30 30 28 28 33 28 28 34 35 30 25 23 24 28 33 37 41 43 45 45 43 41 40 40 39 34 31 25 23 25 25 25
20 19 24 25 25 24 24 26 27 28 31 30 30 30 30 35 29 28 32 32 33 23 21 21 26 31 36 39 40 43 44 43 41 39 38 39 34 32 28 23 25 29 25 24
16 21 25 28 27 27 25 27 28 30 31 30 31 32 37 31 29 31 31 36 27 19 19 22 30 36 38 39 40 42 43 42 39 37 36 36 33 30 26 22 24 29 26 25
21 23 24 26 20 23 25 25 27 30 30 31 33 33 31 30 30 34 33 28 17 16 20 28 35 37 37 38 39 41 41 39 36 35 34 33 31 28 26 23 26 26 24 24

GFSCGP_700_spd_009.txt.gz
Wind_Speed
14 12 10 22 17 7 8 8 12 13 13 11 9 6 7 12 13 11 11 12 13 14 12 12 12 12 13 14 14 14 17 17 18 20 19 18 19 19 19 21 23 25 28 29
13 17 14 13 11 7 7 6 8 13 16 14 14 12 8 8 15 15 15 14 14 16 16 14 13 14 16 12 12 13 15 16 15 16 19 18 19 19 21 24 27 30 33 37
10 8 10 8 6 5 2 3 5 6 19 16 12 10 11 13 18 18 16 14 12 8 7 6 3 2 1 6 10 9 9 11 13 16 16 18 21 23 25 28 31 35 39 42
9 8 5 4 5 4 1 3 5 5 17 7 14 6 13 16 19 19 16 12 10 10 10 5 3 3 4 11 15 17 12 12 12 11 13 16 20 25 30 33 37 40 41 42
8 8 5 3 3 2 4 5 5 12 10 7 13 5 11 19 20 20 16 14 14 14 10 7 5 5 14 22 19 10 16 11 12 14 19 23 26 31 36 38 40 42 44 45
9 9 7 6 2 1 4 8 10 8 6 3 9 14 11 20 23 23 20 18 17 16 12 9 5 10 16 14 12 18 17 16 18 19 24 28 31 37 39 40 42 43 44 45
8 8 6 4 5 5 7 13 3 2 2 4 8 10 20 8 18 25 23 21 21 18 14 9 7 14 10 12 16 18 19 20 22 23 27 31 34 38 41 43 43 44 44 43
8 4 7 9 9 6 11 14 6 5 3 2 7 7 11 13 18 20 20 22 21 18 13 10 12 12 14 16 20 21 23 26 27 28 30 34 40 43 42 43 43 43 43 43
8 5 8 8 11 8 7 10 12 3 2 1 5 9 12 13 16 24 27 26 23 19 15 13 15 15 19 20 22 26 29 31 31 32 37 40 42 39 41 41 40 41 42 43
7 5 9 8 10 10 7 8 4 5 3 3 4 9 13 7 12 23 29 29 25 21 18 17 18 20 24 25 27 31 35 31 36 38 40 38 37 38 39 40 41 41 42 43
11 7 8 9 8 10 10 8 4 4 3 3 2 5 3 4 9 11 15 20 22 22 21 21 22 25 28 30 33 38 39 30 37 39 38 35 37 39 42 42 42 43 44 44
14 8 8 11 8 10 10 9 7 4 5 6 3 7 3 3 8 15 19 19 22 24 24 26 28 30 32 33 37 41 35 39 41 36 34 37 40 42 43 43 44 45 44 43
14 9 7 5 10 13 13 13 11 8 6 7 3 4 2 6 7 14 22 25 27 28 28 29 30 31 31 35 37 38 38 41 31 32 36 40 42 43 44 46 47 47 45 43
15 14 12 16 7 10 17 17 14 12 7 8 17 20 17 16 12 9 15 19 22 29 30 31 30 31 32 34 37 34 41 30 32 35 37 40 43 44 46 48 48 46 44 43
16 15 16 14 12 9 11 13 14 16 17 15 19 21 16 16 15 13 14 19 23 26 28 30 29 28 32 35 37 37 36 32 32 34 38 41 44 45 47 47 46 45 42 40
15 11 14 15 15 13 15 15 17 19 22 24 24 25 17 15 16 15 14 15 19 24 29 29 27 31 30 36 35 34 34 31 33 35 38 42 45 47 47 46 44 43 40 37
14 16 12 8 14 16 15 22 22 23 23 22 24 19 18 19 16 15 16 15 15 19 25 26 26 28 32 33 33 33 30 31 33 36 40 43 46 47 46 44 43 41 38 34
10 13 11 7 9 3 18 20 19 19 18 19 21 21 20 21 19 17 15 13 16 18 21 21 26 29 32 33 34 29 29 31 35 38 41 44 47 46 44 43 43 39 35 32
10 11 8 5 10 17 13 14 18 22 23 18 21 22 22 20 18 15 16 20 18 17 21 24 27 30 32 32 28 27 30 33 37 40 43 45 46 44 42 42 40 37 33 29
11 13 14 10 5 4 8 9 13 19 23 21 14 13 15 16 16 20 23 20 19 20 22 26 29 31 30 26 25 28 32 36 39 41 44 45 43 42 40 40 37 35 30 26
9 9 14 17 12 10 15 18 20 11 15 10 11 12 18 21 25 27 24 23 23 22 24 29 35 27 25 21 24 29 34 38 39 43 43 43 41 39 38 37 34 30 25 24
12 7 8 8 7 7 9 9 10 13 18 20 20 25 25 26 27 27 24 26 22 24 28 30 36 28 21 19 25 32 36 38 40 42 42 41 38 36 36 33 31 26 22 24
13 15 11 10 9 15 21 22 20 21 20 21 26 26 27 28 29 27 29 33 30 29 33 32 27 19 15 22 28 34 36 38 39 40 40 37 36 34 34 31 29 25 23 25
17 16 19 22 22 21 22 23 23 22 23 24 28 29 28 29 30 32 36 33 32 34 34 28 17 12 18 25 32 34 36 37 38 38 35 35 33 31 31 29 27 24 23 25
16 19 24 26 24 22 21 21 23 23 24 26 28 29 29 30 32 34 32 33 33 40 34 17 11 16 22 28 30 32 34 36 36 34 34 32 30 29 29 26 25 24 22 24
20 20 21 21 17 19 21 22 25 26 27 27 29 29 30 31 30 30 31 34 40 30 19 9 14 18 24 27 29 31 34 34 33 34 32 30 28 28 27 25 24 22 21 22

GFSCGP_700_spd_012.txt.gz
Wind_Speed
5 7 7 14 14 5 8 8 14 14 17 13 12 12 10 18 17 17 16 15 15 14 13 13 12 13 14 14 14 14 15 14 14 15 11 12 13 10 13 14 16 19 23 27
7 7 8 16 13 7 4 12 12 16 16 14 13 12 9 13 18 17 16 15 15 14 16 17 18 18 19 20 15 12 12 14 14 12 14 12 11 13 16 18 21 25 29 32
13 16 10 10 9 8 9 9 8 9 21 19 14 11 15 15 14 17 19 18 16 16 15 15 12 9 9 8 6 7 9 9 8 9 11 12 12 14 18 23 27 31 34 36
6 10 10 10 7 6 5 5 2 2 14 14 19 13 16 19 18 19 21 21 18 17 14 12 10 12 9 3 9 10 7 9 13 11 12 12 16 20 24 29 32 37 37 38
8 11 9 7 6 7 7 5 4 5 9 8 12 12 8 17 19 22 24 23 19 16 14 14 16 12 5 8 9 8 14 15 14 14 16 20 23 26 29 31 35 36 38 40
10 12 10 8 7 7 7 6 8 7 6 8 8 12 10 13 17 21 24 22 20 19 20 19 15 8 7 7 9 10 14 16 17 21 24 25 28 29 32 38 39 38 41 41
10 10 8 7 6 7 8 10 6 7 6 7 6 9 20 12 13 19 22 24 22 21 20 17 11 8 8 7 10 13 17 19 22 26 28 30 31 33 36 37 38 39 39 39
13 7 8 10 10 7 11 10 6 5 6 7 5 9 10 17 23 18 18 20 22 23 21 17 14 11 9 11 14 17 20 24 28 30 30 31 32 38 42 39 39 38 40 40
8 4 9 9 12 9 9 10 11 5 3 5 11 11 15 16 16 18 23 27 26 25 23 20 17 15 13 16 20 23 26 29 34 34 35 30 36 43 37 36 37 37 38 40
9 4 9 9 10 12 9 7 4 6 3 5 4 9 10 7 15 17 24 28 28 28 26 24 22 19 19 22 25 28 30 33 37 36 33 39 42 36 34 35 36 38 39 41
10 7 6 9 9 9 12 9 8 5 3 3 3 2 3 3 8 9 14 24 28 29 28 25 24 24 24 27 29 30 33 38 42 39 36 41 34 33 34 37 39 40 41 41
14 9 6 10 12 14 15 10 10 7 5 5 1 7 3 2 3 10 14 20 27 28 29 27 27 28 30 31 32 34 39 40 40 35 35 31 33 35 38 39 41 42 43 42
15 9 6 4 8 13 13 16 15 13 9 8 3 4 6 10 9 8 15 22 26 27 28 30 31 32 34 34 33 37 40 39 36 32 32 35 36 37 39 41 43 44 44 44
12 16 11 13 6 8 14 21 19 13 8 9 15 13 14 15 14 12 14 20 25 30 32 33 34 35 36 34 35 37 38 35 32 34 34 34 36 38 40 42 45 45 44 43
14 14 19 19 15 13 13 13 20 22 18 13 13 15 12 13 15 16 16 17 22 26 28 29 32 36 35 33 34 37 32 32 35 33 32 34 36 39 41 44 45 44 42 42
17 13 16 18 18 17 17 17 18 20 21 24 22 23 18 15 16 19 18 17 19 22 24 26 29 32 32 31 34 31 34 35 35 31 31 33 37 39 42 44 44 43 42 41
17 16 12 8 16 18 15 25 25 25 24 24 21 18 22 17 18 18 18 17 17 18 20 23 27 30 30 32 32 34 32 34 29 29 30 34 37 40 43 44 43 42 40 38
12 14 12 7 6 4 13 19 18 21 21 22 20 22 22 20 19 20 17 16 14 17 20 22 26 29 30 33 35 31 33 27 25 27 33 35 38 41 43 44 41 39 37 34
11 11 8 5 8 16 15 14 16 19 19 18 19 18 20 21 20 19 14 17 21 21 19 22 26 30 32 35 38 35 26 22 24 30 33 35 39 41 43 42 38 36 34 32
15 13 13 8 4 4 7 10 13 14 14 12 9 11 14 11 15 13 20 24 24 21 21 23 25 28 33 38 44 33 23 21 26 30 33 36 38 41 41 38 34 33 31 30
7 8 14 16 10 7 12 15 15 5 6 9 18 18 19 22 18 22 24 24 24 23 24 25 27 32 36 39 32 25 19 22 27 30 33 36 38 39 37 35 31 30 29 27
7 5 6 7 7 6 4 4 5 10 19 23 18 19 22 24 25 24 26 26 26 27 29 29 32 37 38 43 21 17 18 23 27 31 32 35 37 36 34 31 28 28 26 25
10 11 7 7 6 12 18 17 17 19 22 23 22 24 26 28 30 29 29 30 31 32 35 36 36 44 41 30 15 15 20 25 28 30 32 34 35 33 30 28 27 27 25 24
14 12 15 17 17 16 21 22 22 22 21 21 23 25 27 29 30 31 31 31 33 35 35 40 41 44 30 18 11 18 22 26 27 29 32 33 31 29 28 26 26 26 24 24
15 17 19 21 20 20 20 20 20 20 23 25 26 27 28 28 29 31 31 32 32 34 37 43 38 23 11 8 14 17 23 25 26 29 31 31 30 28 26 24 25 25 24 23
16 16 15 16 14 19 21 22 23 23 24 25 27 29 30 31 31 31 32 30 32 36 43 31 22 10 8 12 16 20 23 25 27 29 29 29 28 26 24 25 26 25 24 23

GFSCGP_700_spd_015.txt.gz
Wind_Speed
3 7 8 10 14 6 10 9 13 14 11 13 11 9 14 16 16 16 16 16 15 15 18 18 17 15 16 17 18 16 17 17 16 16 14 13 11 10 10 10 10 14 18 21
8 16 11 12 12 6 5 6 11 8 12 11 12 12 12 16 17 17 17 17 17 17 20 20 19 19 19 20 20 18 16 14 14 14 13 12 12 12 12 13 15 19 23 28
10 8 3 8 9 7 6 10 11 10 13 12 12 16 15 16 19 21 19 17 18 19 20 20 21 22 21 19 18 12 8 11 12 11 11 12 12 12 15 20 24 26 28 33
9 11 5 6 7 6 9 7 10 6 9 21 19 21 24 21 22 20 21 20 20 18 19 18 17 16 15 12 9 7 7 6 9 10 11 12 7 10 21 25 30 32 39 38
10 11 10 11 6 9 6 9 8 8 14 7 14 15 18 18 20 20 21 20 20 21 18 16 18 18 16 13 9 8 7 7 9 13 16 18 19 23 28 30 33 39 39 42
8 11 7 3 8 6 7 5 6 9 14 10 20 17 17 18 17 17 18 20 21 21 20 21 23 21 18 15 12 11 12 14 15 17 20 22 25 29 32 34 35 40 40 38
9 8 10 8 5 6 7 9 14 11 11 11 8 9 20 13 8 14 20 19 22 23 23 25 24 22 19 14 13 15 16 16 19 21 25 28 30 33 38 30 37 36 38 38
16 12 13 11 10 7 11 14 16 6 6 11 6 9 7 11 9 9 20 20 20 22 24 25 25 24 21 16 17 18 18 19 23 26 31 33 35 39 34 34 33 36 37 38
13 6 11 9 8 8 10 12 11 8 6 10 19 19 13 12 13 10 19 22 21 21 24 25 28 27 24 20 19 21 22 23 26 30 34 36 36 39 37 33 35 36 37 37
5 5 4 8 8 11 11 4 6 10 4 9 7 8 8 4 6 11 19 22 22 22 23 27 30 28 26 25 24 24 26 28 30 33 37 39 40 39 35 31 33 35 37 39
12 12 5 7 11 12 10 14 11 6 5 4 4 3 3 4 5 11 16 21 22 23 24 27 30 29 29 30 29 29 31 33 33 36 39 41 41 34 30 32 35 37 39 40
14 10 11 12 11 14 8 11 13 10 7 5 4 13 9 4 2 7 12 19 22 23 24 27 30 31 33 33 33 35 36 37 35 39 42 40 34 31 31 34 37 39 40 41
13 12 13 11 10 11 12 14 13 11 11 11 5 6 4 9 13 8 10 16 21 24 27 29 31 32 35 35 37 39 39 39 38 39 39 36 34 33 34 36 38 40 40 41
13 16 16 16 10 4 12 14 16 17 12 14 17 15 10 10 9 9 11 14 19 23 28 31 36 36 37 38 40 41 41 40 39 40 33 33 34 32 34 36 39 41 41 42
14 11 16 19 12 13 11 12 15 21 22 19 17 15 13 14 13 14 15 15 18 24 28 32 34 36 38 40 42 41 41 38 38 36 33 33 33 32 34 37 38 40 42 43
17 11 15 17 14 18 16 16 18 19 21 22 23 22 19 18 16 16 15 20 20 23 26 28 31 33 35 38 40 40 37 40 40 35 36 32 31 30 35 36 38 40 42 42
13 16 11 9 10 10 15 25 22 21 21 20 23 22 18 15 17 17 15 19 19 20 23 25 27 29 33 37 37 37 38 41 41 41 35 29 29 32 34 36 37 40 40 39
16 15 9 6 4 1 11 13 15 17 20 22 23 21 19 16 16 17 19 17 20 18 18 22 26 30 33 35 38 37 40 43 44 39 32 27 29 32 34 36 38 39 37 36
14 13 8 5 10 12 14 12 12 11 13 10 10 12 13 17 17 18 18 17 16 21 24 24 25 27 30 35 38 40 44 44 48 43 22 26 29 33 34 36 37 36 35 33
14 14 11 8 4 4 3 9 9 10 10 6 9 5 7 16 18 15 17 19 24 26 22 22 23 24 29 34 39 42 46 49 45 28 24 24 29 33 34 37 36 35 33 31
11 14 15 12 8 7 10 14 11 5 4 10 12 15 20 19 12 18 22 25 27 27 28 28 27 30 33 38 41 46 48 42 22 21 20 24 30 32 36 35 33 31 30 29
7 6 7 8 7 7 9 3 2 8 16 23 23 16 21 23 25 27 29 29 28 29 30 32 34 34 40 43 45 49 47 31 20 18 22 25 28 33 35 33 30 29 29 29
6 10 5 7 3 11 10 17 15 20 22 22 24 23 22 25 25 26 29 30 29 29 33 35 39 43 42 47 51 47 34 16 15 18 22 25 30 32 31 30 29 27 26 28
13 12 12 13 6 10 11 19 21 20 18 19 20 22 23 26 26 28 28 33 32 35 37 38 40 42 45 47 42 35 19 14 13 17 23 28 30 31 29 28 27 26 26 26
11 14 13 15 17 13 11 11 14 19 22 23 24 25 27 26 27 30 33 35 35 37 36 38 40 41 41 39 30 16 12 12 16 21 25 29 30 31 30 27 25 24 24 26
16 12 14 11 12 17 13 21 25 24 26 26 25 26 29 29 32 34 35 35 34 34 36 34 40 38 29 22 17 16 15 16 20 25 28 29 31 30 29 28 28 26 26 25

GFSCGP_700_spd_018.txt.gz
Wind_Speed
4 3 7 8 12 6 8 15 19 11 13 12 12 13 14 16 16 13 15 22 12 14 12 13 12 10 13 19 20 17 15 15 15 16 16 16 15 13 13 11 12 13 15 17
9 7 8 4 11 15 12 8 12 9 8 13 12 13 16 18 20 18 17 12 14 13 21 16 16 16 19 23 23 20 18 17 16 15 16 15 15 15 14 13 15 16 20 25
6 13 5 11 15 13 9 7 11 9 7 10 7 15 17 18 19 18 18 19 18 20 25 21 22 23 26 28 25 22 22 16 14 14 10 14 15 15 19 18 19 20 23 28
5 8 9 10 11 11 11 2 9 9 13 13 13 14 20 13 19 22 22 22 22 22 26 26 23 25 26 27 24 20 16 15 14 12 13 13 18 21 21 24 28 30 31 32
13 14 8 9 5 1 3 5 7 16 12 11 6 17 26 29 20 27 27 30 25 27 27 27 21 21 20 20 19 18 17 15 13 14 15 16 20 22 23 27 29 35 34 35
10 6 13 12 5 4 2 5 10 12 16 3 19 20 16 29 13 23 22 22 26 29 31 29 25 22 21 21 21 18 18 15 16 17 18 20 22 26 30 29 33 41 35 33
11 14 10 7 8 8 8 10 9 9 6 9 12 13 17 18 20 21 20 26 26 25 25 24 24 22 24 23 21 19 19 18 18 18 19 22 25 29 31 33 37 46 41 36
10 20 16 12 12 5 14 13 8 7 4 10 5 6 1 9 11 5 22 23 21 21 23 23 24 23 25 25 22 21 22 22 21 20 21 24 27 31 35 36 39 41 37 35
8 7 3 5 7 6 9 12 11 8 12 10 5 17 3 6 5 1 18 20 20 19 21 25 25 26 27 27 25 24 25 27 25 27 27 28 29 33 35 39 41 35 35 33
14 8 17 8 10 9 11 8 5 5 2 4 11 14 4 3 1 3 12 17 21 22 21 22 25 28 30 30 29 28 29 30 29 29 32 33 34 36 37 39 36 36 33 34
9 19 5 4 8 10 8 10 12 10 7 1 3 4 6 3 3 4 9 17 21 24 21 24 24 29 32 31 32 31 33 35 35 33 34 36 37 39 38 36 37 34 33 36
10 8 11 12 8 7 7 9 13 10 8 5 3 13 12 10 5 10 8 15 20 24 24 26 26 31 31 32 34 33 34 37 37 36 38 39 40 40 36 37 36 35 35 37
10 8 13 13 10 10 14 14 13 8 12 10 5 6 9 11 13 13 7 10 17 22 23 26 31 35 34 34 34 34 34 37 39 38 40 41 41 42 34 36 34 33 36 36
15 11 14 14 15 6 16 14 14 16 14 14 20 19 11 16 11 8 11 9 13 21 24 26 33 37 40 39 37 36 37 38 40 37 38 40 44 42 36 33 30 31 35 37
14 13 13 18 18 8 12 9 12 17 19 20 19 17 15 12 8 9 8 14 15 15 22 23 31 37 41 42 39 37 38 39 41 35 37 40 43 41 36 36 32 33 34 36
18 12 12 17 14 16 17 17 17 18 17 21 22 22 17 17 16 14 15 13 19 17 18 26 32 35 40 40 37 36 38 41 38 36 38 40 45 35 39 32 32 30 34 36
12 14 14 10 10 11 15 22 22 22 19 19 21 20 17 17 16 11 14 12 18 19 19 20 27 28 30 33 34 36 38 41 38 40 40 45 40 38 32 26 25 30 34 34
15 14 9 6 5 1 13 8 10 12 13 15 18 19 16 16 15 17 20 15 14 18 18 18 20 26 28 30 33 35 37 40 40 42 44 46 43 34 28 22 26 30 33 35
15 13 9 6 9 11 17 9 7 5 8 8 7 11 7 13 15 14 11 13 15 18 20 25 27 24 23 25 28 32 37 39 42 45 45 41 34 25 19 21 26 31 35 36
13 15 13 7 3 4 3 9 7 6 6 4 9 4 9 15 18 13 17 19 21 20 25 19 23 23 25 27 31 36 41 44 44 49 53 44 26 20 22 24 26 32 36 35
10 13 15 12 7 7 9 12 13 5 6 11 10 14 20 15 11 18 21 23 25 27 27 23 23 25 28 35 38 42 43 50 49 54 46 34 23 16 19 26 31 34 35 30
6 7 9 11 7 8 11 8 4 8 9 17 20 20 21 21 23 22 23 19 28 25 23 30 33 34 37 40 43 46 52 52 49 41 35 23 16 17 22 27 33 34 29 28
7 11 6 9 2 9 7 11 11 14 18 21 21 20 18 17 19 20 23 21 29 28 31 35 37 36 37 39 41 45 48 46 43 29 23 19 18 20 25 31 32 30 28 27
11 13 14 14 8 6 8 12 12 13 11 12 18 21 20 23 23 22 22 24 33 35 38 35 33 32 32 36 39 45 44 31 29 21 18 18 19 24 29 31 30 28 27 28
11 12 9 11 12 11 10 11 15 17 19 22 23 24 26 25 24 26 30 33 36 34 34 32 32 35 33 32 31 27 27 21 18 18 16 20 26 29 30 32 32 28 26 28
15 12 13 12 13 16 16 22 23 25 28 27 25 27 25 25 27 31 32 34 32 30 30 28 29 29 25 22 19 17 19 17 15 19 24 27 29 30 32 32 31 30 29 28

GFSCGP_700_spd_021.txt.gz
Wind_Speed
5 6 3 2 9 10 12 9 7 15 16 10 13 18 17 18 14 8 20 18 15 15 11 10 12 12 12 10 8 8 8 10 13 13 16 17 16 16 13 11 12 11 12 16
8 5 3 7 9 11 13 14 21 18 13 10 13 15 13 19 12 13 16 17 8 17 12 12 13 17 17 14 10 11 13 14 17 19 18 17 18 14 13 15 14 15 16 19
5 10 6 8 12 14 9 3 9 9 3 9 10 8 17 18 15 16 17 16 13 17 15 12 13 20 21 21 17 17 20 21 21 21 18 18 14 15 15 16 17 18 24 25
6 9 12 12 12 11 17 6 4 8 3 4 7 3 16 21 18 19 21 17 14 19 19 22 21 21 26 26 19 24 24 26 23 19 18 17 16 18 18 20 21 21 25 29
5 10 9 19 8 3 6 8 6 13 15 11 9 5 19 19 22 16 23 22 20 22 26 29 32 30 26 31 27 25 27 23 20 19 18 15 18 19 20 24 26 29 31 33
14 13 11 11 3 8 5 4 5 11 10 6 13 11 10 24 22 22 27 25 25 26 27 31 34 37 33 24 22 22 21 20 19 18 16 16 18 18 21 25 28 29 31 39
6 11 12 8 8 6 8 9 2 3 5 3 18 9 22 21 20 28 22 27 28 35 34 37 41 34 27 26 23 22 20 19 18 17 19 20 21 22 25 27 28 29 36 39
13 7 6 9 18 11 8 13 6 5 1 7 14 7 8 13 13 19 15 21 27 34 39 40 39 37 30 23 23 23 23 21 19 20 22 23 26 28 29 30 30 33 37 37
13 12 21 12 7 6 8 7 12 5 5 2 10 12 3 8 14 14 17 23 29 32 30 28 30 26 21 20 24 27 27 24 22 21 24 27 29 31 33 34 36 38 36 34
17 3 9 20 8 10 14 10 2 2 5 4 5 6 9 10 9 6 17 20 25 26 25 23 21 21 21 21 24 30 31 29 27 25 27 29 31 33 34 37 39 38 39 33
16 16 5 19 19 15 15 11 10 8 3 5 1 2 3 1 6 1 11 16 20 22 22 21 20 21 21 21 21 27 33 34 32 30 31 33 34 35 37 40 41 42 36 35
17 10 13 18 11 9 11 6 7 13 6 3 3 8 16 14 4 6 2 12 18 21 23 25 24 24 24 25 23 22 29 35 37 35 35 36 38 37 39 42 41 42 36 35
15 5 8 11 7 11 14 14 17 11 16 14 5 5 6 17 15 12 7 5 13 18 23 25 28 29 28 29 30 32 34 35 36 37 38 39 38 39 42 42 45 37 37 39
17 11 10 10 11 9 9 10 13 14 11 11 15 18 22 12 18 14 8 5 4 15 20 24 27 30 33 34 35 37 40 42 38 37 38 35 38 42 44 42 39 35 37 40
13 17 16 17 17 15 10 11 9 16 15 18 19 16 12 14 2 7 7 6 6 9 10 22 28 30 31 34 36 39 40 41 40 39 37 35 38 41 42 41 37 39 38 29
14 15 15 15 18 19 16 14 19 16 13 16 14 18 13 10 14 10 10 9 7 10 15 18 22 25 29 33 37 40 40 41 40 39 36 37 40 43 46 45 45 37 32 23
19 19 18 14 15 16 18 22 22 18 20 19 18 17 15 15 15 12 11 13 13 17 17 17 21 27 32 35 36 36 37 38 38 37 39 42 44 46 50 50 45 35 20 24
21 18 12 6 7 0 8 3 8 6 2 7 8 10 8 7 11 8 10 15 18 18 19 18 18 19 24 29 28 30 33 36 37 39 44 48 48 51 54 49 36 26 22 23
17 15 11 6 12 11 11 8 9 8 4 7 8 9 12 8 10 12 15 20 21 18 20 20 21 27 24 23 24 28 32 35 39 44 48 53 54 58 52 36 30 24 21 25
19 16 15 10 5 6 3 4 6 5 8 9 12 14 14 15 15 23 22 21 20 22 25 24 29 28 28 28 30 33 37 40 43 49 51 55 59 50 36 33 25 19 22 28
13 16 17 14 7 6 9 11 13 9 9 11 11 11 16 21 19 21 21 23 26 27 26 24 24 26 28 31 32 34 37 43 46 49 55 57 47 38 41 22 16 19 26 33
9 10 13 14 7 9 12 12 12 12 14 12 13 21 21 21 20 20 22 25 26 25 26 27 28 27 26 28 33 38 42 43 51 55 51 44 41 34 20 18 18 27 32 32
9 9 9 7 3 6 5 9 10 12 13 19 22 23 20 18 19 20 22 25 28 29 26 28 30 28 24 26 30 33 34 40 40 40 37 31 23 20 16 20 27 30 30 31
17 10 12 9 6 8 4 8 16 18 21 23 17 21 21 20 21 23 24 25 26 29 29 28 24 23 26 29 31 32 31 31 28 26 22 21 18 17 22 27 29 31 29 28
16 15 14 14 13 15 15 16 20 21 23 23 22 25 25 23 23 23 23 25 31 31 31 31 29 30 27 27 28 24 20 19 19 20 20 19 22 25 27 29 31 33 32 31
15 17 17 17 15 20 22 22 23 23 24 26 26 27 24 23 23 24 29 29 29 31 30 27 26 22 20 17 17 17 18 20 21 20 22 24 27 29 30 31 33 34 35 33

GFSCGP_700_spd_024.txt.gz
Wind_Speed
6 7 7 7 7 8 10 8 15 15 12 16 20 17 14 16 15 7 11 14 16 13 10 8 7 8 8 9 11 8 9 9 11 10 10 11 12 14 14 14 14 15 16 17
2 4 2 6 4 5 10 17 16 19 14 15 14 18 15 21 16 10 10 16 14 14 15 17 13 10 9 8 10 11 11 11 12 14 16 15 14 15 17 15 13 14 18 18
6 2 5 7 12 10 17 14 9 3 9 9 12 20 23 19 17 14 13 10 11 9 12 17 15 13 15 15 14 13 12 15 17 19 20 19 16 16 14 13 12 12 13 15
9 8 10 11 15 15 10 9 10 5 3 2 3 4 26 22 21 23 18 16 18 16 17 18 18 18 16 16 17 18 18 20 24 22 22 17 16 15 12 12 13 15 18 20
11 13 12 15 11 4 7 5 7 9 10 3 5 3 19 19 26 25 25 24 22 21 24 22 20 20 20 19 19 22 24 25 29 25 20 17 16 15 14 14 16 19 22 24
9 8 5 4 6 8 5 4 9 8 8 2 6 9 17 19 24 30 29 25 26 26 25 23 22 23 24 23 20 26 31 30 29 20 18 18 18 17 17 20 23 25 27 28
9 6 5 6 8 7 4 7 3 3 1 4 5 6 12 14 16 26 25 30 24 25 25 21 26 28 29 25 23 28 23 21 19 18 19 20 20 21 23 26 28 32 34 32
13 4 11 10 7 6 10 10 6 3 3 3 4 8 12 12 12 18 20 22 28 28 23 25 26 27 28 24 29 32 28 21 20 21 23 24 25 27 29 30 33 34 34 37
8 8 8 10 12 6 5 7 7 6 2 2 5 9 11 12 11 14 18 22 25 26 25 27 27 25 25 25 29 28 26 23 22 23 25 28 30 31 32 34 35 39 39 41
24 14 15 12 16 20 16 7 2 4 4 3 4 7 6 7 6 11 15 19 22 26 20 19 20 22 22 20 22 22 22 23 24 26 29 32 34 35 36 37 40 39 41 42
26 19 12 16 18 18 16 14 13 10 5 4 1 3 7 6 6 4 6 7 14 15 15 15 15 14 12 13 15 15 15 16 20 24 29 34 37 37 39 41 41 44 44 49
27 17 15 22 10 9 9 14 15 9 6 6 3 9 10 11 6 9 5 4 6 14 14 14 17 16 14 15 17 17 17 17 18 21 25 27 30 35 38 40 42 43 46 50
23 14 13 12 18 17 21 16 15 15 12 16 8 7 9 10 14 17 13 6 8 8 11 20 22 22 22 22 22 24 25 25 27 28 30 31 31 31 34 37 40 42 45 47
22 17 21 19 16 11 6 10 10 11 10 14 20 17 16 20 16 16 18 12 9 11 18 20 22 23 24 25 25 27 29 29 28 30 33 33 34 34 36 37 41 44 47 50
25 21 19 16 15 15 12 9 10 11 11 10 14 20 15 14 16 8 13 11 11 13 14 19 22 25 27 29 31 32 33 30 30 31 33 33 35 37 39 43 46 48 49 52
20 18 21 23 22 21 21 17 15 17 19 16 11 11 9 16 13 11 10 18 17 16 15 14 18 21 28 30 30 31 29 28 30 33 33 34 37 39 44 48 53 55 57 54
20 18 16 17 14 14 16 24 25 22 24 22 21 19 13 12 15 13 12 14 19 17 16 17 17 20 21 20 22 25 27 30 31 32 34 38 42 44 47 50 54 57 56 41
19 20 19 14 14 1 15 11 10 14 14 12 8 9 8 10 12 8 7 9 11 13 15 18 19 20 21 21 24 27 26 28 31 36 40 43 44 47 52 57 58 55 39 39
20 19 14 8 14 12 11 9 13 12 9 9 8 10 10 9 7 6 11 12 14 14 16 20 20 21 23 25 22 23 26 31 35 40 43 46 49 54 55 55 51 37 40 31
19 18 19 12 5 7 9 20 15 14 14 13 10 8 7 9 10 14 16 18 18 19 21 22 24 22 20 20 22 25 30 34 38 43 49 54 56 55 55 42 41 43 30 20
23 21 21 19 12 9 14 13 11 13 11 16 15 14 13 14 18 24 26 26 24 23 21 19 20 21 22 22 21 24 30 35 42 50 53 52 47 51 40 40 38 25 24 22
18 15 18 19 12 11 15 18 20 15 12 13 12 12 15 22 23 21 20 20 20 20 21 23 25 28 30 28 24 25 28 30 31 32 34 39 38 39 38 30 25 24 24 27
16 16 14 13 9 9 8 12 11 11 11 11 12 17 18 17 18 19 20 21 22 23 24 26 30 32 30 24 25 29 31 35 35 38 36 37 35 31 27 28 27 27 29 31
19 15 14 13 14 11 10 12 14 15 15 16 16 17 17 19 20 21 22 22 23 25 28 32 32 26 25 27 29 31 33 33 34 29 26 26 27 28 28 29 30 32 32 33
21 20 17 17 14 15 16 16 17 18 19 19 19 19 20 24 26 25 24 25 25 29 32 29 30 28 26 24 23 22 21 21 22 24 25 26 28 29 29 31 32 34 34 36
22 21 20 22 19 18 18 20 20 20 20 20 21 23 25 28 25 23 24 25 30 29 28 29 27 23 21 18 18 19 21 21 22 23 26 28 29 30 32 34 35 35 37 38

GFSCGP_700_spd_027.txt.gz
Wind_Speed
3 6 10 5 3 1 2 6 8 8 12 16 18 17 16 11 13 14 9 5 9 8 7 7 9 9 9 8 9 8 7 6 6 5 5 6 9 9 10 14 14 13 13 14
2 5 4 6 7 2 2 10 12 12 14 16 15 18 19 18 10 10 7 9 6 6 4 5 5 8 9 7 6 9 10 10 9 9 10 12 13 13 14 14 14 14 12 13
3 1 1 3 9 6 8 15 12 11 2 7 9 13 19 21 16 17 15 15 12 6 4 3 4 5 8 9 9 10 11 13 13 14 16 17 16 14 13 12 11 12 13 16
4 6 6 9 17 10 19 7 8 10 1 2 5 3 20 22 18 19 19 19 19 15 11 13 11 10 6 5 11 14 16 15 15 19 20 19 18 17 12 13 15 15 17 20
4 6 9 11 18 13 9 6 8 8 5 7 6 2 9 21 26 22 21 23 22 23 20 16 14 12 12 12 13 15 16 17 18 22 23 21 20 17 16 17 18 19 22 25
10 6 5 12 10 7 8 6 5 8 8 2 2 2 9 13 19 23 21 24 25 26 27 24 20 20 18 17 20 18 17 18 21 27 27 25 20 18 19 20 22 25 29 31
12 13 9 9 13 9 7 6 3 2 2 4 6 6 16 16 16 20 24 26 27 24 28 27 25 23 21 23 23 21 19 20 24 26 20 21 20 23 25 26 29 31 34 36
10 5 12 10 7 6 6 5 2 3 2 3 6 6 16 11 12 15 18 17 24 24 23 27 25 24 25 27 26 22 23 24 27 22 22 23 24 27 30 32 33 35 37 41
7 10 13 12 8 7 8 4 6 5 3 1 5 11 14 13 12 14 11 14 17 25 22 21 18 20 22 25 24 23 26 28 25 22 24 25 27 29 30 33 36 40 43 46
21 10 9 10 13 14 13 12 4 4 3 3 5 6 11 7 4 1 5 11 14 15 17 18 16 12 10 18 20 23 21 18 17 19 20 22 22 26 31 36 38 42 43 46
25 20 19 15 16 18 25 22 15 12 7 4 1 5 9 6 2 1 4 4 8 14 13 13 14 11 9 11 8 9 10 10 11 12 13 15 18 22 26 30 35 39 41 43
24 17 19 23 23 22 14 16 13 12 7 8 8 13 11 11 12 11 9 9 5 3 10 9 9 10 12 12 13 14 16 15 15 17 19 19 23 26 26 26 29 33 38 40
28 20 19 17 17 17 17 17 18 19 20 16 9 10 6 11 13 18 17 12 11 8 8 8 10 14 17 19 20 19 19 21 22 23 23 23 26 29 28 30 32 34 35 39
19 22 23 20 19 19 16 17 18 18 17 18 22 22 16 17 18 16 15 14 13 12 12 14 16 18 20 25 26 28 27 27 27 28 27 26 28 28 31 32 35 36 40 42
24 24 20 21 19 19 19 17 14 15 17 19 21 21 16 17 18 13 12 12 15 17 15 16 18 19 22 26 28 29 30 30 30 30 28 28 29 31 32 35 40 43 46 49
29 19 22 20 20 21 24 26 22 20 19 20 19 19 13 13 19 17 12 13 18 19 17 17 17 19 21 24 29 31 32 30 26 28 29 28 30 32 35 39 44 49 50 53
28 28 22 22 22 21 21 27 31 32 30 26 26 25 23 23 18 19 17 17 22 22 19 20 19 21 21 19 18 17 21 24 25 28 28 29 32 34 41 46 50 51 55 57
27 27 24 18 18 3 23 21 23 26 29 32 31 29 22 15 19 18 17 17 16 16 16 17 19 20 20 21 23 25 25 23 24 28 32 33 36 41 46 50 54 59 57 53
27 23 18 12 20 17 14 15 17 17 15 15 14 14 13 15 16 15 14 13 14 16 17 18 19 21 23 25 25 24 22 24 27 31 34 37 42 46 49 55 59 59 52 41
22 21 23 14 8 8 27 22 25 17 15 17 14 12 14 14 14 12 12 13 16 17 18 20 23 25 24 23 24 25 26 27 28 32 37 44 48 50 57 55 56 42 40 43
23 23 23 23 16 14 17 15 15 20 17 22 19 15 14 13 12 13 17 18 18 18 19 21 23 25 26 26 28 29 29 28 28 32 37 40 49 46 43 41 40 42 41 34
30 25 22 21 15 14 18 20 24 19 19 11 14 16 15 15 17 20 20 18 19 20 22 24 26 28 29 32 34 30 24 24 26 31 33 35 34 35 36 39 37 33 33 34
23 26 23 18 13 12 12 19 23 23 18 12 11 12 13 18 19 19 18 18 21 23 24 26 27 29 32 34 31 31 28 27 29 32 35 34 34 30 30 32 34 35 35 37
27 21 23 18 19 15 16 14 16 16 14 12 12 14 16 18 19 19 20 22 23 24 25 26 28 32 29 29 28 32 31 28 27 26 26 26 28 30 33 35 37 38 38 39
28 26 23 23 22 18 20 19 17 15 13 13 16 17 18 20 22 24 26 26 24 25 26 29 32 31 30 30 27 24 22 21 22 24 26 28 30 32 34 35 37 38 39 41
25 28 27 25 21 20 14 14 16 17 18 19 20 22 23 24 24 26 29 26 26 27 29 32 31 29 26 22 21 21 21 22 22 24 27 29 32 33 35 37 39 39 41 43

GFSCGP_700_spd_033.txt.gz
Wind_Speed
8 8 10 10 7 4 3 2 1 2 7 11 12 12 11 5 5 7 10 13 13 15 17 18 19 19 19 18 18 17 16 14 13 12 12 11 11 11 10 9 10 10 9 9
5 3 7 11 9 8 5 4 5 4 5 13 13 10 11 13 6 3 10 12 14 15 14 16 18 17 16 16 16 16 16 14 13 10 10 10 11 11 11 12 12 13 12 12
6 6 8 8 10 10 8 6 8 9 6 7 9 7 7 9 10 9 9 14 17 12 14 14 13 13 14 13 12 13 14 14 12 12 12 11 12 12 13 12 12 14 17 16
9 10 8 7 11 12 10 5 5 4 3 2 1 2 3 6 7 12 13 15 17 15 13 14 15 14 11 12 14 14 13 14 15 14 14 13 12 14 15 19 19 18 19 19
9 9 8 9 11 12 13 8 5 3 4 4 4 3 4 3 6 9 14 16 18 19 18 17 15 15 14 15 13 14 15 17 19 20 18 16 16 16 18 23 22 20 22 23
13 7 7 8 13 10 12 12 7 5 6 3 7 7 6 6 7 9 10 16 18 21 20 18 18 18 19 20 20 19 17 19 21 21 19 19 19 17 19 22 25 25 24 25
18 15 11 11 8 11 12 9 2 1 2 2 5 5 8 8 13 15 14 15 16 22 24 23 23 22 22 21 22 22 22 27 17 22 21 19 20 22 23 25 27 27 25 27
18 8 15 13 15 11 13 11 6 3 3 2 4 5 5 15 13 14 11 15 12 17 20 22 21 22 23 20 22 22 22 28 17 13 17 17 20 23 26 25 23 22 23 24
14 11 8 12 15 13 10 11 9 4 1 2 3 7 11 4 7 6 4 10 12 13 16 18 18 16 18 19 18 16 17 25 24 15 17 19 20 22 23 19 20 20 19 20
17 8 11 14 16 15 10 6 4 4 2 2 3 5 9 8 7 1 6 4 2 5 8 10 13 14 15 17 15 18 16 17 18 20 18 15 15 15 15 15 16 17 21 22
27 16 10 12 15 12 11 14 9 5 7 3 2 5 6 9 12 4 5 7 6 6 4 9 13 14 17 17 19 19 18 15 13 11 12 14 14 16 16 18 21 22 22 24
28 15 20 21 17 16 16 16 14 10 7 9 6 12 19 6 10 9 10 8 9 7 5 4 9 11 9 7 10 13 14 12 11 13 15 18 20 22 23 22 21 20 25 26
32 25 16 12 16 18 20 21 18 17 15 13 7 10 6 9 9 14 12 11 13 12 8 3 4 4 7 9 10 9 13 17 17 20 23 24 25 24 24 24 22 26 31 31
35 30 23 23 25 18 17 22 22 19 15 19 24 25 16 14 12 14 16 16 14 15 13 11 10 9 11 11 12 17 20 22 22 23 26 28 27 26 25 27 29 29 29 30
29 27 26 28 28 26 25 21 17 25 21 21 20 22 19 18 15 15 16 18 15 14 12 16 15 17 17 18 19 22 22 21 24 28 31 32 32 31 32 31 28 28 29 31
33 28 26 27 25 26 24 27 24 20 21 25 26 30 25 25 21 17 15 12 15 16 17 18 21 21 21 22 22 24 25 25 28 30 32 34 34 34 33 30 30 33 37 36
31 32 27 22 23 21 24 28 25 24 26 29 33 34 26 23 22 22 22 19 19 20 21 22 23 22 21 21 22 22 25 28 30 32 33 32 32 32 33 32 33 37 40 42
26 29 29 19 19 8 24 23 23 27 30 32 34 31 27 28 28 26 26 27 21 21 20 19 18 19 18 19 22 25 27 29 29 28 26 26 27 29 31 33 33 34 41 43
24 27 22 15 22 24 20 20 24 25 34 29 25 19 22 24 23 22 22 19 16 14 14 15 16 18 20 23 26 26 24 23 24 25 26 27 30 31 33 31 33 37 36 33
26 24 28 14 11 11 24 25 24 22 38 31 26 25 19 15 17 17 17 15 14 14 15 16 18 21 22 22 21 21 22 23 25 27 29 29 30 32 33 34 33 33 34 31
28 30 29 29 18 21 18 18 19 18 35 23 17 19 18 14 13 14 17 15 14 15 16 18 19 18 18 19 21 22 24 25 27 27 26 24 25 26 26 27 29 29 28 27
31 27 25 29 20 16 23 21 28 28 23 22 21 15 15 16 18 18 17 15 15 16 16 16 16 18 20 20 22 24 27 30 29 28 27 25 24 22 22 22 23 24 26 28
32 34 33 29 33 35 22 25 26 25 22 18 14 13 17 19 20 19 17 16 15 15 15 16 18 20 21 22 25 28 30 30 28 26 23 22 22 22 23 24 25 27 30 32
33 31 34 29 31 32 32 31 27 26 19 14 14 11 15 21 21 19 17 16 16 16 17 19 21 22 23 27 29 31 31 29 24 21 21 21 22 22 24 26 28 30 32 34
33 32 35 34 32 34 33 32 31 23 19 17 16 16 19 21 21 19 19 18 18 19 20 22 24 24 28 28 32 32 30 24 21 21 21 21 22 24 25 28 30 32 35 39
33 29 31 31 27 27 24 24 21 20 20 18 17 17 20 21 21 21 21 21 21 22 24 25 28 31 29 31 31 29 23 21 21 21 22 23 25 27 29 30 32 34 38 41

GFSCGP_700_spd_036.txt.gz
Wind_Speed
13 11 13 12 13 8 6 4 3 1 5 7 10 9 10 8 4 5 10 12 11 13 16 16 17 17 18 17 17 17 17 18 17 17 18 18 18 16 16 16 14 13 12 10
11 13 11 14 15 12 8 7 6 6 8 9 11 9 8 8 3 4 8 12 15 17 18 18 18 18 17 17 18 18 18 17 16 15 15 15 16 17 16 17 16 15 14 15
11 7 11 15 13 13 9 9 6 7 7 9 9 8 9 5 11 11 11 13 17 17 18 20 19 17 17 18 18 17 18 17 18 18 18 18 19 18 17 17 17 16 17 19
13 12 12 12 12 13 10 8 5 5 5 5 6 4 6 8 6 12 15 19 17 16 17 19 19 19 18 18 19 18 19 20 20 21 21 19 18 18 18 18 19 20 22 21
15 17 15 12 12 14 10 9 5 3 5 5 5 8 7 4 6 7 14 20 20 21 20 18 18 19 20 20 18 19 20 20 22 23 22 20 20 20 21 20 23 26 27 24
13 17 14 12 12 12 11 11 7 5 4 8 7 6 5 8 5 5 9 11 22 23 25 24 22 21 21 21 21 21 22 24 26 27 24 26 25 24 22 20 23 24 28 28
20 17 12 12 9 13 11 11 10 8 7 7 5 7 13 7 9 10 11 11 18 26 27 27 27 25 25 24 24 24 26 27 28 26 28 22 23 27 25 26 26 28 26 27
22 18 18 15 15 12 17 15 9 4 5 4 4 6 4 7 12 10 11 15 21 21 27 33 30 29 29 29 28 26 26 32 30 26 14 17 22 26 26 26 28 27 26 26
23 21 13 18 16 14 14 16 12 5 4 5 9 8 11 4 6 5 8 9 12 16 18 26 32 36 34 32 28 26 26 28 29 33 23 14 21 23 24 24 26 25 26 22
13 17 16 14 15 19 12 14 8 8 6 7 7 8 7 6 2 4 1 2 4 9 12 16 21 27 30 27 27 27 25 23 21 26 18 18 19 19 19 21 21 23 22 23
22 16 9 15 17 17 17 12 9 7 6 5 5 7 8 7 7 7 6 4 4 4 3 9 13 18 21 24 25 23 23 23 24 23 19 17 16 17 17 18 21 23 27 28
31 19 18 15 14 18 16 15 16 14 9 8 6 14 15 14 9 9 7 7 6 4 7 6 10 14 17 19 21 22 26 26 22 21 19 18 19 18 21 22 25 26 26 27
33 24 20 19 19 21 17 17 16 16 17 15 8 9 4 8 13 11 12 12 11 10 9 9 9 10 11 11 11 13 17 18 19 20 19 21 25 24 25 25 26 28 27 26
31 29 32 25 21 15 16 20 20 20 18 18 20 17 16 16 14 12 13 14 17 16 13 13 14 14 12 13 14 16 16 18 21 21 24 25 26 27 28 29 29 29 30 32
32 31 30 28 23 21 23 23 20 24 23 23 20 19 18 16 16 17 18 15 17 20 17 15 19 19 18 19 20 21 22 23 23 24 25 28 30 32 33 33 33 32 33 34
26 26 29 27 28 25 23 25 25 25 23 22 23 23 20 18 22 22 22 19 16 15 20 18 18 22 22 23 23 24 24 25 25 27 28 28 29 30 32 33 33 35 33 34
31 27 24 24 24 23 20 30 25 25 25 25 24 23 19 21 25 25 23 22 22 20 17 19 22 24 25 24 22 22 22 21 22 25 28 30 32 34 33 33 33 35 32 31
24 30 22 20 19 9 22 19 19 22 24 25 26 25 26 25 24 24 25 26 25 25 21 21 22 21 20 19 20 20 22 24 27 29 30 30 29 29 31 33 34 34 33 30
21 24 17 13 18 20 15 24 24 23 26 21 26 25 25 26 23 25 25 25 25 25 22 20 18 17 17 18 19 22 25 26 26 26 26 27 28 31 33 35 35 35 34 34
23 26 23 19 12 9 20 19 21 22 34 21 22 19 23 24 26 22 19 21 22 21 19 18 16 16 18 20 23 24 22 22 23 24 26 28 27 26 27 28 29 29 28 27
26 27 29 26 12 14 16 16 16 16 32 16 20 18 15 19 22 21 15 18 22 21 19 17 17 19 20 21 20 19 20 22 23 24 25 25 25 24 23 22 22 23 23 24
21 22 22 20 15 15 21 20 24 30 23 22 23 20 20 20 19 19 18 22 22 21 19 18 18 19 18 18 19 20 22 23 25 26 25 25 23 22 21 22 22 23 23 25
27 19 18 27 23 29 27 25 23 21 23 25 25 21 19 19 21 21 23 24 23 20 19 19 19 18 17 18 20 22 24 25 27 26 25 24 23 22 22 22 22 24 26 27
34 36 27 28 31 29 29 28 27 28 29 27 25 20 18 21 22 24 26 25 23 21 20 19 19 19 20 21 23 26 27 29 29 26 23 22 21 21 21 22 23 25 28 30
30 29 34 34 32 29 27 29 28 28 27 27 24 20 21 20 24 28 27 26 24 22 21 21 21 22 23 24 26 28 29 30 28 23 22 21 21 21 22 24 26 28 31 32
34 32 35 37 33 32 31 25 24 25 26 23 23 23 24 25 26 29 29 28 26 25 24 24 24 25 26 26 30 31 32 28 23 22 21 21 21 22 24 26 30 29 30 33

GFSCGP_700_spd_039.txt.gz
Wind_Speed
12 14 18 17 16 17 10 7 5 2 5 10 9 10 7 8 6 5 5 9 8 9 11 11 12 13 13 15 16 17 19 19 18 18 20 22 21 20 19 20 19 18 17 16
16 18 16 16 15 16 13 12 12 6 5 9 10 11 8 9 10 11 11 13 13 14 16 14 14 13 12 13 15 16 16 17 16 16 18 19 19 18 18 19 20 20 17 16
19 11 11 15 16 16 17 16 10 9 5 10 12 14 11 10 12 14 14 13 16 18 20 17 15 15 14 14 14 15 15 15 17 18 19 19 20 21 19 18 19 19 18 19
19 15 10 13 17 16 20 15 10 8 10 8 10 5 11 12 12 15 16 17 17 19 20 22 19 18 16 16 17 18 18 19 20 19 18 19 19 18 19 20 19 20 21 21
21 17 15 17 16 15 12 8 9 10 12 8 13 11 10 11 13 15 17 19 20 21 21 23 22 18 16 18 17 17 19 20 20 21 21 22 20 21 22 23 22 24 22 26
21 15 16 16 15 15 15 11 12 11 13 11 15 13 10 14 10 11 16 19 22 23 23 23 23 22 20 20 20 20 22 23 23 25 24 26 25 26 27 27 24 25 26 25
25 21 19 16 15 14 16 15 18 13 11 10 8 7 15 8 5 8 8 11 19 25 25 25 26 27 26 26 26 26 26 27 29 27 24 25 37 37 30 32 26 29 30 30
28 28 24 17 21 17 21 21 17 5 7 5 7 8 10 6 5 10 12 13 15 20 27 28 27 29 29 29 29 28 27 28 27 30 26 23 20 27 17 27 29 31 32 32
27 27 23 23 18 19 16 25 21 13 9 8 10 9 12 9 5 5 6 8 12 19 22 26 28 29 29 29 31 31 31 28 29 30 31 34 20 20 18 21 24 27 29 30
18 21 19 19 19 19 22 15 19 16 7 11 17 15 5 7 5 6 4 2 2 8 15 20 24 29 32 31 30 34 35 32 27 25 29 26 22 19 21 24 22 20 26 28
27 19 19 17 21 23 20 18 19 14 21 6 10 8 6 5 6 9 7 6 3 2 4 11 14 21 27 29 30 33 34 32 32 30 26 24 23 22 22 21 19 24 28 29
34 21 20 21 21 23 20 26 25 20 17 12 14 21 13 13 12 11 12 11 8 7 6 9 9 12 16 20 25 27 26 26 28 29 26 26 25 24 24 23 25 25 27 28
34 33 21 24 19 18 22 20 22 22 21 16 14 12 6 5 8 9 10 11 11 12 9 12 13 15 18 20 21 21 21 23 25 25 26 25 24 24 25 26 28 28 29 31
33 31 34 25 28 22 24 23 23 24 22 20 25 24 18 14 14 13 13 14 12 14 15 12 15 18 18 18 17 18 19 22 24 24 24 25 24 25 27 28 30 32 31 33
29 37 33 33 27 24 27 26 27 30 28 27 27 23 23 20 16 14 11 11 15 17 18 21 20 19 21 21 21 21 21 23 22 22 23 26 25 27 30 32 33 34 36 37
27 27 29 34 30 30 30 27 25 27 27 27 28 28 22 18 16 16 17 19 20 22 17 18 23 24 25 27 27 26 25 24 22 24 27 29 30 33 33 32 32 34 35 34
24 26 28 28 29 29 33 29 27 27 27 26 27 26 21 20 19 19 20 20 21 24 24 21 20 24 25 29 30 30 29 27 28 31 32 31 30 31 33 34 33 31 32 33
12 15 24 23 23 21 26 25 25 28 28 25 26 26 24 22 22 22 23 21 24 26 27 27 23 21 24 27 27 26 25 24 24 24 26 29 32 32 31 31 32 34 35 36
10 15 17 24 23 20 23 26 20 22 23 24 25 24 22 22 22 30 30 28 27 27 31 31 28 24 23 24 23 21 21 22 25 28 30 30 29 30 30 32 32 33 33 33
16 23 25 15 22 19 23 28 17 18 30 21 20 20 20 21 27 24 24 24 24 24 25 25 25 23 23 21 21 22 24 26 27 27 27 27 27 29 29 29 29 29 28 27
25 27 28 26 17 17 17 17 18 18 19 7 13 15 18 20 23 20 23 25 22 21 22 24 25 23 22 22 23 23 25 25 25 25 25 26 27 28 27 26 25 24 24 25
17 14 18 21 23 20 15 19 21 25 19 17 18 17 18 19 27 27 25 23 22 21 24 26 25 23 23 23 24 25 24 24 24 24 24 26 25 24 24 24 24 24 24 24
26 28 16 18 16 25 21 24 23 21 21 20 20 18 24 27 26 26 25 24 24 24 27 27 26 24 24 25 25 25 24 24 24 25 25 25 24 23 23 23 23 23 23 24
24 24 30 25 18 16 18 20 19 23 22 22 27 26 27 27 25 25 25 26 26 28 29 28 27 26 26 27 26 26 26 25 26 27 28 26 24 23 23 23 23 24 24 26
27 24 29 29 32 30 27 22 22 23 24 24 26 26 27 26 24 26 27 27 29 30 31 29 28 27 28 28 28 28 28 29 29 30 28 25 24 23 23 23 24 25 25 27
25 28 32 32 22 25 26 25 21 22 23 21 22 26 28 26 23 25 26 29 31 33 32 31 30 30 30 31 31 31 31 32 32 30 26 24 23 23 23 24 23 24 27 29

GFSCGP_700_spd_042.txt.gz
Wind_Speed
15 15 19 17 18 19 17 14 22 5 1 10 15 11 1 16 13 11 3 0 2 5 6 8 12 12 13 15 16 16 19 21 23 26 27 27 27 24 21 27 15 19 18 16
17 26 17 18 19 19 18 18 19 9 7 7 10 13 13 19 16 9 3 4 6 9 10 9 9 12 11 12 12 15 17 18 19 20 20 20 19 19 19 19 20 18 18 15
24 18 16 22 18 16 18 19 18 13 10 10 11 14 7 8 13 12 9 6 11 10 12 11 8 8 10 13 13 12 13 14 14 16 18 18 19 19 19 19 18 18 18 19
25 21 20 15 18 16 19 17 17 12 14 14 8 16 9 20 13 15 15 14 16 18 19 15 14 12 12 12 13 14 14 15 15 16 15 16 16 16 14 16 17 19 19 20
28 23 20 19 18 17 16 10 17 13 17 20 18 11 10 14 17 21 16 18 20 17 22 22 17 13 13 13 12 13 14 14 15 16 17 17 18 19 20 21 21 22 19 19
25 22 21 21 17 17 14 9 12 14 16 16 20 17 13 6 10 15 19 18 21 23 21 23 24 19 16 16 17 17 17 17 17 19 18 18 19 20 23 25 25 24 24 24
28 27 24 19 20 19 17 15 14 12 13 10 20 16 14 8 6 6 14 14 23 20 25 26 27 26 20 20 18 18 19 19 20 21 21 17 19 23 25 34 37 26 28 24
30 25 27 22 24 21 18 21 15 4 3 10 10 6 12 12 8 7 9 10 11 21 21 23 27 29 28 25 23 24 24 25 25 28 24 20 15 20 19 22 23 28 31 27
29 33 21 26 23 23 20 24 23 8 7 8 19 9 11 11 7 6 6 8 12 14 25 25 27 28 30 30 30 28 29 28 30 29 27 26 27 18 20 18 17 15 21 23
33 18 26 27 27 23 26 18 19 14 5 6 10 14 5 8 9 6 5 4 4 9 17 20 29 27 30 32 33 31 29 31 31 32 32 26 26 23 22 22 19 21 23 19
34 24 20 23 33 26 22 24 17 20 23 6 4 7 6 10 11 5 5 9 6 3 9 20 21 19 23 34 32 31 31 34 35 36 30 27 28 22 22 25 24 25 21 23
40 25 30 26 23 23 27 26 27 24 13 11 6 13 14 7 9 11 11 12 9 9 6 8 9 14 21 32 23 32 34 37 33 31 30 30 28 25 27 27 25 24 25 27
40 41 19 27 28 26 27 30 24 28 23 22 11 15 2 5 7 11 9 12 14 14 9 12 14 13 14 16 21 30 35 41 30 27 27 24 23 25 27 25 25 24 26 29
31 36 39 26 24 23 25 26 25 26 24 20 28 18 17 17 11 13 13 15 17 12 12 13 16 18 15 18 20 24 27 23 25 22 22 24 22 23 23 21 23 26 29 31
32 34 39 38 31 29 28 27 28 29 34 27 24 24 22 22 24 17 14 9 12 14 15 15 16 20 21 18 22 24 23 21 22 23 23 23 23 22 23 25 28 31 33 35
33 29 30 37 33 34 35 30 32 29 29 31 29 30 25 22 21 24 19 14 15 20 16 18 17 24 26 24 24 27 26 22 23 25 26 26 25 26 29 30 32 33 33 33
28 27 31 30 32 27 40 39 30 28 30 25 28 25 22 23 21 17 16 23 23 22 24 23 23 27 25 24 27 25 29 29 28 28 27 27 30 32 33 32 32 34 35 33
20 29 29 22 19 22 29 32 31 29 26 25 27 27 23 22 22 21 20 16 19 24 29 29 29 31 29 24 23 25 29 31 30 30 32 32 30 29 30 32 32 31 31 32
9 13 14 17 29 32 28 26 24 26 28 27 32 28 25 23 23 26 22 22 25 33 34 27 28 32 30 27 24 24 26 28 28 26 25 26 28 30 30 29 29 30 30 30
21 12 10 14 18 17 22 24 22 21 36 23 23 23 23 22 24 20 20 24 31 29 24 27 30 31 32 29 25 24 23 23 23 24 26 28 28 28 27 28 29 30 30 30
14 18 22 18 15 13 19 22 21 32 25 11 7 22 24 21 19 20 26 28 25 25 26 27 26 26 25 25 25 24 23 24 25 26 27 27 26 25 27 28 30 29 28 26
15 13 18 14 9 16 8 18 27 27 33 33 14 20 18 18 21 23 24 25 24 26 26 25 24 24 25 26 25 25 25 26 26 26 26 26 26 27 28 29 28 27 26 27
18 21 22 13 17 13 11 27 19 21 17 21 21 18 20 23 26 25 24 25 25 27 25 25 25 26 28 28 27 27 27 27 27 28 28 27 28 30 30 28 27 28 26 26
22 21 26 24 28 18 16 10 22 24 22 20 20 18 22 26 28 25 25 26 25 26 25 26 27 30 31 31 31 29 28 29 30 30 30 31 31 30 31 29 29 27 26 26
25 23 21 23 20 24 25 22 18 17 16 15 22 24 24 24 28 26 26 25 24 25 26 28 30 33 34 34 32 30 31 32 33 34 34 33 33 31 31 28 28 26 26 25
22 25 26 31 29 23 29 19 22 26 29 23 22 23 21 22 27 25 25 23 24 27 29 31 35 36 37 37 35 35 36 37 38 37 36 35 34 32 31 28 28 25 24 24

GFSCGP_700_spd_048.txt.gz
Wind_Speed
22 28 33 23 19 17 17 20 24 23 16 13 13 12 17 16 12 9 7 6 4 6 4 5 6 8 6 10 14 11 28 23 27 23 23 31 25 28 41 28 27 34 38 31
21 33 26 17 15 17 17 22 25 24 9 7 13 16 15 18 14 9 7 6 7 10 8 6 7 6 7 9 11 17 18 17 17 19 23 23 20 23 28 31 34 34 32 30
31 25 17 18 16 18 20 25 25 20 15 11 13 18 18 21 19 14 12 9 8 7 10 7 5 6 7 8 9 14 18 19 21 23 24 26 27 29 36 32 28 27 26 25
26 27 24 15 20 17 24 17 22 19 12 8 10 8 17 13 19 21 15 13 9 6 11 13 9 5 7 8 11 11 11 13 13 18 21 23 26 27 23 20 20 22 27 30
32 22 24 25 23 18 26 15 19 21 20 17 18 9 11 10 18 25 19 15 14 10 9 12 12 9 8 7 7 11 14 15 16 14 16 17 19 19 23 24 24 26 27 25
31 28 20 20 18 20 21 23 18 18 15 6 13 8 19 18 19 20 22 17 15 15 9 8 9 14 14 13 12 12 11 11 14 16 17 17 15 17 19 19 20 20 20 21
32 35 28 25 24 22 24 23 6 4 3 6 14 11 15 17 19 19 18 19 19 18 14 10 13 16 20 19 17 15 14 14 14 15 16 15 17 21 17 14 16 17 18 20
27 17 34 26 32 26 19 23 15 6 3 4 8 7 14 16 4 26 30 17 14 18 16 18 11 9 15 19 20 20 18 17 17 15 14 15 15 17 11 13 14 12 15 13
12 21 22 33 26 22 19 26 22 17 4 1 7 19 25 17 14 11 18 20 19 17 20 20 18 16 13 16 20 20 19 20 21 20 21 20 20 22 18 15 13 15 13 14
34 16 14 29 24 27 29 25 12 10 5 3 5 11 10 3 10 12 7 11 16 17 23 24 23 22 22 18 17 17 20 21 19 20 24 27 28 29 30 24 22 18 15 14
33 38 36 20 29 30 25 34 21 15 14 5 1 7 10 7 13 14 14 12 15 19 19 16 19 26 23 25 24 22 22 29 28 26 27 30 33 30 34 33 31 25 22 22
35 25 38 44 28 12 25 30 34 23 8 13 16 19 15 5 8 23 16 20 19 19 18 18 16 19 22 30 31 31 22 25 23 24 21 26 28 30 34 27 31 37 37 25
12 32 23 24 38 39 34 26 29 29 28 26 13 6 9 19 14 15 19 13 17 19 18 19 18 18 14 21 29 29 25 26 25 28 30 23 29 25 22 23 22 10 17 26
16 20 32 32 23 25 23 29 28 32 30 25 32 33 30 23 25 21 17 14 16 21 22 23 22 23 19 16 16 19 19 21 21 25 33 31 26 21 22 20 22 20 22 26
19 27 20 34 32 38 26 34 32 29 33 30 28 34 29 26 24 20 23 24 24 29 27 26 27 24 21 19 19 20 21 22 19 22 24 28 24 22 19 18 20 21 23 26
17 17 18 25 30 31 35 36 33 38 32 37 33 39 33 29 28 29 28 24 24 25 31 27 33 26 26 25 25 20 22 22 23 24 25 26 25 23 21 23 25 26 23 26
22 24 16 15 25 20 32 49 38 36 31 20 32 23 20 25 28 26 27 30 24 26 21 21 33 32 32 27 26 30 28 22 24 25 25 25 26 26 26 26 27 26 24 27
20 26 17 11 15 16 35 24 37 44 42 35 25 26 19 20 21 17 18 19 25 27 21 23 28 28 29 30 29 30 31 24 24 24 27 27 29 31 30 29 29 28 30 33
21 20 13 13 10 18 26 22 15 29 48 46 33 23 24 23 32 29 25 21 23 24 25 22 27 30 27 28 32 30 26 26 27 28 28 29 32 34 34 33 32 33 33 31
14 16 15 19 8 6 18 18 24 7 17 13 20 27 28 28 30 31 35 32 26 23 23 23 22 23 25 28 30 28 26 27 29 30 29 31 32 32 33 34 32 30 31 32
10 10 18 19 9 21 35 22 20 28 25 16 18 18 15 18 25 24 28 24 20 20 20 22 25 26 25 27 27 28 30 30 29 30 32 32 29 28 27 26 28 30 32 33
21 9 14 11 9 15 28 8 22 13 13 21 20 23 26 20 17 17 14 18 20 19 21 24 24 26 25 26 26 28 30 29 28 28 29 27 25 25 26 28 30 31 32 32
19 19 9 10 15 22 29 27 12 12 12 16 23 26 21 24 20 14 14 19 19 20 21 20 21 23 24 24 25 28 29 27 25 26 26 26 27 28 30 31 32 32 32 32
30 34 33 29 32 27 21 19 23 23 20 14 13 20 22 25 15 16 20 21 18 18 21 22 23 25 26 26 25 26 27 26 26 27 29 31 32 33 33 34 34 33 34 34
17 20 28 34 31 30 26 16 12 15 27 23 22 19 23 17 8 17 16 21 22 24 22 24 25 25 25 25 25 26 28 28 30 33 35 36 36 37 37 38 37 37 37 36
28 23 22 24 22 23 19 17 14 16 15 18 28 33 15 6 16 17 16 17 21 21 21 23 26 26 26 26 26 28 30 32 35 38 40 40 41 42 41 41 40 39 38 37

GFSCGP_700_spd_051.txt.gz
Wind_Speed
31 34 39 33 23 19 19 18 17 13 10 25 18 23 18 16 19 17 10 8 8 5 3 5 6 7 10 13 9 21 20 31 17 26 25 30 31 36 42 48 46 35 39 36
30 42 36 27 21 20 20 20 18 13 10 14 9 16 19 18 18 15 13 10 8 4 4 3 3 5 8 11 14 7 29 31 23 20 28 24 31 34 30 43 41 29 35 40
37 28 30 30 26 23 22 21 17 18 14 16 18 20 18 20 19 20 16 14 11 6 7 4 3 1 5 8 10 11 9 14 14 24 26 24 38 36 27 35 35 34 31 41
33 36 9 14 27 23 24 18 16 18 19 14 15 7 18 18 15 16 17 16 10 6 6 8 6 1 1 4 5 7 9 10 10 15 24 29 30 32 31 33 32 33 34 37
33 32 31 30 24 20 22 11 15 20 21 23 19 10 13 15 18 16 13 16 13 8 5 4 7 6 6 4 4 5 5 6 9 12 15 20 22 26 29 31 34 36 36 34
33 22 14 21 23 22 18 20 20 22 19 7 19 17 16 22 26 21 19 15 16 13 10 7 9 15 13 12 10 8 7 7 6 7 9 14 20 22 22 24 25 27 26 25
30 32 28 21 21 23 21 15 4 5 4 6 14 11 18 11 13 18 19 15 15 15 12 13 10 11 16 16 13 12 10 9 9 8 8 8 9 14 15 16 18 21 22 23
28 14 36 33 34 27 22 21 13 6 4 5 10 7 7 10 20 13 18 17 16 20 14 14 13 12 12 14 17 16 15 14 11 10 10 11 14 15 16 18 19 18 21 23
14 19 18 22 31 31 28 28 22 26 1 2 9 14 23 18 15 19 15 18 17 19 17 16 15 17 17 15 15 18 18 17 16 14 13 14 16 18 19 22 22 21 21 23
24 7 12 15 17 29 30 21 11 10 5 4 4 6 14 19 10 12 11 14 15 15 15 16 17 19 20 21 17 17 18 19 18 19 19 19 20 20 21 23 23 23 23 25
34 33 28 19 12 18 26 28 24 21 20 6 2 8 13 6 5 14 15 13 11 9 10 9 10 12 15 22 23 21 22 21 17 20 21 22 23 26 27 30 33 34 29 30
14 20 33 43 37 25 12 30 31 26 6 10 15 22 15 7 6 15 12 14 13 15 18 14 12 12 11 15 21 26 26 24 21 22 25 25 24 24 26 29 34 34 39 42
4 7 24 32 28 24 33 31 20 22 31 33 15 12 9 14 13 10 12 20 19 20 16 16 15 16 15 13 14 20 26 26 25 26 26 27 31 23 27 30 34 36 36 35
17 8 6 9 13 9 17 29 34 29 30 24 38 32 32 27 21 21 22 20 22 20 18 18 19 19 17 19 16 15 19 18 23 27 27 32 34 33 27 29 27 26 25 24
14 18 18 21 21 22 26 31 24 32 36 32 28 32 33 29 26 27 26 25 20 20 22 23 25 21 22 24 22 16 14 13 15 21 25 28 31 36 38 35 29 28 33 31
13 15 24 24 16 20 28 34 33 39 35 39 29 30 29 28 27 27 29 25 28 30 31 31 26 26 27 29 27 20 16 16 18 21 25 26 29 29 30 34 30 30 28 28
15 13 15 11 15 20 23 33 38 36 37 37 37 33 26 32 31 27 26 30 32 35 28 23 23 27 25 29 29 22 21 18 23 26 27 27 27 28 31 32 30 32 32 30
16 15 10 13 16 5 9 12 18 33 39 38 41 32 25 21 24 26 28 25 26 27 30 24 24 25 23 24 28 24 24 23 25 29 29 27 26 27 29 32 31 31 30 30
19 15 8 6 3 20 36 19 11 21 21 29 41 41 38 26 24 26 25 24 24 19 22 25 27 29 24 25 24 26 27 28 29 32 27 26 26 26 28 30 31 32 31 35
23 21 17 10 4 5 44 39 37 31 37 19 23 37 49 45 43 38 28 27 28 33 27 25 25 31 27 28 27 28 29 29 29 27 26 27 28 29 29 31 34 36 37 38
16 9 17 20 12 17 36 31 23 18 21 19 19 12 22 37 47 33 29 31 32 32 32 33 29 28 26 24 27 28 26 27 25 27 27 28 30 31 33 34 33 35 36 37
11 12 14 16 11 12 16 15 14 10 13 14 19 26 22 20 23 24 23 18 20 22 23 23 25 24 22 21 22 25 27 26 27 28 29 30 30 30 29 27 29 30 31 33
20 21 16 17 17 15 17 21 25 21 19 16 9 18 28 30 32 31 22 15 15 15 21 22 21 19 20 21 22 24 24 26 28 29 31 31 30 29 27 28 30 31 33 34
25 26 32 29 29 25 27 36 23 21 17 22 24 13 17 17 24 24 27 20 18 16 19 19 16 17 21 22 22 23 25 27 29 30 31 31 30 29 30 32 34 35 36 37
13 14 20 25 29 29 27 33 22 19 18 16 20 20 14 16 20 25 31 30 27 26 20 19 20 21 21 21 22 23 26 28 29 30 30 31 31 33 35 36 37 38 39 40
22 21 23 29 27 27 25 21 21 21 21 20 22 19 17 19 19 22 29 30 21 23 19 18 22 22 20 21 23 24 24 27 28 30 31 32 35 37 39 40 41 42 43 43

GFSCGP_700_spd_054.txt.gz
Wind_Speed
30 31 39 36 32 24 18 14 15 19 14 16 16 18 8 13 16 15 11 10 10 8 6 6 8 8 9 12 10 21 24 28 22 27 37 35 39 42 41 38 37 42 48 45
31 41 35 29 28 24 22 21 21 19 14 14 15 17 16 16 16 15 15 13 12 7 6 3 4 6 9 13 16 3 21 30 15 19 24 23 34 42 40 45 47 45 49 43
38 24 35 33 32 30 25 24 21 18 15 16 15 22 17 16 19 18 14 13 14 11 7 6 3 1 4 9 12 11 16 21 27 26 28 21 33 41 34 45 48 48 52 40
31 40 19 22 39 31 31 23 17 18 19 13 17 11 22 18 23 20 17 12 11 10 7 7 5 3 1 4 7 10 9 8 11 23 26 20 40 34 26 41 48 47 44 31
25 31 30 19 24 33 31 19 18 15 20 24 22 13 19 19 21 23 19 14 10 10 7 3 7 8 5 3 2 5 9 9 6 12 9 20 27 34 31 29 36 31 40 28
20 23 22 34 30 18 19 16 13 16 20 8 23 19 13 18 24 24 20 17 12 13 9 7 6 8 8 7 4 3 5 7 9 10 9 7 13 20 28 32 31 29 32 34
24 25 17 15 15 21 25 17 1 2 2 6 13 16 25 21 22 17 12 15 12 13 15 12 7 3 2 7 7 6 5 5 7 9 11 12 14 16 15 18 21 23 25 28
25 11 29 32 27 17 27 26 9 6 4 4 9 8 11 7 8 16 18 16 16 13 19 16 12 8 4 2 7 9 8 7 6 7 8 10 12 13 15 15 17 18 20 22
15 17 16 14 29 33 23 18 25 17 3 2 8 12 17 25 25 16 18 11 15 15 16 18 17 15 11 9 6 7 12 12 11 11 10 10 11 12 13 14 15 16 19 22
18 6 4 9 13 25 33 14 16 11 5 5 4 6 11 9 20 13 9 13 13 15 15 18 18 17 16 16 15 15 12 17 17 16 16 17 18 18 18 19 20 21 23 24
34 21 13 12 10 14 23 31 24 14 13 4 2 6 10 14 5 8 8 9 9 12 13 14 13 13 13 17 21 19 19 16 17 15 19 22 23 24 24 25 25 27 27 28
17 10 27 35 24 12 11 13 25 23 8 10 11 16 12 10 3 6 8 10 11 11 10 11 12 12 12 8 12 18 23 22 20 21 17 25 26 25 28 30 31 31 31 32
3 2 1 4 13 15 14 18 27 22 20 26 13 7 9 13 10 12 15 15 16 16 17 20 16 15 12 8 8 9 18 20 24 23 23 25 24 26 29 30 26 30 30 32
6 2 3 3 3 9 13 9 13 26 30 21 27 25 25 20 23 24 20 18 17 19 19 21 18 17 16 13 12 12 9 13 19 22 23 24 26 26 28 26 32 32 27 29
3 6 8 10 11 15 19 20 18 20 22 30 29 32 29 26 26 26 24 25 24 24 23 22 22 23 21 19 18 18 18 12 15 16 15 13 18 26 28 30 30 34 33 27
10 5 8 11 11 16 19 19 23 27 26 31 28 32 27 24 24 22 24 22 24 26 25 24 22 22 26 21 21 24 23 15 14 13 14 16 20 23 28 28 30 33 35 38
10 8 10 8 9 14 15 5 7 15 21 21 30 34 32 29 29 27 27 30 29 28 24 26 29 32 28 26 20 21 25 23 18 18 19 22 24 26 26 28 31 34 34 32
9 10 9 11 7 3 10 14 15 11 8 11 22 22 30 30 32 35 23 21 23 22 23 26 26 26 22 21 22 20 23 27 22 22 24 25 28 29 27 28 29 31 32 32
19 17 8 5 8 17 21 20 22 28 31 33 35 28 22 26 36 37 30 26 19 18 21 18 18 20 21 26 26 23 23 26 27 28 25 23 27 29 27 28 28 30 31 33
23 19 18 10 2 4 17 11 16 19 32 32 29 31 25 18 29 34 39 35 29 24 20 23 26 23 24 29 31 29 27 27 28 28 26 24 30 31 32 32 31 33 34 37
20 18 22 19 8 16 19 17 16 10 19 16 24 24 29 18 17 24 31 40 43 39 31 30 27 28 30 30 32 31 29 28 27 28 28 31 32 33 32 34 35 37 36 37
13 13 12 14 8 13 8 2 7 15 24 26 19 23 31 23 16 16 19 22 27 26 29 29 29 30 31 32 30 28 26 28 32 32 34 33 33 35 35 35 37 37 38 38
14 17 8 12 13 14 14 17 22 28 32 29 23 16 26 23 10 15 17 21 22 23 23 25 23 18 16 16 17 19 22 26 28 28 31 33 34 35 34 33 33 29 29 33
18 16 19 22 20 20 24 29 27 31 31 22 19 18 16 18 5 15 18 19 20 24 21 19 15 13 13 23 24 27 29 30 28 29 31 32 33 32 31 30 27 32 35 37
13 17 22 25 25 23 21 20 25 29 27 23 21 21 20 21 24 19 16 15 18 23 23 25 25 20 22 23 24 25 25 25 26 28 29 30 30 29 28 27 31 34 34 36
14 20 22 27 27 24 19 21 24 25 23 20 22 23 21 21 22 20 20 21 19 19 24 31 33 28 30 24 26 23 23 24 24 26 28 27 28 28 28 29 30 32 34 35

GFSCGP_700_spd_057.txt.gz
Wind_Speed
32 33 38 37 33 29 20 14 18 18 16 18 16 17 13 9 8 9 9 10 8 11 7 5 3 3 5 6 8 17 27 27 29 25 21 29 26 34 32 33 36 37 38 37
32 39 35 29 29 31 27 21 22 20 19 17 16 18 17 13 11 11 12 13 10 12 9 9 5 3 4 8 12 11 27 28 25 26 22 28 24 39 39 37 36 39 37 38
41 28 34 31 30 31 30 26 23 20 16 15 18 20 18 18 16 14 11 13 11 10 10 9 9 3 1 7 12 7 15 27 22 20 29 31 32 41 42 42 40 40 41 44
33 40 17 20 37 32 32 26 22 20 16 9 11 10 20 24 24 16 13 10 10 10 9 8 9 6 2 3 8 9 5 16 29 16 20 27 29 26 35 37 47 47 49 50
23 28 39 20 17 28 33 25 21 19 17 17 15 12 13 10 19 16 14 14 15 12 10 7 9 10 6 2 4 7 9 8 14 19 24 25 29 26 35 33 48 38 49 50
22 20 18 33 31 24 20 18 9 10 13 9 14 13 14 11 10 11 10 11 13 12 13 11 9 11 9 6 5 5 5 8 7 9 13 17 28 28 32 29 29 42 39 32
22 26 20 16 30 23 18 12 3 5 5 8 10 11 27 24 24 19 13 7 10 10 17 15 8 4 7 7 6 6 6 6 6 5 6 8 16 27 32 38 26 34 38 34
22 14 26 23 22 26 32 29 10 7 6 5 7 7 13 8 5 6 14 15 15 14 16 19 12 9 7 6 7 8 8 8 8 7 6 5 8 10 17 25 25 34 28 31
22 19 13 28 25 21 16 22 28 7 1 1 4 8 15 21 20 14 15 13 14 15 14 20 17 14 11 7 4 7 9 10 10 10 9 8 8 11 13 15 17 18 21 21
12 5 13 13 21 27 24 14 14 15 6 8 3 6 11 14 16 13 10 9 12 15 16 17 20 19 17 15 13 12 10 13 14 15 15 13 13 13 14 16 17 17 19 21
18 14 7 7 14 22 23 25 16 12 16 4 4 6 6 5 7 4 5 6 9 14 15 14 18 18 18 19 20 20 19 16 17 21 20 20 18 17 18 18 19 20 22 24
26 12 15 14 10 10 16 17 27 14 6 7 10 16 13 10 16 13 9 6 7 7 11 13 12 13 16 14 17 21 20 20 18 19 21 21 20 23 23 25 24 27 28 28
7 8 5 6 17 25 17 15 17 20 21 19 10 7 11 8 13 17 12 9 11 8 10 11 14 15 18 14 12 13 15 19 23 25 25 24 22 25 27 27 27 26 33 33
2 6 3 5 5 4 5 10 8 8 12 16 21 16 15 20 17 18 19 20 15 14 12 14 15 16 17 16 13 13 10 12 21 23 28 28 26 26 27 28 29 28 37 34
1 2 3 2 4 5 6 7 11 13 11 10 11 13 12 16 17 18 21 21 20 23 24 23 22 19 20 19 18 16 17 17 17 18 21 23 23 22 23 26 27 27 30 38
12 5 4 2 5 7 10 12 16 15 16 17 14 14 16 18 18 16 15 18 22 24 21 20 25 25 21 22 20 17 19 22 22 19 16 15 17 16 16 18 22 27 29 32
9 10 10 8 8 9 12 8 4 8 10 9 6 10 17 21 25 26 19 15 23 28 29 29 26 28 30 26 28 28 25 23 25 25 21 21 23 21 21 22 23 26 30 31
10 7 7 5 6 5 9 14 14 12 9 9 17 25 27 21 22 29 25 24 24 23 24 27 23 28 30 33 33 29 29 24 25 30 28 25 24 23 25 27 25 26 30 32
18 12 6 4 8 10 8 8 11 12 16 18 24 23 21 22 23 18 29 33 29 28 23 25 21 21 20 26 28 28 29 27 26 28 32 32 29 29 28 31 34 32 32 33
19 19 12 7 3 4 3 10 5 10 17 6 12 15 21 20 23 19 19 33 38 32 28 29 31 22 22 22 22 29 32 33 30 29 31 34 34 31 37 37 37 37 36 37
20 20 20 14 7 7 13 15 12 6 5 11 16 17 18 16 15 21 20 19 18 26 38 38 34 37 31 29 26 28 31 34 33 36 35 36 37 36 36 37 39 39 37 37
12 15 15 18 8 10 1 11 3 7 12 17 20 19 18 18 18 18 20 27 20 14 18 23 28 33 34 34 37 34 36 36 40 39 37 35 35 35 35 38 41 40 40 40
11 12 10 10 7 7 7 9 14 19 20 23 26 23 23 19 16 19 19 25 27 15 16 16 17 22 27 32 35 33 35 36 37 32 30 31 30 33 40 40 38 39 39 39
12 13 17 17 14 16 23 22 23 25 27 29 29 26 23 24 22 19 16 23 25 16 17 15 16 20 18 19 22 22 21 20 21 23 26 28 30 38 42 37 36 35 33 27
13 14 15 20 19 19 20 20 18 18 18 21 21 23 26 25 25 20 20 19 17 11 11 14 17 15 21 18 17 20 22 24 26 27 30 32 39 38 35 33 31 26 25 29
16 19 19 20 18 20 22 26 23 25 28 25 24 26 31 29 34 29 14 18 18 23 18 19 21 21 30 27 24 21 19 21 25 25 25 29 27 26 25 24 22 22 28 31

GFSCGP_700_spd_060.txt.gz
Wind_Speed
32 28 36 33 31 25 19 17 16 15 15 17 18 19 17 12 11 10 8 7 11 12 10 13 11 9 7 8 9 10 17 23 25 18 16 18 19 36 38 35 39 49 43 36
23 34 28 23 24 26 26 19 18 14 12 15 20 21 19 16 14 13 11 10 9 14 9 11 12 10 9 8 12 15 17 24 28 23 24 19 19 23 33 32 39 40 43 37
32 18 28 23 23 25 28 26 20 18 10 12 14 22 22 19 21 18 16 12 10 10 11 12 11 12 9 7 9 10 8 19 24 26 24 22 29 26 30 33 35 35 43 42
22 30 24 20 29 26 27 24 22 18 15 15 9 19 21 19 21 20 18 20 12 6 10 12 11 11 10 7 5 5 1 17 22 22 26 28 26 28 27 33 35 38 46 45
22 19 29 26 21 24 26 15 17 17 18 17 18 14 20 17 17 16 16 19 17 14 10 13 10 13 11 8 5 1 6 10 19 26 23 28 30 29 30 38 38 42 42 46
23 17 16 23 23 17 9 10 9 12 15 16 19 18 12 18 14 7 7 12 15 15 14 16 14 11 10 10 7 3 5 9 10 15 19 20 29 30 32 40 34 42 44 47
23 24 14 15 23 20 20 16 9 10 10 11 7 15 22 12 16 14 12 13 11 10 14 18 14 9 8 10 9 7 6 8 10 9 8 10 15 23 28 30 27 30 39 45
25 12 21 16 19 17 24 26 12 8 10 9 12 10 11 6 7 3 5 10 14 14 15 17 17 13 10 11 11 10 9 8 8 9 10 10 9 11 25 31 29 27 21 27
18 25 19 21 22 23 18 31 22 13 3 5 10 9 14 10 11 10 9 12 13 16 19 19 20 17 14 10 9 11 10 10 10 9 9 10 10 10 10 17 27 30 29 29
11 9 16 18 20 22 14 11 14 19 13 12 11 10 11 4 11 8 7 8 11 14 17 20 19 20 17 13 11 11 12 13 13 13 12 12 10 11 12 13 12 15 19 23
16 12 7 15 22 24 27 19 13 14 22 11 10 9 8 6 2 1 4 10 5 9 14 19 18 20 19 20 19 18 17 16 15 18 18 17 16 16 16 15 15 15 17 20
24 9 14 12 9 17 21 21 27 20 13 14 14 14 11 7 9 14 10 9 5 3 10 16 19 19 19 19 21 20 21 23 22 19 23 24 23 22 21 20 19 19 18 20
11 13 10 17 17 9 13 12 12 22 21 19 11 6 11 14 12 10 11 9 7 5 3 6 11 11 9 15 19 17 18 19 24 26 25 26 29 30 28 26 24 24 24 25
3 10 18 12 10 12 13 15 8 13 15 17 22 18 16 17 17 20 18 13 13 11 10 9 9 12 15 17 23 19 17 15 16 22 26 30 28 28 28 24 29 29 28 28
5 2 4 3 6 6 8 9 9 11 12 11 10 13 12 13 20 19 19 22 22 20 17 18 19 20 21 19 22 23 22 22 20 18 18 23 29 31 32 33 32 32 34 34
12 3 1 2 3 3 5 8 10 10 12 14 15 16 13 16 18 19 18 24 25 24 23 15 20 20 22 25 24 29 27 24 24 26 23 22 25 29 33 33 33 33 33 33
13 13 8 10 6 6 10 16 11 10 6 7 10 8 7 9 9 14 25 26 23 24 31 31 26 26 24 26 28 26 30 30 25 24 28 29 26 25 26 27 25 27 27 27
10 10 10 9 6 7 7 9 12 11 7 7 5 8 13 16 14 16 17 23 33 32 28 30 34 36 31 32 33 33 33 34 34 33 30 33 33 30 30 29 29 30 31 31
23 12 8 9 17 11 5 10 15 12 7 8 4 8 10 11 12 9 16 21 24 28 35 35 36 37 35 31 27 28 39 42 39 35 35 33 38 37 37 38 37 37 35 36
17 19 13 9 9 6 4 11 13 10 8 2 4 8 10 12 7 11 18 20 23 21 22 35 39 35 33 36 28 26 28 28 36 35 38 37 36 42 43 41 42 42 41 39
23 19 23 17 12 8 13 10 9 10 4 7 6 9 11 9 10 15 19 21 20 24 22 23 35 41 42 39 42 34 31 30 30 36 40 41 39 39 45 47 46 43 43 42
18 19 18 20 13 10 8 13 9 9 6 11 12 16 16 15 15 17 21 26 29 26 23 23 25 32 44 44 43 39 45 41 37 35 35 37 43 42 43 47 46 43 45 42
11 13 11 13 12 8 9 13 14 11 17 19 19 21 20 18 18 17 19 22 27 33 23 20 27 21 21 28 37 42 43 46 45 48 44 41 43 46 40 40 43 42 38 39
14 12 10 9 7 9 11 14 19 20 20 18 16 17 16 19 22 24 25 24 26 26 30 23 19 19 12 15 19 20 28 39 44 44 44 40 37 38 39 35 35 36 39 39
12 12 10 12 12 15 19 19 16 12 15 19 22 24 22 23 24 26 29 27 28 28 18 24 24 31 12 15 16 19 19 21 23 26 26 25 27 31 33 34 35 36 42 45
14 13 13 13 15 15 19 17 18 23 24 25 28 28 27 25 26 27 31 32 30 32 17 15 20 21 17 19 22 25 22 22 21 22 26 27 29 30 35 38 33 28 33 32

GFSCGP_700_spd_063.txt.gz
Wind_Speed
19 26 33 29 25 24 25 21 20 16 17 18 19 22 20 17 18 14 15 15 14 14 14 15 11 10 11 10 8 9 13 17 21 18 17 14 14 33 40 32 34 45 45 44
21 34 29 26 26 27 28 28 22 17 12 12 19 23 21 20 21 18 16 16 15 14 15 16 13 12 12 12 12 12 13 20 24 22 16 13 10 30 35 34 36 44 43 43
28 19 25 24 25 27 30 30 25 21 13 13 17 24 23 24 22 21 18 17 16 15 15 16 14 13 13 12 12 14 14 14 21 27 24 21 18 30 33 35 34 35 52 47
24 27 14 21 28 23 30 24 24 22 21 22 14 20 19 20 21 22 19 19 19 18 14 15 14 13 13 13 11 12 12 8 18 21 26 27 20 24 19 24 31 35 32 41
18 17 28 29 22 25 31 19 19 21 25 23 23 16 20 16 19 20 20 21 22 20 18 15 14 12 14 13 11 8 8 3 13 18 21 27 23 23 24 25 28 30 35 37
21 17 17 23 26 22 16 23 19 18 21 21 23 21 19 16 15 12 10 15 18 20 19 18 16 13 12 12 11 8 4 3 9 12 17 18 22 24 27 30 30 31 33 39
24 24 20 16 18 23 23 17 12 14 16 15 20 19 25 12 7 10 12 10 14 17 19 20 17 14 12 12 11 9 6 3 5 8 13 17 17 24 29 33 27 31 33 38
23 20 22 21 21 21 24 26 17 12 10 14 21 10 12 11 10 7 6 11 13 14 16 19 17 17 14 13 12 10 9 7 6 7 9 12 15 17 27 32 34 30 29 30
12 25 14 21 20 20 23 34 31 24 12 9 10 16 17 11 8 6 8 9 12 17 18 19 19 18 18 14 11 10 10 10 9 9 9 8 10 12 14 18 31 29 26 30
19 23 17 23 19 27 26 16 26 27 11 11 11 15 6 7 7 4 4 4 7 13 18 21 21 19 21 17 14 12 10 9 11 11 11 11 10 10 11 13 20 28 30 30
18 13 12 15 26 24 27 29 20 24 25 9 13 14 13 9 4 5 2 4 5 4 11 19 20 18 23 21 18 14 13 13 13 13 14 15 14 13 13 13 13 15 21 23
22 13 21 21 23 22 25 28 24 18 6 25 16 8 8 9 10 1 3 5 5 4 2 12 17 18 21 23 21 19 19 20 20 19 18 18 19 19 18 16 15 16 16 19
8 17 16 19 10 13 22 26 25 25 21 16 9 12 15 4 6 4 4 4 4 5 5 1 12 18 17 20 22 22 22 20 20 23 24 23 23 24 24 21 21 21 21 22
4 15 19 17 19 16 17 17 16 15 17 23 22 16 14 13 11 11 13 9 11 8 6 5 4 5 7 9 12 15 21 20 20 20 21 24 27 26 25 28 29 28 27 28
5 7 11 14 11 12 13 22 21 19 20 16 16 16 17 14 11 18 18 26 17 13 11 3 6 10 13 16 17 18 18 26 24 23 21 18 18 27 30 31 31 32 31 32
9 7 7 9 7 5 9 13 15 16 17 18 18 16 13 10 6 6 9 17 20 22 20 18 20 20 12 13 19 22 24 23 29 29 27 26 24 23 26 33 36 36 37 35
11 14 8 4 4 4 8 17 16 15 16 16 18 13 6 4 5 6 8 16 24 28 29 25 22 21 23 24 25 24 27 30 29 33 31 31 32 31 30 30 34 37 40 40
14 13 14 6 4 3 4 5 13 14 12 10 6 3 3 5 7 8 13 18 18 19 33 33 30 26 29 31 31 33 36 34 35 32 34 33 32 32 35 37 34 33 37 36
22 14 11 8 10 8 4 6 10 12 10 6 4 3 4 6 10 6 11 20 24 23 21 27 39 39 34 37 39 35 30 29 28 34 36 37 39 39 38 40 39 37 37 38
22 19 16 8 10 5 7 10 9 9 11 7 3 3 4 6 5 3 8 18 25 30 28 24 25 32 42 45 43 42 40 39 37 28 27 32 40 44 43 41 44 45 45 45
28 23 25 20 12 10 9 7 5 15 7 4 0 2 3 3 7 17 19 19 23 25 28 30 32 26 28 34 43 44 44 44 44 37 31 30 32 39 40 42 44 49 53 53
26 21 21 23 19 18 10 12 14 9 5 5 6 10 9 9 12 13 16 18 19 22 26 27 29 33 34 34 32 35 45 50 49 46 47 44 39 37 36 40 45 48 52 52
19 27 15 18 21 7 8 14 18 14 12 9 12 13 12 11 11 14 17 18 22 24 27 29 32 31 32 33 33 26 33 46 51 49 49 46 47 46 46 44 44 47 46 46
12 18 11 15 14 13 8 11 12 12 15 18 18 16 15 16 17 18 20 22 22 24 27 30 31 34 37 34 30 19 22 24 34 44 45 48 45 45 43 37 38 38 37 40
8 12 11 9 6 9 15 14 14 17 19 14 17 21 23 23 25 24 27 27 29 29 29 28 31 32 29 27 31 35 19 22 19 17 17 22 29 32 37 36 38 41 42 39
4 7 10 9 8 6 12 11 12 15 19 22 24 25 27 25 27 26 27 28 29 30 28 24 28 25 25 24 23 29 34 22 17 19 20 21 22 21 27 27 27 28 32 35

GFSCGP_700_spd_066.txt.gz
Wind_Speed
22 27 29 26 23 25 23 27 28 30 21 21 24 22 22 22 19 21 15 15 17 18 19 21 15 14 13 8 9 9 13 15 14 17 19 18 11 8 17 19 35 32 36 37
23 30 26 22 21 24 25 27 28 25 18 11 14 19 20 21 21 20 20 15 16 18 20 22 16 13 13 12 9 11 13 16 16 18 18 14 11 7 13 31 35 27 36 34
21 20 16 22 27 28 29 29 27 27 20 17 15 22 24 24 23 22 22 18 15 18 20 25 17 14 13 13 9 10 13 16 14 19 19 15 16 9 23 31 33 24 26 33
21 27 26 24 24 26 32 26 27 27 26 23 20 18 19 22 23 24 24 23 20 18 18 24 21 13 12 12 9 9 11 13 10 14 20 19 17 11 14 21 28 32 25 28
10 13 29 18 19 24 25 19 22 24 26 26 27 21 19 14 17 24 22 23 22 22 22 23 24 14 13 11 10 9 7 10 6 9 19 25 22 16 17 16 20 24 29 28
18 13 16 17 19 21 14 23 24 24 24 20 28 26 22 22 16 17 15 15 16 24 21 21 25 18 14 10 8 9 5 6 3 3 8 16 25 23 22 23 22 21 29 26
15 26 22 18 18 22 23 17 12 10 16 11 23 22 24 18 8 4 9 9 11 16 20 19 25 22 16 11 8 8 6 4 2 1 7 11 15 21 20 20 26 26 24 26
3 7 25 15 20 19 24 29 14 6 4 15 28 13 28 20 16 8 9 8 11 15 16 17 24 24 16 13 9 8 7 5 3 1 2 7 13 18 17 20 25 27 24 23
5 7 13 18 19 22 24 36 34 27 20 11 14 27 14 8 8 7 7 8 8 11 16 15 22 24 17 16 11 8 8 7 6 4 4 3 6 9 12 15 23 26 29 24
13 17 14 18 15 21 23 21 20 16 4 6 5 14 7 14 13 10 7 6 5 10 9 20 17 20 17 18 15 11 9 8 6 6 6 6 6 7 8 11 15 18 30 28
14 18 12 10 24 22 21 28 21 16 21 4 1 6 11 7 11 11 11 3 1 1 5 13 18 19 19 20 19 14 11 8 8 8 10 9 10 10 9 8 8 11 19 28
8 10 18 18 12 20 23 27 26 13 17 27 21 2 3 9 12 13 6 9 9 8 1 7 13 16 21 19 21 17 17 15 15 15 15 15 14 15 14 11 10 12 11 15
4 8 17 10 17 20 21 25 31 24 10 10 7 9 7 7 10 10 6 7 8 6 11 3 6 10 18 16 21 21 20 20 22 22 20 20 20 20 18 17 17 17 17 17
8 11 12 14 10 11 15 22 25 28 17 13 14 8 9 16 4 10 9 7 5 10 4 9 8 4 9 10 7 12 16 18 22 25 22 20 19 20 23 22 23 24 23 24
13 8 13 18 17 17 23 18 20 20 17 8 10 19 12 12 8 9 14 17 18 6 7 6 8 7 11 8 13 15 14 15 15 22 24 23 21 18 19 23 26 27 29 30
6 9 13 15 13 13 16 15 21 20 20 16 12 16 10 8 6 8 3 15 16 20 23 18 17 14 15 12 12 13 18 23 20 19 19 27 28 27 23 23 24 28 30 32
4 5 7 6 9 8 15 16 18 17 18 14 15 16 14 9 8 2 6 9 12 15 19 24 19 21 28 26 25 25 23 21 25 25 24 26 29 33 31 31 30 28 30 33
16 10 9 8 6 4 0 7 18 12 17 8 12 9 9 5 5 3 6 9 13 15 17 17 21 24 24 26 26 24 25 28 27 28 31 32 32 34 35 34 33 32 34 36
24 19 10 6 7 5 2 5 5 21 11 20 7 11 8 5 3 6 3 8 16 20 17 19 24 25 24 25 29 31 31 30 28 28 26 27 30 32 35 39 37 37 38 39
26 26 25 11 6 3 2 12 10 10 8 8 11 6 4 4 5 7 5 10 15 21 23 23 25 26 29 31 30 30 33 33 37 38 37 36 35 36 36 37 41 43 43 46
32 31 31 23 12 7 8 5 9 13 8 9 10 10 10 9 9 6 11 17 21 20 19 22 25 26 27 27 28 31 33 31 32 42 45 41 39 42 44 38 36 37 43 47
30 23 22 24 15 16 3 4 4 11 13 13 12 6 5 8 10 16 19 16 17 19 21 23 26 26 28 30 32 32 31 35 36 35 39 41 43 42 41 44 44 43 39 36
18 32 17 19 25 7 14 14 17 16 12 8 4 5 6 8 11 14 17 17 19 20 22 24 26 29 32 34 35 36 36 35 33 39 37 35 40 44 45 45 44 43 46 40
19 18 23 11 12 19 11 13 17 18 12 7 5 7 7 11 14 16 19 19 21 22 23 24 27 28 29 32 32 34 30 29 33 35 35 31 33 38 42 44 44 43 43 45
8 17 22 14 11 15 17 16 8 13 6 9 12 15 15 17 19 22 23 24 25 25 26 28 29 29 28 26 27 26 29 27 29 30 35 34 29 28 29 32 35 39 41 42
6 11 11 10 1 20 15 8 4 4 8 13 16 21 23 23 24 24 23 24 25 26 28 28 29 29 29 31 30 28 27 28 27 26 23 22 26 12 9 13 17 24 28 32

GFSCGP_700_spd_069.txt.gz
Wind_Speed
21 21 23 20 29 21 18 22 24 27 29 28 29 33 31 32 22 20 25 25 21 22 24 24 26 12 11 10 9 11 12 10 10 13 15 16 16 16 19 22 35 34 37 36
12 20 23 30 23 22 28 27 29 34 35 20 21 31 35 25 23 25 30 28 20 23 25 25 27 15 11 10 10 9 12 13 14 14 16 19 18 17 16 23 33 37 36 36
19 20 17 28 34 23 23 27 27 26 28 16 24 28 21 23 26 29 22 23 26 23 27 25 22 16 12 11 9 8 10 14 17 14 13 17 16 16 18 27 31 32 31 35
18 19 16 18 20 22 21 19 25 24 23 25 25 16 21 19 21 22 29 22 23 23 24 21 21 19 10 11 9 6 9 12 14 13 8 15 12 12 13 22 29 34 36 31
14 17 15 34 32 18 20 13 16 16 17 24 31 19 25 23 25 19 27 33 30 27 26 26 25 21 14 11 8 6 6 9 10 8 6 13 15 13 10 12 21 32 28 26
18 20 14 22 32 23 15 13 16 18 16 8 25 19 18 24 24 17 17 31 33 33 30 26 24 21 17 10 9 6 4 5 7 5 1 5 15 14 12 15 18 20 23 27
13 18 21 10 12 21 15 4 3 2 5 3 16 22 29 24 22 19 8 20 26 17 32 27 25 22 19 10 9 6 4 3 3 3 1 1 3 12 15 13 15 13 18 18
7 6 11 18 18 11 19 21 6 6 3 2 18 11 21 18 16 13 13 9 11 12 24 26 20 18 21 12 10 6 4 3 2 1 2 0 2 4 7 11 18 17 22 16
5 7 7 13 11 15 17 18 28 11 10 2 8 14 27 14 20 17 13 12 12 13 19 18 16 16 13 11 10 7 5 3 2 1 0 1 1 2 3 6 10 13 16 22
10 17 10 9 10 13 18 18 10 12 3 4 7 17 7 4 15 8 9 11 11 8 11 18 17 13 8 10 11 11 7 4 4 2 1 1 2 2 3 5 7 8 11 19
10 15 12 4 13 19 17 19 11 8 13 2 2 5 13 17 20 24 18 17 13 10 11 10 15 18 9 8 11 14 10 7 6 5 4 4 5 5 4 4 6 7 8 12
9 8 16 24 16 13 18 17 20 7 2 13 10 9 7 7 16 17 17 18 17 13 9 11 11 11 11 14 12 15 15 13 10 11 11 10 10 10 9 8 8 9 8 9
6 5 6 6 10 12 14 25 18 23 17 13 2 5 6 15 8 16 14 10 13 11 12 18 19 17 10 12 11 11 18 17 16 15 15 16 16 15 14 13 14 14 14 14
16 13 13 9 15 8 13 17 22 24 9 12 19 10 13 4 11 4 4 3 8 10 10 12 14 16 20 17 9 5 4 8 14 17 19 19 19 19 19 19 19 19 19 21
10 12 11 18 14 18 16 13 15 24 28 11 16 20 12 19 13 2 5 12 13 12 5 8 7 6 12 16 17 15 13 12 11 11 11 11 17 18 19 21 22 22 24 25
4 6 12 14 15 15 17 20 18 19 25 16 15 10 18 3 16 9 9 11 12 12 14 13 7 9 5 8 13 15 14 17 19 19 19 16 15 16 20 23 25 25 24 27
5 4 9 6 10 15 15 20 14 18 21 12 11 10 10 14 8 8 8 8 6 4 10 12 26 20 16 19 15 14 16 21 24 24 26 27 28 22 21 23 27 30 31 31
16 11 8 10 15 3 8 7 16 16 14 14 15 7 16 18 15 6 8 9 8 7 8 8 9 15 24 17 21 26 26 26 25 27 29 31 32 35 32 29 29 30 34 37
29 24 12 5 7 19 15 3 5 22 11 10 14 14 9 21 12 7 10 10 8 11 13 14 15 15 17 19 20 21 24 27 28 27 29 33 37 36 35 35 36 34 35 37
27 27 26 14 4 4 3 4 6 5 12 14 18 20 10 15 18 9 9 10 4 9 14 16 16 17 18 19 20 20 20 21 25 30 31 30 34 40 41 41 41 40 38 38
22 28 31 24 13 17 12 9 2 5 8 16 15 21 17 14 10 9 8 10 13 15 18 18 18 21 22 22 21 22 22 23 23 26 28 33 34 33 43 46 44 42 42 44
20 22 25 25 17 13 16 10 4 17 21 19 21 19 17 17 17 12 7 9 13 15 19 21 23 24 25 25 26 27 29 31 31 30 27 29 32 36 34 40 48 47 43 44
4 19 22 26 32 6 17 18 13 13 15 17 13 12 11 11 13 10 11 13 16 20 22 23 24 23 24 26 28 30 30 28 28 27 29 29 29 32 32 33 40 44 46 44
17 16 24 13 14 30 11 17 22 21 18 15 13 12 8 9 12 14 16 19 20 21 23 25 26 26 27 29 30 29 28 29 34 35 34 34 33 29 29 30 31 34 42 39
18 12 20 24 15 25 18 21 22 18 15 12 10 12 11 11 13 16 18 20 21 22 22 23 24 24 25 26 28 30 31 33 32 29 27 29 29 26 22 18 21 22 24 30
7 14 14 16 17 23 22 18 14 10 5 4 7 9 12 15 17 20 21 21 20 21 22 24 25 24 23 23 25 27 27 26 25 25 26 26 25 22 21 23 25 22 16 22

GFSCGP_700_spd_072.txt.gz
Wind_Speed
14 19 29 28 27 24 22 22 21 23 21 20 29 31 32 28 30 33 30 26 22 24 32 24 24 20 14 16 14 14 10 7 8 9 12 16 15 17 17 18 21 27 29 34
13 21 18 20 25 22 26 27 26 26 26 17 26 31 26 25 29 30 30 29 26 24 28 25 22 12 11 16 14 13 12 9 9 10 11 15 17 17 17 22 22 31 37 41
16 13 9 14 21 26 23 32 32 27 27 27 27 34 28 18 15 26 27 31 25 32 29 23 20 14 10 14 12 13 11 9 11 10 9 11 17 17 23 22 21 35 39 40
15 19 22 20 21 22 32 28 19 23 23 17 8 9 29 18 15 20 26 31 31 26 34 24 17 14 13 10 11 11 11 8 9 8 4 7 12 14 15 20 24 39 37 35
10 12 12 18 25 17 27 29 21 19 16 15 21 10 31 19 23 20 28 21 34 29 34 30 17 11 13 11 10 10 9 8 6 4 0 9 14 14 11 14 25 33 36 37
18 18 18 16 12 23 17 13 21 17 17 8 22 9 24 25 23 23 26 21 22 36 32 30 21 16 17 16 11 9 8 6 5 2 3 7 13 13 13 13 15 27 25 29
10 14 12 13 13 19 23 8 4 7 6 6 14 14 30 19 21 25 22 18 22 32 33 31 25 21 21 17 10 10 8 5 4 2 1 6 9 13 13 12 11 8 26 31
4 5 5 5 16 14 20 18 3 4 3 1 14 7 20 19 31 29 19 16 16 24 35 29 26 22 20 13 10 11 7 4 4 1 1 4 7 8 9 12 11 11 9 18
4 6 6 10 6 11 10 15 23 3 3 2 9 11 23 25 22 23 14 15 10 22 26 24 26 21 12 11 10 11 8 5 5 3 2 3 5 6 5 6 7 13 16 19
4 6 3 4 12 10 13 14 5 11 2 4 6 5 5 13 21 24 23 20 21 22 17 18 24 15 8 7 9 13 10 7 7 5 3 2 3 3 2 2 3 6 10 18
9 11 5 3 10 12 14 12 11 8 9 1 2 4 10 11 7 19 23 22 22 21 22 21 17 12 11 5 7 11 13 10 8 9 5 3 1 1 2 3 4 4 7 12
6 5 10 15 13 16 17 16 14 7 7 15 3 5 15 17 17 20 18 23 23 21 23 23 22 18 13 7 4 5 14 14 13 12 10 8 7 7 7 6 6 7 8 9
3 2 5 3 3 15 12 18 15 20 16 9 3 5 2 12 11 14 16 13 13 14 18 22 26 27 22 19 15 11 6 14 15 15 15 14 13 13 13 12 11 11 12 12
12 3 5 7 6 7 11 12 18 26 8 13 20 8 10 9 3 13 6 9 12 12 14 19 25 27 26 24 21 15 10 12 12 12 11 9 12 18 20 19 18 17 17 18
8 11 11 10 15 21 16 19 21 24 30 15 14 15 21 23 12 11 8 8 9 9 9 10 15 17 18 21 17 13 11 10 10 12 14 11 10 10 9 13 20 22 22 23
5 6 10 13 11 13 23 24 22 25 25 29 27 23 18 20 14 15 10 4 9 14 4 5 5 4 3 3 8 16 17 17 19 18 20 18 17 14 15 16 14 15 22 27
10 8 10 7 10 18 15 18 21 29 20 28 21 17 19 10 15 15 20 14 3 6 11 7 13 9 7 8 5 6 10 13 18 21 25 26 24 24 24 25 24 24 23 22
19 16 13 11 18 4 4 7 10 18 21 25 18 12 21 17 18 15 14 13 10 7 6 8 8 4 8 13 14 16 17 21 23 24 27 29 30 31 31 30 31 30 30 29
24 21 13 8 12 22 21 3 5 10 14 19 16 19 28 26 21 14 10 7 5 4 2 0 2 5 7 8 11 19 21 19 21 23 25 28 30 34 36 37 36 36 35 36
6 24 22 12 3 4 4 6 6 4 12 16 20 21 15 23 21 17 9 5 3 2 5 7 8 10 12 12 12 14 16 19 21 21 23 25 28 31 34 37 40 41 40 40
6 11 27 23 13 14 26 18 11 6 4 18 23 29 23 21 18 12 8 5 5 7 11 12 13 13 14 16 17 17 17 18 20 22 23 23 24 28 32 35 36 38 42 45
9 7 16 23 12 13 9 8 15 12 11 21 22 24 15 15 16 7 4 8 10 11 14 15 16 17 19 19 18 18 19 20 21 20 19 20 22 24 25 27 34 38 39 39
9 13 9 15 16 0 7 13 14 13 16 18 17 17 15 15 5 6 7 10 14 16 17 19 21 21 22 23 23 24 25 24 24 25 26 29 30 28 26 25 25 30 33 35
11 13 15 15 15 23 20 12 16 15 15 13 3 4 6 7 8 11 12 13 15 17 19 20 20 21 21 21 22 24 25 27 27 28 28 29 30 30 30 28 25 22 23 23
17 22 19 22 14 19 19 19 25 22 18 16 15 13 11 10 10 11 13 16 17 18 18 18 18 19 20 22 23 24 25 25 26 27 27 26 26 26 27 26 24 22 21 20
16 14 11 20 23 20 21 17 17 14 17 14 15 12 12 12 13 15 16 16 16 16 16 16 18 20 22 23 22 23 23 22 22 23 24 24 25 26 25 24 22 19 19 17

GFSCGP_700_spd_075.txt.gz
Wind_Speed
20 24 31 29 33 28 23 27 29 30 23 22 27 34 39 39 36 33 35 29 27 27 23 32 30 27 23 20 16 17 16 14 14 13 14 16 14 13 10 13 10 32 37 40
19 24 15 18 22 26 25 24 32 32 24 24 22 30 33 39 35 32 32 30 25 28 24 22 29 29 16 14 15 16 16 14 14 14 14 15 15 14 14 10 15 19 30 37
21 11 7 11 15 24 28 26 25 29 29 31 29 39 39 36 31 25 27 27 26 26 22 23 23 23 17 13 11 14 15 13 13 14 15 14 15 18 19 18 19 19 23 20
14 17 17 16 22 20 27 25 28 24 22 22 17 11 29 27 30 27 17 24 28 27 25 25 23 19 15 16 12 11 13 12 10 11 14 11 11 16 15 16 19 20 26 35
11 9 8 13 20 15 26 20 20 21 18 18 21 19 32 27 30 26 17 22 19 19 28 24 25 24 16 15 13 10 11 11 8 8 10 9 10 16 15 15 19 19 30 29
22 21 19 15 13 14 14 16 17 23 19 10 21 18 15 26 30 24 22 18 17 20 19 30 26 29 22 19 16 10 10 9 7 6 4 7 8 11 11 8 10 16 25 38
21 22 19 16 14 16 12 12 3 5 7 6 3 16 25 13 19 18 21 25 28 24 20 22 30 29 25 24 17 11 10 8 6 4 1 3 9 9 12 10 8 9 27 39
6 4 8 2 9 10 15 21 6 4 3 3 20 8 13 8 16 24 23 28 27 25 24 28 32 28 27 24 14 12 10 8 6 3 1 3 5 10 11 11 9 8 14 23
7 5 5 7 10 8 9 17 20 5 5 1 5 8 25 21 21 27 31 25 25 20 23 26 29 28 26 22 12 12 12 9 6 5 3 5 5 5 7 9 10 12 10 16
6 5 4 6 7 8 6 10 6 7 3 2 5 11 4 3 7 25 29 26 21 12 20 23 22 24 23 15 13 14 14 12 10 8 6 5 5 4 4 4 5 7 11 17
15 8 2 4 7 12 9 9 9 5 5 2 3 0 1 7 2 10 15 24 20 20 18 21 24 27 20 18 16 14 13 14 10 9 8 6 4 3 2 2 3 5 8 13
12 5 9 16 13 10 13 14 14 5 3 8 2 4 8 12 9 9 6 14 21 17 22 26 29 31 23 22 17 15 12 16 16 16 14 12 10 8 5 5 5 6 7 8
2 2 5 0 2 10 12 15 13 16 16 9 3 3 9 15 13 12 11 11 17 26 27 29 33 30 29 27 22 20 16 15 19 19 17 15 14 13 12 11 10 10 11 12
5 1 3 5 9 12 10 10 12 17 7 7 15 10 14 11 5 8 13 10 10 19 28 32 30 30 31 29 26 23 19 18 20 21 20 18 18 17 17 17 16 15 15 15
4 5 8 12 12 15 19 23 20 19 19 15 20 12 19 24 22 2 6 9 7 9 17 25 30 33 31 29 26 20 16 11 12 15 15 14 16 16 16 17 19 21 21 20
2 3 7 13 14 13 21 22 25 28 24 26 21 33 19 19 19 17 5 14 16 12 16 14 13 13 11 13 19 22 23 15 11 13 14 13 15 16 15 14 15 16 18 21
6 6 9 7 10 22 18 7 13 16 26 24 30 22 18 19 17 22 21 9 9 12 10 8 11 12 7 6 7 8 12 16 19 31 32 29 25 25 24 21 21 23 24 24
14 15 13 12 13 4 9 11 11 17 17 18 19 18 18 22 21 21 26 26 15 11 13 10 8 5 3 8 7 6 8 10 13 18 21 24 26 27 31 31 31 30 29 30
18 17 8 5 6 19 23 5 9 14 10 16 16 22 17 28 21 19 15 13 11 10 10 9 7 4 6 6 7 9 10 13 15 18 20 22 25 28 31 34 35 34 34 36
5 14 18 10 3 4 6 3 19 18 16 13 16 20 27 21 25 24 18 19 14 8 5 5 3 1 3 4 7 9 11 15 17 20 21 22 24 26 29 31 33 35 36 38
5 10 19 22 12 13 23 24 18 10 7 8 16 20 19 18 27 12 9 11 14 7 3 1 2 5 7 9 11 13 14 14 15 17 18 20 22 24 24 24 25 27 31 36
4 5 8 11 9 13 11 10 9 12 15 15 21 24 23 25 19 17 15 8 4 2 4 6 8 9 12 13 13 13 14 15 17 18 18 18 19 21 23 23 24 25 26 28
5 5 6 9 6 14 9 5 10 14 12 14 17 27 23 13 13 12 9 5 6 6 10 13 15 15 14 14 14 14 14 15 16 17 18 20 21 22 22 22 23 23 24 24
7 11 12 12 14 22 22 21 21 15 11 9 11 9 1 4 4 5 3 5 6 9 12 14 15 15 14 14 14 14 15 16 15 15 15 16 18 19 20 20 20 20 21 21
15 14 18 18 20 20 17 18 18 16 17 15 13 9 6 5 4 5 6 8 10 14 15 16 15 14 14 14 14 14 15 15 15 16 17 17 18 19 19 19 18 18 19 18
12 18 19 10 16 21 14 12 12 13 16 16 14 9 4 6 7 9 11 12 14 14 14 13 14 14 14 13 13 13 15 16 17 18 18 19 20 20 20 20 20 19 19 18

GFSCGP_700_spd_078.txt.gz
Wind_Speed
19 24 30 27 25 25 28 30 35 32 29 30 29 35 31 29 32 35 35 33 32 33 27 26 24 24 25 25 21 17 18 17 19 17 18 17 18 17 19 16 14 17 24 31
21 27 24 22 20 21 21 26 32 31 26 27 31 43 37 30 33 35 38 36 32 33 33 31 27 24 25 25 20 16 16 16 17 16 16 18 19 19 18 11 11 6 22 23
24 13 8 16 13 17 20 25 30 31 29 29 33 48 40 35 36 35 29 32 30 32 28 28 25 17 21 21 17 14 14 15 15 16 15 16 17 18 16 12 6 4 18 18
18 20 23 20 17 14 18 18 23 23 22 18 15 14 29 30 31 30 28 25 21 28 27 28 21 19 18 18 17 15 13 13 13 14 15 15 13 12 13 11 5 6 9 25
12 7 8 14 9 9 17 17 21 19 23 25 20 15 6 13 22 25 21 21 18 19 28 25 20 18 18 15 17 15 12 10 10 12 14 11 7 9 14 13 13 13 15 17
20 18 15 13 11 11 13 16 16 16 20 9 23 19 7 13 19 20 17 17 12 10 16 26 27 25 23 18 18 17 13 10 8 9 11 9 5 7 12 12 12 15 19 22
19 21 20 20 18 15 14 11 4 2 4 5 5 13 19 16 14 10 18 19 17 15 17 18 22 31 24 24 22 18 12 9 8 7 8 6 5 8 10 9 8 8 11 21
4 3 7 5 7 8 10 17 5 3 2 4 11 6 3 7 12 16 19 21 21 19 20 22 19 24 28 26 23 21 14 11 8 7 5 4 2 7 7 9 7 8 7 18
4 3 4 4 5 6 5 15 15 7 6 3 5 10 14 17 18 16 18 20 21 23 22 28 25 24 26 26 23 21 13 12 9 7 5 4 3 4 5 6 6 7 6 11
7 4 2 5 8 7 10 6 3 7 3 2 6 3 6 12 9 18 22 23 25 19 21 28 29 28 31 28 26 23 17 15 13 11 9 8 8 7 6 5 5 6 8 7
19 8 1 4 6 6 12 6 5 5 4 1 3 0 3 7 12 10 11 15 27 22 23 24 29 28 31 29 26 25 21 18 16 13 13 11 10 10 8 7 6 5 6 8
21 8 7 13 12 10 11 11 10 6 3 6 2 6 6 7 14 11 7 13 16 22 25 23 27 27 27 28 27 26 23 20 18 17 17 14 12 11 9 8 7 6 5 5
15 7 3 3 4 6 6 10 13 14 12 10 3 3 7 2 14 11 6 8 16 20 21 25 23 25 32 33 30 28 28 24 23 21 19 17 15 13 10 8 8 8 8 8
3 7 3 3 3 7 13 13 11 14 6 6 16 18 20 23 25 8 7 4 5 12 17 19 24 27 34 34 30 31 28 23 20 21 20 19 18 16 14 13 12 12 13 12
5 3 0 2 5 10 12 15 17 20 23 18 27 22 22 22 11 13 13 4 11 6 12 17 20 27 35 33 33 29 27 23 16 18 17 15 16 14 13 14 15 17 18 18
1 2 1 6 8 11 18 20 22 24 23 27 31 33 20 25 25 22 12 8 11 16 11 11 14 20 25 24 28 24 18 16 17 12 11 9 9 10 10 14 13 13 13 13
4 2 5 3 13 21 13 6 9 13 15 21 24 21 21 13 18 18 15 16 12 18 20 21 22 18 17 13 12 16 19 21 23 19 16 18 23 20 17 18 18 17 19 19
7 7 5 5 10 2 1 11 11 17 18 16 21 20 16 11 16 20 22 20 17 18 17 15 16 17 13 13 11 7 8 14 18 16 13 16 23 26 29 29 31 31 29 29
13 10 4 3 2 14 9 7 8 15 18 14 13 19 18 18 19 19 23 19 17 18 20 16 17 13 8 8 8 8 11 14 15 16 16 18 20 22 24 27 26 27 29 32
9 14 10 5 0 3 2 8 13 22 18 11 15 20 19 21 24 26 26 21 14 17 16 16 16 15 9 5 4 5 7 9 11 13 15 18 19 21 23 24 26 27 28 29
4 6 12 13 5 10 17 18 17 7 7 18 20 21 20 20 25 22 24 20 16 16 15 10 8 4 1 2 6 7 9 10 11 13 14 17 18 20 22 23 24 24 25 26
1 2 4 7 6 9 6 7 4 10 18 23 21 21 17 18 15 17 21 22 19 13 7 3 2 2 5 7 9 11 12 12 12 13 14 15 16 17 18 19 20 22 22 23
5 8 4 7 5 13 16 13 14 17 23 20 19 13 26 23 23 20 17 17 13 8 6 4 5 7 8 9 10 10 10 10 11 11 12 13 13 14 15 16 17 18 19 20
7 11 10 12 10 15 19 19 18 18 17 15 5 6 5 11 11 12 13 11 6 4 3 6 8 9 10 9 9 9 9 9 10 10 11 11 12 14 15 16 17 17 19 20
15 13 15 17 18 19 13 13 14 14 16 13 8 7 8 9 9 7 5 4 4 5 7 8 8 9 10 10 11 11 11 11 10 10 10 10 11 13 14 15 15 16 17 17
12 14 16 10 9 12 11 11 7 7 8 6 11 13 11 8 6 5 5 7 7 9 9 8 7 8 10 11 10 9 11 12 12 12 12 12 13 14 15 15 16 16 17 18

GFSCGP_700_spd_081.txt.gz
Wind_Speed
17 24 31 27 29 28 27 28 25 27 25 29 32 34 32 26 26 25 27 29 29 31 33 29 27 27 26 25 23 20 21 18 18 18 17 14 14 16 18 20 21 20 26 28
21 26 20 22 25 24 23 25 25 25 16 17 26 37 34 34 35 30 28 31 31 32 34 34 31 30 28 28 24 20 20 18 19 17 16 14 16 18 18 17 18 17 23 23
24 18 12 14 23 20 21 21 20 21 21 22 29 39 29 24 29 30 32 30 29 27 33 34 35 33 30 29 24 20 16 17 18 17 15 14 18 17 15 12 13 15 16 27
20 23 25 20 14 15 17 15 13 15 12 7 9 14 20 25 22 23 30 29 27 20 24 27 36 35 32 26 22 18 17 19 18 17 13 13 16 16 10 7 11 5 2 12
14 12 11 24 27 19 12 11 12 13 12 12 13 12 10 13 22 14 14 22 20 19 22 26 32 34 29 23 23 20 19 18 16 15 12 12 13 11 7 10 10 5 1 7
25 15 10 9 10 11 9 11 12 12 8 5 11 18 13 9 12 12 4 13 16 16 19 25 32 31 25 24 23 22 20 18 14 13 11 10 9 8 8 10 8 9 8 9
19 21 22 21 19 18 12 7 2 1 3 4 4 11 18 17 18 15 9 17 18 17 15 24 30 30 27 23 23 22 22 19 14 13 10 9 5 7 9 10 10 10 13 16
9 4 10 11 20 8 7 7 4 3 2 3 4 8 4 5 8 8 10 16 14 17 17 15 24 28 27 26 26 25 20 17 13 13 10 8 5 9 9 11 9 8 10 12
4 2 4 5 5 6 4 8 11 5 9 5 6 6 12 15 10 15 10 9 14 15 19 19 19 21 24 33 31 31 24 20 16 14 11 8 5 8 10 11 10 9 8 9
9 3 3 6 8 8 9 6 5 7 3 4 4 4 5 15 14 12 11 19 17 15 18 19 21 22 26 24 33 33 27 22 17 15 13 10 8 7 9 10 9 8 9 6
17 9 2 4 7 4 8 9 4 4 4 2 3 2 3 10 8 15 14 10 11 16 17 14 24 31 27 26 33 34 30 24 19 18 16 13 11 8 7 7 6 5 3 5
20 10 11 14 8 8 6 8 7 3 2 5 2 6 8 6 6 18 14 12 11 10 18 17 21 32 32 25 33 35 31 25 21 19 17 16 14 12 10 9 7 5 3 2
16 10 5 5 5 14 10 8 6 8 12 6 3 3 5 15 25 29 24 12 10 12 14 15 21 28 30 30 33 32 32 28 25 21 20 18 16 14 12 10 7 6 5 5
17 14 6 5 6 6 4 5 8 9 5 7 14 19 15 18 23 24 17 18 6 9 12 12 16 14 26 33 36 35 34 33 27 22 23 22 20 16 13 10 9 9 8 8
8 5 5 4 3 1 4 8 9 13 14 11 21 22 26 22 17 21 21 18 7 9 10 11 16 22 20 28 31 32 30 29 25 23 22 21 20 17 14 12 11 11 12 13
6 1 0 1 2 5 12 13 13 10 9 17 19 27 18 9 13 19 14 17 4 17 14 11 14 23 24 25 26 27 28 27 21 18 17 16 16 13 11 7 7 8 9 8
3 0 2 4 5 12 4 5 6 6 8 14 21 24 18 15 15 13 11 11 6 12 21 21 17 18 17 18 19 22 26 25 26 22 22 23 15 14 15 12 12 12 9 11
2 7 6 7 5 1 7 5 3 7 10 15 20 21 15 16 15 15 13 13 17 3 21 23 24 24 21 23 21 21 25 26 27 26 28 24 24 24 24 27 24 21 26 25
14 14 5 2 1 10 5 4 4 16 13 11 17 17 17 14 15 17 17 18 19 15 16 20 24 24 24 20 20 20 12 13 10 14 12 18 21 23 23 23 24 24 27 29
19 16 9 2 2 3 4 6 13 15 9 6 18 20 19 24 22 22 23 21 19 20 18 17 9 19 22 18 13 9 7 6 9 11 13 16 19 19 20 22 23 25 27 29
9 9 12 10 5 6 8 10 9 2 9 20 24 16 20 20 24 23 27 25 12 16 19 18 15 12 13 10 8 6 7 10 11 13 14 16 17 18 18 18 19 20 21 22
3 4 5 6 5 5 1 4 10 10 18 20 22 22 19 16 16 18 21 25 24 17 13 11 8 5 5 4 6 7 8 8 10 12 13 15 15 15 15 16 17 18 19 20
3 5 3 6 5 11 17 17 17 17 16 16 16 16 17 12 8 18 24 22 22 19 15 10 6 3 3 3 3 4 6 8 9 11 11 12 13 14 14 14 16 16 17 18
4 6 7 6 9 14 15 19 15 10 11 13 11 5 14 13 15 13 11 13 13 8 6 5 4 4 4 5 5 6 7 8 9 9 10 11 12 12 13 14 15 16 17 18
10 7 8 12 18 20 19 11 7 7 9 10 7 9 12 12 16 15 11 8 3 2 4 4 4 4 5 5 6 6 7 8 9 10 11 12 13 14 14 15 15 16 17 18
11 10 11 14 15 14 11 7 5 3 5 2 4 7 10 11 11 8 5 5 3 4 6 6 6 6 6 7 7 7 7 8 9 10 11 12 13 14 15 16 16 17 19 20

GFSCGP_700_spd_084.txt.gz
Wind_Speed
21 19 22 23 22 21 20 20 23 23 23 27 30 28 25 25 28 29 28 26 26 26 26 30 36 33 35 34 32 31 27 25 23 17 15 17 16 16 16 16 18 22 26 28
15 23 20 18 18 20 21 22 23 23 18 17 24 32 31 32 32 31 30 29 28 24 25 27 36 36 36 35 33 31 28 25 22 20 17 18 17 17 17 18 20 23 25 29
21 9 11 15 15 17 21 20 19 19 20 23 23 31 11 9 15 18 26 31 29 27 25 26 30 39 38 35 34 31 29 24 21 20 19 19 19 17 16 18 20 21 24 26
20 21 22 18 18 17 16 13 13 13 13 11 8 10 17 13 10 11 17 19 27 26 26 24 31 40 40 37 35 32 29 25 21 19 19 21 18 15 16 14 15 15 17 22
11 10 9 17 21 13 12 10 8 11 14 18 19 12 8 8 5 3 5 12 19 23 22 23 26 38 41 41 36 31 29 26 21 21 19 19 15 15 13 12 15 13 10 6
19 16 11 11 11 18 10 8 9 11 12 9 18 13 4 1 10 10 8 7 10 18 23 22 27 35 41 44 41 34 30 26 22 20 18 16 12 13 10 11 14 15 12 5
15 20 17 16 9 9 11 6 3 7 6 7 4 9 13 10 9 11 10 6 11 16 19 19 26 31 35 39 37 32 28 25 23 20 18 14 12 11 11 11 11 10 9 11
8 7 17 15 23 14 16 15 7 6 5 2 4 8 4 2 7 10 13 10 14 13 16 16 18 27 31 33 31 32 29 26 24 21 18 14 11 10 10 11 11 10 10 10
6 4 6 6 9 17 11 13 9 9 14 9 13 8 5 3 8 15 19 19 13 16 17 17 13 25 31 32 29 29 28 26 23 21 17 13 11 9 10 10 10 10 10 11
7 10 7 9 9 15 10 9 5 8 4 5 6 10 4 4 11 16 16 17 19 17 16 19 15 21 30 31 27 31 31 28 25 20 17 14 11 9 10 9 9 8 8 9
13 13 7 12 15 13 11 11 9 6 5 4 3 2 2 6 16 15 21 19 11 17 16 18 19 23 29 32 31 30 35 32 28 24 18 16 12 11 11 12 9 6 5 6
10 11 19 16 9 10 9 9 12 7 5 4 6 5 1 7 22 24 23 23 14 9 14 18 18 21 29 25 29 30 36 33 30 24 19 17 15 13 13 13 12 9 6 3
5 13 17 10 10 16 13 13 12 8 5 8 4 1 6 15 11 22 22 19 15 11 8 15 20 25 34 33 36 31 36 35 32 28 21 20 18 16 15 13 11 10 8 6
18 15 18 12 3 9 12 11 9 8 4 6 11 18 15 16 17 21 20 21 17 12 8 11 19 27 31 31 35 32 36 36 36 29 23 23 22 20 17 14 12 12 11 10
10 11 10 5 4 6 8 8 8 10 9 9 12 20 21 18 16 18 19 19 19 12 14 13 13 15 18 24 27 33 38 42 41 32 24 24 24 23 20 18 17 15 13 12
6 8 9 5 5 3 4 6 9 10 10 12 14 17 12 17 14 17 18 16 17 14 17 20 16 18 19 22 27 32 38 39 35 28 23 24 25 24 22 20 16 13 11 10
16 5 8 1 3 6 7 8 2 2 2 7 13 18 18 14 12 15 18 15 16 14 18 22 19 23 21 22 28 29 32 33 29 25 25 25 24 23 21 20 16 15 13 13
5 4 0 1 4 3 4 2 4 2 1 4 6 10 7 10 14 17 19 21 20 11 11 19 25 26 27 26 24 28 30 30 28 28 26 26 27 26 20 17 18 17 15 15
7 5 1 1 1 5 4 2 2 5 5 7 12 14 14 15 14 18 19 17 11 12 9 8 17 26 30 32 34 30 32 31 30 32 34 33 33 30 28 33 25 22 20 21
13 13 5 1 2 1 2 4 8 9 8 10 14 15 14 17 15 18 19 17 16 15 13 13 5 13 20 23 27 30 22 21 20 24 24 20 29 28 24 24 25 25 24 24
9 9 10 7 4 3 5 7 3 4 7 13 15 15 19 16 14 16 18 13 9 13 11 11 9 9 9 16 16 18 14 9 5 2 2 2 7 8 12 15 17 20 21 22
6 7 5 7 6 5 5 7 5 9 14 14 14 15 19 3 7 14 15 13 15 18 17 14 12 10 10 9 11 10 7 6 6 6 7 9 10 11 14 14 15 17 18 18
3 4 3 4 2 8 9 9 11 13 8 9 12 12 9 5 3 9 12 13 13 14 14 11 4 4 4 3 4 5 4 5 7 9 10 12 13 14 14 15 15 16 17 17
3 5 5 6 8 12 11 12 13 5 7 8 6 4 8 8 11 15 16 11 9 9 8 6 3 1 2 1 1 3 4 6 9 11 10 12 12 11 12 13 13 14 15 14
4 6 7 7 18 18 16 6 3 3 5 4 3 2 4 10 11 10 8 7 4 4 3 1 3 4 4 4 4 4 4 5 5 6 7 7 8 10 11 13 13 14 14 15
6 4 4 9 16 15 9 6 2 2 4 5 3 3 4 7 7 6 5 6 6 6 1 3 1 2 3 4 5 5 6 6 7 7 7 9 10 12 13 14 15 16 17 18

GFSCGP_700_spd_087.txt.gz
Wind_Speed
13 18 23 23 23 27 26 27 25 25 23 26 28 31 29 26 27 30 31 29 29 26 24 23 26 29 32 30 36 36 34 34 34 28 26 22 19 18 19 20 21 20 21 23
18 22 21 21 20 24 24 28 30 28 22 23 25 29 27 29 31 32 30 28 29 27 24 25 26 29 32 36 38 38 33 34 33 28 26 24 21 18 20 22 23 21 23 26
24 15 10 21 21 21 24 26 27 26 23 24 28 33 27 18 17 20 23 28 28 27 25 26 26 30 31 40 40 40 38 35 32 30 28 25 22 20 22 23 24 23 24 26
25 22 23 17 21 20 25 21 23 21 19 19 11 18 21 17 16 12 11 14 17 23 27 26 25 30 31 39 39 41 39 36 31 29 27 25 21 22 23 24 23 24 23 21
19 17 18 26 27 20 23 17 15 16 19 21 23 18 22 13 8 5 3 5 6 16 20 24 24 28 31 34 42 43 40 34 29 27 26 23 22 23 24 22 21 17 16 17
23 20 17 16 15 18 16 14 17 18 19 18 27 22 17 10 5 3 5 6 5 5 11 18 22 26 28 34 44 45 41 33 27 26 27 21 21 23 24 19 15 15 16 17
17 25 28 21 17 13 17 15 9 11 8 10 7 9 18 3 2 1 4 4 6 11 14 12 16 21 23 31 43 46 42 36 27 27 26 20 20 20 21 15 14 15 17 16
22 18 20 23 26 18 20 20 13 9 8 10 6 9 9 6 6 2 5 8 8 10 12 18 15 13 21 32 39 47 40 35 28 30 24 21 21 18 18 12 13 16 15 13
10 14 5 14 19 23 24 22 22 24 28 18 15 14 9 8 2 3 9 11 14 13 17 17 21 11 22 30 38 38 41 38 32 30 25 22 20 16 14 12 13 15 12 12
13 21 16 13 12 19 23 15 14 15 6 10 17 22 14 10 4 8 10 15 15 13 16 17 18 15 14 31 34 34 35 33 36 30 26 22 19 14 13 13 11 11 9 7
15 21 18 16 16 17 21 18 12 11 15 5 6 2 6 7 6 9 14 16 16 13 16 19 17 20 18 25 26 29 31 37 36 32 28 22 17 14 13 13 11 10 7 6
15 11 26 26 15 17 16 19 21 15 15 12 6 3 5 6 9 12 18 16 17 14 12 18 16 19 21 19 23 20 31 35 35 33 29 22 17 15 13 13 12 10 7 5
17 6 12 23 16 15 21 19 16 17 8 11 6 1 3 8 11 14 23 18 17 16 14 15 14 17 20 22 22 32 27 30 35 35 31 25 20 17 16 15 14 13 10 7
16 17 20 22 16 13 26 22 17 15 9 8 9 14 7 15 14 12 21 18 18 15 13 14 12 16 17 19 27 32 24 26 35 36 32 26 23 20 19 18 17 15 13 11
12 23 26 30 13 7 12 17 16 15 12 10 12 14 17 14 15 14 20 20 17 15 17 13 12 15 18 18 24 32 33 33 38 39 36 31 25 24 23 23 21 20 18 16
15 21 30 23 10 6 6 7 7 8 10 13 12 11 13 12 10 15 18 19 15 14 18 12 15 15 19 25 35 29 29 33 40 42 37 31 27 26 24 24 24 22 20 18
15 23 25 9 5 5 6 11 6 4 2 4 6 11 17 14 12 18 17 19 21 19 19 10 17 19 21 22 23 26 29 35 39 40 36 32 29 28 27 27 26 23 21 19
16 23 20 6 4 5 3 6 6 3 3 4 6 10 14 12 14 14 16 18 22 19 14 12 15 21 25 26 25 29 31 36 36 36 33 32 29 28 27 28 26 25 23 20
7 13 2 6 7 5 8 4 2 2 3 4 7 11 16 14 16 13 14 16 18 14 6 9 12 17 25 28 27 26 37 35 34 33 32 31 29 27 26 26 28 26 24 22
11 11 11 1 2 5 9 1 3 3 8 9 10 12 13 16 20 15 16 14 14 10 5 4 5 9 6 13 19 25 25 33 38 38 33 36 37 36 35 36 29 28 24 25
13 11 9 4 1 4 3 7 2 7 5 14 15 12 14 17 13 13 13 8 9 6 4 5 4 5 5 3 9 13 17 19 17 16 16 18 25 26 33 34 26 29 33 28
10 8 7 4 4 4 3 3 3 6 11 15 13 14 14 7 5 5 4 7 8 8 9 10 9 8 8 7 5 8 8 8 6 6 2 4 3 4 3 2 2 4 7 11
2 2 1 2 3 5 4 8 10 12 6 7 10 11 10 7 4 4 6 9 8 5 4 6 5 4 6 7 6 5 5 4 5 3 0 4 1 1 4 3 5 7 8 10
2 1 1 4 5 7 10 9 13 8 5 6 6 5 6 7 10 11 11 10 8 6 3 5 4 4 5 5 4 2 1 2 3 1 1 2 5 6 7 10 11 13 13 15
4 6 3 7 11 13 14 10 6 4 6 5 4 3 3 5 7 7 6 5 4 3 3 5 6 5 6 5 3 3 3 1 1 2 4 7 9 9 8 7 9 10 12 13
9 9 3 8 12 15 15 11 9 4 4 8 5 4 3 3 3 4 4 2 1 2 2 2 1 2 2 1 0 0 1 1 1 1 2 3 5 5 7 9 10 11 12 14

GFSCGP_700_spd_090.txt.gz
Wind_Speed
14 15 22 20 23 24 24 29 31 29 30 31 26 28 33 32 32 38 35 34 32 29 27 25 23 26 25 30 32 44 44 40 36 34 38 33 27 24 22 21 21 19 18 19
15 23 19 20 22 24 26 26 28 28 26 26 33 39 35 33 36 39 35 33 29 25 26 24 25 27 33 33 35 45 43 39 35 35 36 29 28 26 24 22 23 21 20 22
25 19 11 21 22 24 26 24 24 25 23 27 30 37 38 34 38 27 27 21 20 26 26 27 26 28 27 34 38 41 43 37 35 37 32 31 29 29 24 23 24 22 24 26
25 21 26 27 23 22 28 22 22 23 25 23 22 23 29 23 23 17 12 13 15 17 25 25 21 25 27 33 41 41 44 38 37 35 30 31 29 26 24 25 24 24 26 28
22 19 22 29 29 24 28 19 20 22 21 24 27 25 26 28 30 20 11 6 9 6 12 19 27 25 26 31 34 34 41 38 38 36 31 30 29 26 25 25 24 25 25 24
26 23 22 24 22 21 23 20 20 20 22 20 27 29 27 29 8 8 10 10 12 12 12 16 24 23 28 26 35 34 35 37 38 34 30 27 28 26 25 24 23 25 23 20
21 23 24 26 23 19 17 16 13 10 14 12 18 21 30 18 9 6 5 8 10 20 19 20 21 21 26 29 33 39 35 37 37 31 26 24 28 24 23 22 22 23 18 17
25 25 20 24 31 22 23 22 16 9 9 10 13 8 11 17 11 6 3 4 10 13 13 28 20 19 19 20 26 37 38 34 38 31 26 26 27 22 22 21 20 20 16 16
12 17 10 10 20 24 25 20 23 22 25 16 18 14 19 3 12 8 6 3 10 10 3 11 16 25 24 21 26 34 36 35 36 29 26 28 26 21 21 20 19 17 14 14
11 22 18 20 16 23 25 21 18 19 4 7 15 20 12 12 9 7 2 5 7 10 8 10 12 15 19 34 29 29 28 31 33 30 29 28 25 23 20 19 17 13 13 13
15 12 24 15 15 22 21 27 14 11 18 4 4 3 4 8 7 7 6 9 10 11 9 10 16 18 23 24 31 36 32 30 32 31 32 29 29 23 19 18 16 12 12 11
13 11 18 29 23 25 18 22 27 9 6 15 16 15 2 1 7 5 4 15 13 13 11 8 13 16 19 25 24 25 31 35 32 35 36 33 29 23 19 16 15 13 10 7
12 6 12 17 21 24 18 22 28 20 20 10 4 1 8 11 11 4 12 15 16 15 13 7 7 12 17 21 20 21 20 23 32 40 34 36 30 24 20 17 16 14 10 8
20 16 16 16 24 25 29 26 22 19 11 11 11 8 9 11 7 6 10 16 19 18 14 11 5 10 13 13 17 19 21 18 24 33 36 37 31 26 22 19 19 17 14 13
15 16 17 25 28 31 28 25 18 23 21 7 4 7 7 9 10 9 16 17 16 16 14 15 6 8 11 12 21 22 19 23 21 29 35 36 34 31 26 23 22 20 18 16
13 13 19 29 22 22 29 13 8 2 5 8 12 4 11 12 13 14 17 20 15 22 14 16 9 11 10 12 14 20 28 35 34 33 32 36 37 33 28 26 25 23 22 20
22 16 14 18 25 14 17 14 6 5 7 5 10 10 11 14 16 15 17 16 17 21 17 17 16 12 12 14 17 22 21 26 33 31 36 37 38 34 31 30 28 27 26 24
22 19 15 23 32 6 8 9 11 12 12 9 7 12 13 13 16 17 15 15 15 17 18 15 18 9 12 14 18 21 23 24 26 30 32 35 37 35 32 31 31 30 29 27
20 17 16 12 2 14 13 8 6 4 10 4 8 12 15 18 20 20 15 15 13 11 12 14 16 9 5 13 17 23 26 27 30 32 34 35 37 36 33 31 31 30 30 28
18 12 19 7 2 3 5 8 1 2 3 12 10 13 16 18 21 19 14 13 9 6 7 8 9 11 11 11 12 16 23 25 31 34 38 37 38 40 35 29 28 29 28 27
15 16 20 13 2 7 4 8 5 1 5 15 16 17 17 17 15 12 10 8 4 2 2 4 6 7 6 4 3 7 6 6 13 15 11 9 25 36 40 39 39 40 36 33
9 7 3 4 1 5 7 3 4 2 9 14 16 12 13 11 5 3 1 1 2 1 5 6 7 6 8 8 7 4 1 5 8 6 5 5 6 10 14 12 12 12 17 28
2 5 6 6 9 1 6 9 8 9 9 10 12 8 7 6 4 5 5 6 7 6 5 5 4 5 8 9 9 10 8 8 8 8 7 8 6 7 6 5 6 7 6 3
5 10 8 2 5 3 9 8 9 8 7 8 7 4 5 8 8 9 8 9 6 5 5 6 7 7 8 9 10 11 10 10 8 6 5 6 1 2 2 2 2 3 3 3
12 11 6 4 1 8 5 6 7 7 8 6 2 3 5 6 5 4 4 5 4 5 6 7 7 6 7 8 8 7 6 7 5 4 3 3 5 6 6 6 6 8 9 10
16 14 4 4 8 11 12 10 7 3 4 8 5 5 5 4 3 3 4 4 4 4 5 5 5 5 5 5 4 5 4 3 3 4 5 5 3 3 2 3 4 5 6 7

GFSCGP_700_spd_096.txt.gz
Wind_Speed
13 15 20 16 19 25 26 26 28 24 19 28 33 38 45 43 44 43 37 37 38 36 40 37 33 29 33 36 40 38 34 47 48 43 41 33 27 29 31 29 28 25 23 22
16 21 14 10 11 14 18 24 30 32 27 25 34 39 39 36 33 36 46 43 33 38 40 43 41 37 37 37 33 40 39 36 47 43 38 34 29 25 25 27 29 29 26 23
14 16 7 15 17 20 24 27 29 33 30 30 31 43 42 41 34 32 34 35 42 40 36 38 40 36 37 45 39 37 36 38 41 45 39 40 32 31 28 27 32 31 25 24
13 5 11 16 23 22 34 24 27 31 29 30 24 22 51 43 37 37 32 29 35 36 32 27 36 28 31 41 47 43 36 37 39 48 39 36 30 32 28 29 30 27 26 25
13 10 10 18 22 18 29 24 28 24 25 30 44 11 57 36 47 41 29 32 29 33 32 26 24 26 30 29 46 35 33 34 36 43 36 33 33 32 30 28 28 28 28 25
17 13 18 15 21 22 23 21 18 22 21 15 49 17 46 35 28 23 18 22 23 23 21 20 23 24 33 32 33 37 34 33 34 37 37 39 33 32 32 30 29 29 28 24
23 24 21 19 23 23 25 25 7 6 4 13 30 19 33 25 29 28 22 19 20 29 23 22 23 28 31 34 33 37 39 34 34 37 34 34 31 31 34 31 28 28 27 22
11 11 5 8 10 15 19 21 15 4 3 5 17 9 10 19 19 17 25 32 30 23 28 26 24 26 33 36 36 30 34 35 32 34 35 34 30 32 29 31 29 29 26 21
9 8 12 12 18 16 16 17 22 27 25 11 13 28 24 23 21 21 23 26 8 19 23 31 35 29 27 28 31 28 28 28 28 32 32 33 30 28 27 31 30 27 24 21
7 18 15 21 27 21 14 16 13 15 4 7 8 18 5 13 22 10 5 9 10 6 9 21 21 19 30 26 25 25 23 27 31 32 35 33 32 27 27 30 25 24 23 18
15 16 22 26 20 25 26 19 17 13 18 5 6 6 10 14 22 24 0 7 7 9 6 7 15 17 24 28 26 21 24 29 33 40 41 33 31 29 28 24 24 25 20 15
13 11 17 26 26 26 24 25 20 11 3 11 12 11 14 14 15 14 9 4 12 11 10 7 7 17 19 23 27 20 25 28 29 27 20 28 30 25 26 25 22 23 21 15
11 4 9 18 6 11 7 11 13 20 16 14 7 7 14 18 1 6 9 8 10 11 12 12 9 10 21 21 22 21 22 21 19 15 10 14 21 25 27 26 26 25 20 17
10 9 10 12 20 22 28 29 21 16 15 17 21 20 12 13 6 9 13 11 15 13 12 10 9 11 13 21 20 21 24 24 19 21 21 24 26 28 30 26 24 25 21 20
12 16 17 20 18 22 28 27 25 25 27 21 26 12 6 3 5 3 8 12 13 8 10 7 6 8 9 13 11 14 10 9 16 19 24 30 27 24 27 26 27 24 18 20
14 15 16 32 28 25 21 23 22 21 22 23 20 18 6 2 2 2 7 8 9 7 9 6 8 8 7 12 12 10 9 11 13 16 15 25 23 22 27 28 27 19 20 25
27 23 17 27 23 25 24 17 16 13 8 15 4 9 9 2 4 5 6 8 9 8 10 9 11 12 6 13 13 14 14 17 15 24 19 25 23 22 24 28 23 36 24 23
32 27 22 24 21 6 11 8 19 18 16 15 10 6 4 3 5 5 6 7 9 10 11 12 13 15 7 5 12 17 18 17 21 23 20 20 18 18 18 31 38 37 29 26
17 25 15 9 11 23 21 5 3 8 17 11 8 6 5 6 7 4 5 6 7 9 11 12 13 16 16 11 2 15 19 25 19 20 21 26 23 26 27 31 30 24 27 30
13 16 24 10 6 4 15 10 16 15 12 12 10 6 7 5 4 5 6 6 6 8 10 13 15 16 16 15 16 15 8 8 11 21 22 21 17 26 29 25 31 30 31 31
13 19 30 27 9 7 20 9 12 5 1 9 10 8 7 6 4 4 5 6 8 10 11 13 14 12 12 13 12 10 10 7 8 4 9 18 23 22 28 31 32 33 32 32
10 6 11 19 9 4 15 8 7 7 6 8 9 9 10 8 7 7 8 7 7 8 9 9 10 10 11 13 12 10 8 13 15 14 10 9 3 2 6 16 20 21 21 21
9 9 4 6 8 7 12 17 14 10 8 10 11 11 13 12 11 11 11 10 8 7 7 8 8 9 9 10 11 10 12 15 15 14 11 11 11 9 8 8 7 4 3 2
17 11 11 7 10 9 12 11 11 11 10 10 9 11 12 12 12 11 9 7 6 6 6 6 7 8 8 8 9 9 10 11 11 10 10 11 12 11 10 8 6 6 5 4
11 8 10 11 7 5 5 6 7 10 10 9 10 10 9 9 8 8 7 6 5 4 4 5 6 7 7 8 8 8 7 7 7 8 8 7 7 7 7 7 7 6 6 5
11 6 2 2 2 2 1 3 5 7 9 10 10 8 8 7 7 7 7 6 5 4 3 4 4 5 5 6 6 6 6 5 5 5 4 4 3 3 3 3 3 4 5 7

GFSCGP_700_spd_099.txt.gz
Wind_Speed
16 20 22 15 20 23 26 29 32 26 17 22 26 38 33 31 34 34 34 36 41 45 42 41 44 47 37 35 36 39 43 39 39 44 46 42 42 33 31 34 34 34 32 28
20 24 20 15 14 14 16 20 24 23 14 22 25 39 38 36 39 35 36 35 33 35 37 45 45 43 44 41 36 36 40 41 42 38 39 45 40 38 33 33 34 31 31 31
22 15 2 9 12 14 17 21 23 28 24 26 32 46 38 36 37 36 30 34 42 42 35 36 43 39 36 47 44 41 37 39 44 41 38 41 45 43 37 34 32 28 30 31
12 10 10 11 17 17 26 18 22 25 27 23 21 18 50 39 35 34 41 30 30 24 27 26 30 43 43 40 50 49 46 39 35 41 43 41 45 44 41 34 24 22 26 31
8 7 9 13 14 14 25 21 17 18 21 21 35 8 42 44 48 35 24 25 26 22 24 28 27 30 36 31 42 45 50 49 44 39 33 38 40 41 37 34 28 26 27 29
12 12 14 13 14 17 16 18 21 20 18 9 40 11 35 34 27 21 30 33 26 28 31 30 30 23 27 29 30 38 41 42 45 43 35 36 37 43 36 34 32 25 28 31
15 15 11 17 17 12 8 10 3 4 3 9 21 13 14 22 22 23 25 26 28 26 29 35 38 26 23 24 26 31 35 37 40 42 30 32 38 38 33 30 32 26 28 31
6 4 6 5 5 9 6 9 6 4 3 5 22 9 15 22 26 25 30 33 33 33 38 34 35 27 25 24 24 26 28 27 32 33 33 30 34 35 35 34 34 27 27 30
4 4 10 8 12 15 8 9 11 9 20 8 12 20 23 28 20 18 26 33 21 12 12 21 37 28 36 33 25 23 28 31 34 34 33 35 34 35 36 35 33 29 30 29
6 10 11 15 20 18 13 12 9 5 3 6 8 14 14 14 19 26 33 36 17 16 14 9 16 27 29 27 25 22 22 29 28 32 34 35 37 35 35 34 33 32 31 29
11 12 13 17 12 21 22 17 8 10 11 4 5 7 12 22 25 27 30 43 20 16 18 10 9 13 16 16 19 20 20 23 28 30 30 37 39 34 35 31 29 29 29 30
12 9 13 21 15 6 11 9 9 5 4 12 10 8 14 20 17 22 34 13 6 14 16 12 11 11 12 14 15 20 19 21 25 26 27 26 36 38 34 31 25 26 29 30
6 4 7 11 8 7 8 10 9 12 14 14 6 5 19 22 14 10 17 16 14 15 15 13 12 11 10 12 14 19 22 21 19 23 24 23 33 42 38 36 25 26 27 29
12 10 12 10 15 19 26 20 16 18 14 16 19 29 27 16 15 18 20 15 16 14 11 10 9 10 10 9 13 16 19 22 24 21 19 18 17 25 21 22 24 26 26 26
16 18 18 22 22 23 25 30 30 27 26 22 29 24 26 15 5 5 3 12 12 11 9 9 9 10 8 7 5 11 17 20 21 20 14 16 13 13 18 20 24 25 23 24
16 15 15 24 24 24 26 32 36 33 28 25 26 26 21 14 8 3 7 12 7 7 9 9 11 13 9 7 7 6 8 12 11 13 18 21 19 21 23 22 22 26 22 22
24 17 13 22 20 20 27 22 28 29 26 21 18 15 10 9 9 10 7 5 6 7 9 10 11 14 10 4 6 8 9 11 15 15 24 17 23 29 30 30 26 27 23 21
33 28 20 18 18 6 12 18 6 20 12 12 17 11 6 6 7 4 2 3 6 8 10 12 14 16 16 7 1 7 13 12 19 23 16 35 34 33 20 25 27 26 27 26
18 26 14 7 7 18 24 16 3 16 12 11 10 7 7 5 2 2 2 4 5 8 10 13 16 18 18 16 10 5 7 13 18 18 21 20 28 36 35 17 21 23 24 27
10 18 23 8 4 4 5 20 9 19 9 7 6 3 4 5 1 4 4 4 8 10 13 14 16 17 16 16 18 16 9 6 15 14 11 19 25 22 14 21 20 22 25 31
11 14 24 20 8 10 17 17 25 5 3 4 6 3 4 5 6 6 5 7 8 9 10 13 14 12 14 15 15 13 14 11 10 6 1 10 14 19 25 21 28 30 27 28
8 8 14 15 9 6 18 7 9 9 6 8 8 8 9 9 9 9 9 8 8 7 10 10 11 11 12 14 14 13 11 15 15 15 13 11 9 5 1 3 12 16 18 25
6 3 4 4 6 4 9 12 10 8 10 11 12 13 13 12 13 12 11 9 8 8 8 9 9 11 12 13 13 11 13 16 16 14 13 12 13 10 10 9 8 6 3 2
9 5 8 6 9 8 5 8 8 10 12 12 12 13 14 13 13 12 10 8 8 7 8 8 9 9 10 11 12 11 12 12 13 13 12 11 11 11 10 11 10 10 8 7
8 6 8 10 4 4 5 7 9 10 10 12 11 10 9 10 10 9 8 8 8 7 6 7 7 7 8 9 10 9 9 9 9 9 10 10 10 10 10 8 7 6 6 6
5 4 3 1 2 1 3 7 9 9 10 10 9 9 8 8 8 8 7 6 6 6 5 5 5 6 7 8 8 8 8 7 7 7 6 5 4 5 5 6 6 6 5 6

GFSCGP_700_spd_102.txt.gz
Wind_Speed
22 25 27 23 22 22 23 24 26 24 14 21 28 33 28 24 25 26 29 31 30 28 30 32 36 40 41 42 40 38 37 35 36 39 49 48 47 43 38 32 35 34 36 34
22 26 21 19 17 17 14 17 21 18 7 22 26 37 30 25 25 24 26 24 27 29 31 33 34 36 37 44 43 41 40 38 34 37 38 47 41 39 39 34 36 36 33 36
27 15 7 10 14 15 18 20 16 18 17 20 26 42 30 22 23 16 24 31 25 24 26 27 26 27 29 36 46 41 39 42 38 32 35 42 40 39 42 40 37 37 37 38
16 16 22 19 18 17 22 18 17 15 15 12 13 15 32 13 11 31 20 16 18 23 26 26 23 20 23 23 34 41 33 38 43 36 36 41 41 40 39 41 36 37 39 39
5 4 8 10 10 10 15 12 15 15 17 23 16 8 31 25 29 20 20 21 21 27 28 23 24 26 25 25 28 37 44 39 42 41 37 36 40 41 37 34 40 39 38 34
10 9 11 13 11 11 16 14 11 14 15 8 17 15 33 23 21 25 19 25 32 30 31 35 37 32 27 30 29 34 32 35 41 46 43 40 38 36 37 39 37 36 36 35
11 11 15 16 13 12 8 6 2 3 3 6 1 9 25 16 21 24 29 28 27 29 36 40 43 38 38 35 31 24 21 27 35 43 48 46 47 40 32 36 35 35 34 37
5 4 9 4 3 2 3 3 2 4 3 4 21 8 10 16 22 31 27 28 28 31 38 39 40 35 33 28 28 24 28 20 28 30 30 35 39 37 38 37 35 33 36 35
7 7 9 4 4 5 4 4 4 7 14 7 10 16 23 24 24 23 26 25 31 31 43 28 23 20 26 26 32 24 21 20 24 24 31 34 35 29 33 39 34 37 37 35
8 5 14 14 11 9 4 7 4 4 3 5 8 8 11 8 13 17 25 32 35 37 35 20 22 16 16 21 22 22 22 21 20 26 26 29 30 31 32 35 37 41 39 36
7 7 5 8 9 16 15 8 8 9 9 3 3 4 6 16 20 24 25 25 29 20 12 12 24 15 10 11 13 15 16 19 23 31 26 29 33 34 36 35 37 40 40 35
10 6 3 11 5 7 8 2 3 4 3 6 5 10 13 12 28 24 22 20 21 25 22 19 24 15 9 8 9 13 16 16 16 18 22 23 29 32 31 37 38 37 40 35
4 3 1 5 10 6 4 5 8 9 13 14 4 9 16 22 31 26 22 21 23 26 24 19 18 15 12 8 8 10 15 20 18 19 22 23 26 33 41 38 35 38 31 30
10 7 10 7 8 13 21 23 19 15 9 18 25 29 26 29 26 23 24 14 14 20 21 17 17 15 13 8 5 8 12 17 16 16 18 23 24 23 28 35 39 39 30 30
11 14 15 16 16 20 25 29 29 28 31 25 35 34 33 32 29 22 21 17 15 16 16 15 15 14 13 7 5 6 14 14 17 20 22 17 18 21 21 18 41 28 30 34
14 11 13 22 23 24 30 33 32 32 32 35 35 35 32 32 29 20 15 18 12 13 12 13 14 14 12 6 6 8 9 7 14 18 20 16 15 18 12 14 18 20 22 24
15 12 9 7 9 15 21 18 12 24 33 29 34 31 30 27 16 13 12 17 5 7 9 11 13 16 13 7 6 7 6 8 5 11 12 15 21 22 21 21 20 21 23 23
24 17 11 11 14 4 6 13 17 6 9 18 20 24 23 16 12 10 15 5 4 5 8 11 15 18 18 16 13 4 4 3 7 12 15 11 16 14 20 20 24 24 19 18
20 23 11 5 7 19 22 12 18 8 2 7 13 20 14 12 8 7 2 1 3 8 10 13 16 18 18 18 20 19 13 7 9 8 13 20 21 27 26 21 33 18 23 20
10 16 19 8 4 4 6 12 27 7 4 4 6 9 10 8 5 6 6 4 8 10 12 15 17 17 15 17 18 17 17 13 7 2 7 10 9 22 19 24 21 21 18 25
10 12 22 19 5 10 19 25 2 3 3 5 3 7 7 7 6 7 7 8 8 10 14 15 14 15 17 18 17 17 16 14 18 19 15 8 4 8 13 14 17 27 26 24
6 9 10 14 8 6 17 3 7 4 5 5 7 10 9 10 8 8 9 9 10 11 12 13 14 15 16 16 16 15 15 20 20 19 17 15 14 11 8 3 2 8 10 13
3 2 6 5 6 4 7 11 9 6 6 9 11 12 12 11 12 12 12 10 9 10 10 12 12 13 13 13 14 14 17 17 18 16 15 15 15 15 15 12 11 9 8 5
5 4 8 5 6 6 5 4 4 6 8 12 14 14 14 13 13 12 10 10 9 9 9 10 11 11 11 11 12 13 14 15 15 14 14 15 13 14 12 12 10 10 10 9
6 5 7 8 4 4 3 5 7 8 9 10 11 12 12 11 10 9 8 8 8 8 8 8 9 9 10 10 11 11 12 12 12 11 12 11 10 10 10 10 9 9 8 7
4 3 2 1 0 2 4 6 8 9 8 7 8 9 9 10 9 9 8 7 7 7 7 7 7 7 8 9 10 11 11 11 11 11 11 11 12 11 10 9 9 8 7 7

GFSCGP_700_spd_105.txt.gz
Wind_Speed
29 33 37 29 23 21 20 23 25 26 19 24 24 26 24 20 22 23 22 23 25 22 20 26 30 32 34 34 37 41 41 40 37 39 38 44 52 52 48 45 38 34 32 37
26 31 28 23 21 19 16 17 21 20 12 19 23 31 28 23 20 18 19 20 20 22 22 23 27 32 35 35 35 38 45 43 42 40 39 37 39 48 53 49 45 39 35 35
26 16 10 23 21 21 22 23 21 20 17 20 24 26 15 3 13 17 12 14 13 16 17 17 19 22 27 33 34 34 37 45 44 42 40 41 37 42 49 51 47 42 36 34
22 23 25 16 14 14 20 18 15 14 13 9 12 10 12 7 8 12 11 10 12 14 16 21 19 18 18 23 28 29 30 37 45 43 43 44 41 40 40 49 43 38 41 38
15 7 14 27 23 11 15 7 8 10 14 16 13 11 10 10 11 12 12 10 18 24 26 26 26 25 27 29 27 29 28 34 38 43 38 43 43 37 35 39 40 41 44 41
13 7 8 11 10 11 9 8 10 13 14 8 17 15 11 4 4 9 14 20 25 21 23 26 31 36 34 39 35 32 31 28 32 45 46 39 43 39 34 39 39 38 31 43
13 13 15 13 13 13 13 8 3 4 4 4 5 13 20 22 18 14 18 22 21 23 26 32 38 42 44 35 36 39 37 31 29 36 43 44 45 43 40 34 37 39 38 37
11 6 13 10 12 10 12 12 6 5 4 1 5 9 5 11 14 17 20 23 24 24 30 37 40 39 36 35 28 29 30 32 29 24 38 40 47 47 44 40 32 33 38 35
10 9 13 12 12 9 9 6 8 2 7 6 10 12 17 21 19 20 19 24 25 29 35 32 26 24 27 26 24 23 26 27 27 22 27 33 43 45 48 44 40 34 39 39
15 5 14 13 10 8 10 9 4 5 4 6 6 9 9 5 11 18 20 26 28 25 23 26 27 24 24 24 16 14 19 25 25 23 28 30 35 38 37 38 38 39 41 43
17 14 7 11 7 10 13 12 11 10 7 4 5 6 9 7 8 15 22 30 31 28 29 26 28 22 22 22 16 12 13 17 22 21 22 28 29 32 31 34 35 35 38 39
13 7 7 8 13 15 11 9 13 7 4 6 6 12 15 18 22 22 28 31 30 31 29 24 28 22 27 20 16 12 11 11 19 20 26 27 22 25 32 33 34 35 39 39
11 6 5 2 4 8 8 11 3 7 10 12 8 8 10 17 28 28 31 31 25 27 29 23 25 23 21 17 13 11 7 11 14 16 26 32 22 23 22 27 32 32 35 42
10 9 10 5 3 5 9 13 14 13 11 15 25 28 30 27 35 36 34 30 26 24 30 22 23 22 20 14 9 9 7 7 14 19 14 16 19 17 24 20 22 26 33 36
7 9 11 11 13 16 19 19 22 24 26 22 31 37 37 31 33 35 30 29 21 21 28 20 17 16 14 11 7 7 8 14 9 13 19 9 19 18 17 20 23 30 39 42
14 9 9 13 15 16 19 22 25 26 29 31 34 42 32 35 32 29 24 19 13 14 19 12 12 13 14 10 7 7 7 8 12 12 10 11 15 16 17 19 28 35 33 51
11 8 6 5 7 11 18 5 4 9 16 21 31 29 28 26 25 22 15 9 9 9 12 6 11 15 16 14 12 6 8 5 5 7 7 15 14 13 18 14 10 18 32 36
17 11 6 5 8 4 2 5 13 14 14 18 19 19 20 17 17 16 9 2 5 5 2 8 12 15 18 20 21 18 11 7 6 2 7 10 11 14 16 17 20 23 15 24
21 18 6 3 5 14 8 2 10 14 18 8 7 10 10 10 12 7 2 2 3 3 9 13 14 16 17 18 20 21 18 11 8 6 8 5 11 11 9 21 24 20 30 27
9 19 14 7 3 3 3 10 21 21 10 7 8 6 13 11 7 6 8 7 8 11 13 14 15 16 15 18 20 19 17 18 16 14 9 7 4 7 13 13 20 31 25 31
9 11 16 11 4 7 14 22 4 6 4 7 7 13 13 6 5 9 10 9 11 13 13 15 15 14 16 18 19 17 18 20 24 24 21 19 13 8 3 4 6 12 18 10
4 7 7 7 4 5 13 5 3 2 4 2 8 10 9 7 9 11 11 11 12 12 13 13 13 14 15 16 16 16 16 24 23 23 21 21 20 18 17 13 9 7 3 5
3 5 5 7 5 7 7 7 7 6 5 6 7 10 9 9 12 14 13 12 12 12 11 12 13 14 14 15 16 16 18 20 21 20 19 19 20 19 19 17 16 14 12 11
3 3 7 5 3 4 5 6 6 7 8 10 12 14 15 13 14 12 12 11 11 11 10 12 13 13 12 13 14 14 15 16 17 16 16 17 16 16 15 14 13 12 11 10
4 6 5 4 2 3 6 6 7 8 9 9 11 13 13 12 12 12 11 10 10 10 10 11 11 12 12 14 14 14 14 14 14 14 14 14 14 13 12 11 11 10 10 9
3 4 4 3 1 1 3 5 7 8 8 9 10 10 10 12 11 11 10 9 9 9 8 10 10 11 11 12 13 14 14 13 13 14 13 13 13 13 12 12 11 10 9 8

GFSCGP_700_spd_108.txt.gz
Wind_Speed
29 26 35 28 27 27 24 21 23 22 21 21 22 23 20 19 20 20 18 16 18 23 24 23 23 24 27 30 31 32 34 39 42 46 49 51 53 52 50 52 49 46 45 40
25 34 30 27 25 25 23 23 24 20 16 17 19 23 22 22 22 19 16 15 20 17 19 23 25 26 27 29 31 33 35 36 43 44 47 46 46 50 56 58 55 54 50 44
32 21 16 26 24 26 26 25 21 20 17 21 22 27 17 9 9 12 13 14 14 14 15 16 17 21 24 26 26 29 32 35 38 43 49 49 49 47 51 53 59 60 55 48
26 27 23 17 23 22 25 21 22 20 16 14 6 8 7 11 10 10 6 10 12 11 13 16 19 23 22 25 27 28 30 33 36 41 45 53 54 54 49 45 44 51 60 57
21 15 17 27 24 20 20 18 16 15 16 17 19 13 13 12 13 9 8 10 13 15 20 20 21 22 24 27 27 32 35 36 38 39 43 48 56 56 51 46 44 47 51 56
24 17 11 12 20 25 14 11 12 13 14 16 21 18 14 15 12 9 15 15 16 21 20 20 23 26 29 32 35 35 39 41 43 45 45 43 49 57 53 49 46 44 48 51
21 19 12 11 9 13 15 12 11 11 9 11 4 13 16 10 12 10 16 18 22 22 20 25 27 33 36 38 40 41 39 40 46 50 47 44 43 52 51 49 46 44 44 42
20 14 14 10 14 14 19 19 16 11 11 5 6 9 7 14 17 15 15 17 19 18 21 26 31 30 32 34 36 36 38 37 39 49 50 46 44 45 55 45 49 45 45 42
15 10 8 10 15 17 12 16 13 9 13 12 17 12 9 8 4 9 14 12 14 18 18 23 24 31 32 34 33 34 32 28 30 38 44 46 39 41 49 49 49 49 40 44
10 6 11 17 17 16 10 10 5 8 5 12 11 15 11 10 9 10 10 13 20 27 30 30 36 29 29 31 26 29 27 21 23 29 29 34 33 34 41 49 51 51 44 40
9 14 5 14 13 13 12 11 10 9 11 7 10 8 4 11 10 13 17 25 30 31 31 31 32 29 31 29 28 28 26 23 18 24 23 26 29 24 30 39 50 49 47 45
18 11 14 12 18 20 17 14 15 16 12 14 15 19 7 12 16 23 27 26 30 32 30 30 33 29 33 31 31 27 25 22 10 21 22 21 23 31 26 33 36 42 47 50
18 8 9 5 7 16 11 12 13 13 8 16 14 5 5 10 16 26 28 31 33 32 30 28 30 27 32 26 30 22 20 16 8 15 22 24 22 29 28 28 33 36 38 39
14 11 12 11 2 4 10 15 13 13 11 19 26 28 21 19 23 26 34 31 31 29 25 23 27 30 31 25 24 15 17 13 8 14 24 28 26 33 33 28 33 33 34 33
14 10 12 14 12 10 13 16 19 23 25 27 29 32 29 27 28 33 34 31 27 24 19 19 23 25 21 16 13 13 14 13 17 17 16 20 17 27 27 19 34 34 35 33
15 7 10 12 13 14 18 22 25 26 26 30 32 39 28 25 33 34 29 21 20 16 14 15 18 14 12 13 11 8 8 10 12 19 13 10 8 23 14 14 14 26 28 29
12 9 5 9 7 8 16 21 21 20 17 19 23 23 23 30 24 22 19 14 13 11 7 9 9 9 13 16 18 12 9 9 6 7 8 6 5 11 12 11 13 19 25 33
10 11 9 6 4 7 5 4 6 10 14 16 23 25 17 25 19 12 11 9 8 4 3 2 6 12 15 18 20 21 15 11 9 7 6 7 8 3 9 8 15 16 26 32
17 14 9 7 11 10 9 11 6 9 11 20 17 15 15 11 11 10 10 7 4 4 5 7 11 14 16 17 19 18 19 17 11 9 8 8 6 6 7 6 3 18 15 21
11 16 14 7 5 4 3 6 18 16 15 13 9 8 9 11 11 11 10 8 7 7 8 11 14 15 16 17 18 19 20 22 24 25 21 16 13 7 5 2 8 18 17 20
9 13 17 14 7 6 10 14 3 8 3 9 7 9 13 9 8 12 12 10 10 11 12 12 12 12 14 16 17 17 20 25 29 27 25 23 23 22 20 14 9 0 6 7
6 8 7 8 7 4 8 8 5 4 6 5 4 14 12 6 10 13 12 11 11 11 12 12 11 12 13 16 17 18 21 25 25 25 24 24 25 25 24 22 21 18 16 11
4 7 3 7 3 9 7 4 3 3 3 4 8 10 8 8 13 13 12 12 12 11 11 11 11 12 12 13 15 16 19 21 21 20 20 22 23 22 23 21 21 19 18 17
3 3 4 2 3 3 4 2 5 7 8 8 10 12 12 13 15 14 13 12 12 11 11 11 12 12 11 14 15 16 17 18 18 17 18 18 17 18 18 17 17 17 16 16
4 6 6 4 3 2 6 6 8 8 9 10 11 14 15 14 14 13 12 12 11 10 10 11 11 10 11 13 14 15 15 16 16 16 16 16 16 16 16 15 15 14 14 13
4 5 7 6 2 2 4 6 7 8 9 10 11 11 13 14 12 12 10 10 9 9 8 9 8 9 9 11 12 13 13 14 15 15 15 15 15 15 15 14 14 14 14 13

GFSCGP_700_spd_111.txt.gz
Wind_Speed
23 24 35 29 30 32 32 33 34 31 22 22 29 32 29 27 25 25 21 19 18 17 19 19 24 26 25 27 28 30 33 36 40 45 46 46 49 50 52 50 52 50 53 49
27 35 31 30 31 32 33 34 36 32 28 28 30 33 29 25 25 24 22 19 19 17 13 14 24 25 27 29 29 30 32 35 37 40 43 48 51 54 55 57 54 54 55 55
38 35 30 25 32 33 36 34 33 30 26 23 26 35 32 31 28 24 22 17 20 15 13 19 23 23 23 25 26 28 30 32 35 38 42 45 49 50 53 56 58 60 60 56
35 35 34 33 27 31 34 29 29 28 26 29 25 23 12 10 12 15 18 15 13 14 19 18 18 22 24 28 29 28 30 30 32 35 39 45 48 53 54 50 54 55 57 60
33 29 28 31 35 27 30 25 24 25 25 27 29 25 26 26 22 16 16 15 11 15 17 17 22 25 26 29 30 32 33 35 35 37 40 43 47 51 54 59 55 57 55 53
36 25 23 24 23 28 28 24 22 25 25 22 31 30 27 22 23 23 20 11 7 15 18 23 22 22 25 28 31 34 37 40 43 45 44 48 49 50 54 56 59 50 59 55
32 28 28 20 18 14 21 23 18 15 17 16 26 26 25 8 15 19 15 10 8 14 21 21 22 24 27 30 32 34 36 40 44 47 50 50 53 53 55 55 54 57 57 58
17 14 24 20 20 18 20 24 14 7 12 12 13 11 5 11 20 21 14 11 15 21 20 19 21 23 23 30 34 35 36 38 41 42 45 48 51 58 59 57 53 52 56 58
10 16 14 12 13 13 13 28 21 18 25 15 14 7 3 12 14 22 22 18 21 18 17 20 26 30 33 34 36 37 38 38 41 42 44 46 46 53 59 59 52 47 51 54
14 8 15 11 11 11 14 6 9 13 10 17 17 22 15 14 12 11 10 14 16 20 24 29 34 36 38 38 39 37 37 38 40 42 40 38 38 40 50 55 50 46 47 51
16 14 6 10 15 17 14 16 12 10 12 6 11 6 6 13 10 4 4 11 19 25 30 34 36 34 33 33 37 33 33 35 34 34 34 28 27 29 32 42 49 44 45 50
13 9 12 13 10 18 16 15 17 19 17 23 23 23 8 4 4 10 11 19 22 28 29 30 32 30 31 32 32 32 30 34 34 30 33 26 26 26 32 38 42 35 41 46
12 7 11 13 11 18 18 22 22 20 21 24 18 11 10 8 13 17 22 25 29 30 29 29 28 27 30 28 29 29 30 33 32 24 15 20 25 32 34 29 31 31 34 40
10 14 16 12 5 4 9 17 20 21 20 25 27 25 17 10 14 21 23 26 36 35 29 27 26 27 27 28 28 27 26 27 26 22 19 14 22 23 23 24 25 27 28 33
17 15 16 19 18 14 12 13 17 21 23 24 22 25 25 29 28 28 32 38 34 29 25 24 24 25 21 22 22 23 19 19 22 22 16 19 19 22 24 26 21 24 24 28
12 9 9 14 14 16 19 20 23 26 27 29 30 33 26 26 23 27 31 30 23 19 20 20 21 17 17 15 15 13 12 11 11 9 13 12 12 13 14 20 33 22 29 29
11 10 6 12 8 11 15 21 25 28 27 26 26 24 17 19 25 25 28 21 16 14 17 15 12 9 8 12 18 19 16 14 14 11 7 5 8 10 14 14 17 25 34 27
10 11 10 7 4 9 6 5 6 8 12 15 19 16 25 19 23 25 22 14 11 12 10 8 3 6 10 16 16 21 22 18 14 12 13 12 7 9 9 10 6 13 17 37
13 13 12 13 15 14 10 14 13 12 14 16 19 23 23 18 15 16 16 12 10 7 5 2 5 9 14 15 18 20 22 25 25 23 21 17 15 13 10 9 10 6 11 14
12 14 15 9 10 6 3 9 8 17 19 20 18 16 18 13 6 13 11 10 7 6 6 7 9 11 13 14 16 18 22 25 30 31 32 30 27 21 18 18 14 12 2 4
10 13 17 16 9 4 8 9 15 6 5 8 12 14 12 12 11 10 9 8 7 8 9 9 10 11 13 15 16 17 20 26 29 28 28 29 30 31 31 28 25 21 17 11
8 10 11 12 8 7 7 12 8 11 15 13 9 14 14 7 7 10 8 8 8 9 9 9 9 11 13 12 12 14 17 22 23 23 24 26 27 28 28 27 27 25 24 22
5 9 2 5 2 8 15 9 8 9 7 2 9 12 12 7 8 10 9 9 9 8 8 10 12 11 10 11 12 12 17 20 21 20 21 22 23 23 24 23 23 23 22 21
6 8 7 4 7 8 6 3 1 1 1 4 8 10 8 9 12 12 11 10 9 8 9 11 10 9 8 9 10 12 15 19 19 19 20 21 21 22 21 21 20 20 19 19
8 6 5 8 7 4 3 1 3 5 7 7 8 10 12 13 13 12 11 11 9 9 10 9 8 7 6 10 12 13 15 17 17 17 18 18 19 19 19 18 18 18 18 18
7 8 9 8 6 3 0 2 4 7 8 9 10 11 13 13 12 12 11 10 9 9 9 7 6 7 8 10 12 13 14 15 16 16 16 17 18 18 18 19 19 19 18 17

GFSCGP_700_spd_114.txt.gz
Wind_Speed
22 23 26 22 25 31 34 35 38 39 35 36 35 29 28 24 25 26 26 26 23 22 21 27 31 30 31 30 28 27 30 34 36 37 37 41 42 40 40 42 39 40 44 45
23 35 29 27 29 32 36 40 42 40 36 34 38 39 38 34 33 32 28 26 22 19 28 26 32 37 34 27 24 27 30 31 33 37 39 39 39 42 46 48 48 46 45 47
32 36 30 32 34 36 37 38 40 43 39 38 37 38 34 32 34 35 29 24 21 26 26 22 26 32 23 22 22 25 28 29 31 34 36 40 42 44 45 45 46 47 52 53
37 33 34 38 37 37 36 30 34 37 33 30 32 25 35 32 34 26 38 28 28 28 23 20 25 22 17 24 24 25 27 29 30 31 33 36 39 43 46 47 51 52 46 50
47 35 33 34 33 31 36 34 30 28 24 28 34 30 28 32 34 23 24 28 28 33 27 23 18 17 22 27 28 28 28 30 32 34 36 38 39 40 42 47 51 52 55 57
34 31 32 28 27 24 23 22 28 29 28 22 40 31 34 36 33 28 29 25 23 26 22 14 16 23 28 26 27 30 31 33 35 37 40 42 45 46 47 46 47 51 54 57
26 32 31 28 24 20 18 18 10 5 10 15 28 27 34 6 3 34 33 17 17 19 13 14 20 23 23 26 28 29 31 32 35 38 40 43 47 49 52 53 53 51 51 55
20 17 22 24 25 20 14 14 11 6 7 15 18 13 8 7 18 28 21 13 12 12 11 18 22 23 25 27 28 30 33 36 36 39 42 44 45 48 52 54 55 56 54 55
13 12 11 13 20 17 17 24 22 17 22 18 19 11 8 14 14 12 11 6 6 7 12 21 25 31 32 34 36 41 44 44 41 41 42 44 45 48 50 51 52 54 57 60
22 19 18 13 11 15 15 6 6 8 4 10 17 19 5 6 5 3 3 6 12 15 16 22 29 35 39 42 44 41 41 40 39 40 42 42 44 47 47 47 46 49 54 55
15 14 10 9 13 17 17 21 14 9 8 4 6 6 10 6 9 5 9 12 18 21 25 26 30 34 33 34 35 35 37 38 39 41 38 41 41 42 42 37 36 35 36 42
20 7 10 15 10 10 18 18 19 22 15 17 18 18 11 8 6 8 13 18 23 24 26 28 36 35 33 33 31 34 35 37 35 36 36 34 37 29 29 34 29 29 28 30
18 11 10 11 14 13 14 17 18 18 19 22 12 10 5 5 7 5 11 7 15 32 36 43 38 33 32 31 33 34 35 31 32 32 29 28 27 24 23 25 29 32 32 32
10 9 11 8 2 6 10 15 19 22 21 23 22 24 21 8 5 16 16 22 26 34 39 35 29 28 29 30 34 35 33 30 28 28 27 23 25 27 22 24 29 33 42 39
14 13 13 19 20 15 16 15 14 19 24 24 24 21 20 19 19 16 20 24 33 35 34 27 24 24 24 27 27 26 26 22 19 16 16 15 18 16 17 19 27 31 14 27
14 11 12 16 15 15 19 20 21 23 23 25 24 26 21 23 23 22 27 31 29 31 26 22 21 20 21 19 18 19 15 12 11 12 13 12 13 10 13 17 18 19 9 13
14 9 7 12 11 13 13 19 22 23 22 24 26 22 19 20 23 25 33 30 26 23 19 16 14 13 11 11 12 17 18 15 12 13 11 8 7 7 7 12 18 14 20 9
11 12 10 12 5 7 8 6 10 11 12 13 14 17 23 29 25 28 21 23 20 19 13 10 7 5 6 9 13 19 24 25 25 22 20 20 17 14 12 13 18 7 12 17
12 12 11 12 13 16 11 10 16 19 18 15 18 20 25 25 22 19 16 17 15 12 8 4 1 3 6 9 14 17 20 24 28 33 34 33 30 25 21 18 15 16 16 10
14 13 15 10 10 7 7 10 9 10 13 18 20 17 18 17 8 14 13 12 9 8 5 4 4 4 5 10 13 15 18 21 26 30 32 31 33 35 35 33 30 27 23 19
13 13 16 16 12 6 13 11 11 6 8 10 10 9 14 16 13 12 10 8 7 6 6 6 4 4 9 12 13 13 15 19 25 26 26 28 30 32 33 32 32 33 31 28
11 10 12 14 9 11 10 11 8 14 19 19 20 15 16 10 6 11 5 5 6 7 6 5 7 12 11 11 11 11 14 21 22 23 24 26 27 28 28 28 28 28 28 28
7 11 2 7 4 7 13 16 16 15 17 14 11 9 10 9 4 6 6 6 6 6 6 9 13 10 9 9 11 11 14 18 20 21 23 25 26 26 26 25 26 25 25 25
14 7 8 6 7 9 12 11 9 9 7 5 6 7 9 7 5 6 7 7 6 5 7 12 10 10 9 11 13 13 15 18 19 20 22 23 23 24 25 25 24 24 24 24
9 6 7 10 10 9 8 6 5 3 1 3 6 7 7 8 8 8 7 7 6 7 10 11 10 9 8 10 10 11 14 16 17 19 20 21 22 22 23 23 23 23 23 23
9 11 11 8 6 4 4 3 2 1 3 6 7 8 10 10 9 9 7 7 6 8 10 9 8 8 7 8 9 11 12 14 15 16 18 20 21 22 22 23 25 25 25 24

GFSCGP_700_spd_117.txt.gz
Wind_Speed
26 27 31 26 21 23 23 29 36 38 35 29 33 40 38 35 28 26 24 24 25 23 26 33 36 39 39 34 36 37 34 32 34 35 32 32 35 37 37 38 38 37 38 37
20 37 28 23 22 24 26 31 37 38 35 34 37 40 39 37 37 35 32 32 34 35 38 34 37 40 36 36 36 34 37 32 29 30 32 33 33 35 38 41 42 42 42 44
30 24 12 25 31 31 33 35 36 40 32 27 30 35 35 36 40 38 37 39 41 41 47 40 46 43 37 35 32 34 32 27 27 27 30 33 34 35 37 39 42 44 45 47
35 30 30 31 35 32 37 31 32 28 26 18 26 16 37 37 35 39 35 40 31 33 37 41 46 39 28 23 22 28 26 25 27 28 30 32 34 36 37 39 41 43 45 48
42 36 39 38 39 34 38 27 23 26 28 24 37 11 37 28 28 30 15 17 33 39 33 39 36 29 21 18 23 25 27 28 29 30 32 33 35 37 38 39 42 43 44 47
32 24 31 33 32 35 30 22 20 22 18 10 37 14 42 33 24 13 17 22 30 30 36 28 22 18 23 23 23 29 27 28 31 33 35 37 39 39 41 41 43 43 44 47
19 26 23 25 29 31 22 18 6 5 3 11 17 17 27 20 14 14 24 35 20 17 13 11 14 15 18 23 27 27 30 31 32 33 35 37 39 40 42 43 44 46 47 48
24 18 18 17 23 29 17 14 8 4 2 6 19 8 8 12 18 16 19 19 22 20 15 8 10 18 21 21 26 32 34 37 38 40 44 45 44 43 42 44 47 48 49 49
10 12 15 15 15 13 14 19 15 13 19 11 12 20 11 24 4 11 6 6 3 9 8 9 17 16 21 26 32 36 39 40 42 45 43 41 40 41 43 44 44 46 49 51
22 22 24 20 17 14 18 5 5 6 3 4 6 14 2 6 1 11 13 15 10 8 10 12 17 26 30 33 38 40 39 40 40 40 39 37 37 39 42 44 47 48 49 48
18 24 13 17 13 14 16 17 11 6 6 3 3 3 7 9 8 6 6 7 11 14 16 21 25 27 32 44 44 42 41 41 41 40 38 37 37 39 39 42 44 46 44 41
18 13 17 20 17 12 14 16 21 19 10 10 5 11 14 7 3 8 11 13 17 15 19 28 31 38 46 43 39 38 39 39 41 40 38 38 37 34 33 30 32 31 30 32
19 11 4 6 10 16 20 19 19 21 20 11 4 6 11 17 10 12 11 13 13 22 30 35 40 44 41 37 34 35 35 39 37 35 35 36 33 27 26 25 29 27 32 29
19 21 16 12 5 3 7 12 21 18 21 20 23 23 19 17 20 15 17 20 22 25 32 39 38 37 35 32 32 32 33 33 32 30 29 29 26 21 21 22 19 27 30 35
21 17 13 14 14 17 14 14 15 16 20 22 27 25 23 24 15 14 19 24 26 31 31 34 36 32 27 27 26 25 26 26 24 22 22 20 18 19 22 20 22 26 27 28
21 14 16 18 18 18 15 19 20 17 21 24 22 18 14 17 18 21 22 20 29 34 36 32 28 22 20 17 17 20 19 18 15 15 13 11 11 10 10 14 18 21 18 19
20 20 8 6 10 11 13 20 22 24 19 16 15 17 23 26 28 27 25 27 33 35 28 22 18 16 12 10 11 13 17 18 18 16 17 17 16 15 11 10 15 16 10 12
13 16 10 5 5 3 7 6 8 9 15 13 16 22 22 22 25 26 28 32 29 25 18 14 11 7 3 5 8 11 14 19 23 26 30 31 31 29 25 21 17 16 18 8
13 14 7 6 9 12 12 14 13 16 18 21 24 25 24 25 28 26 24 21 17 15 10 10 6 3 2 4 7 10 12 17 18 23 28 31 33 35 35 37 35 33 29 22
15 15 14 7 4 4 8 12 15 11 16 18 17 16 20 18 19 14 12 10 10 8 8 7 5 3 3 5 9 12 15 18 20 23 26 30 30 32 33 35 36 37 38 36
19 13 18 19 9 8 14 12 13 6 10 12 12 12 12 15 11 10 9 6 5 5 5 6 3 4 7 10 10 8 11 14 18 21 24 25 27 30 31 31 30 31 33 34
14 14 13 15 10 11 12 11 12 17 19 21 21 18 15 15 12 7 7 3 4 5 5 4 6 10 10 8 8 9 13 18 20 21 23 25 27 28 29 29 30 30 30 29
11 12 10 10 10 8 8 13 16 15 15 15 13 7 7 9 5 5 6 6 6 5 5 7 11 11 10 10 12 13 14 17 18 19 21 22 24 24 25 25 26 26 27 28
15 11 14 10 10 10 10 12 11 10 10 7 3 6 7 8 2 6 7 6 6 6 8 11 12 11 10 12 13 11 13 14 15 16 17 19 20 22 23 24 24 24 25 26
13 13 13 12 14 13 10 9 8 7 6 1 4 5 6 6 8 8 8 7 7 8 11 12 11 11 11 12 11 11 11 12 13 14 16 18 20 22 23 23 24 25 25 25
13 13 13 10 4 4 4 4 4 3 2 3 6 7 10 11 10 10 9 8 8 10 12 11 10 11 10 10 9 8 8 10 10 12 13 15 17 18 20 21 23 23 24 25

GFSCGP_700_spd_120.txt.gz
Wind_Speed
16 24 30 23 20 21 22 24 29 29 26 29 30 36 39 37 37 35 30 26 28 29 29 35 33 38 38 39 35 32 33 38 40 38 38 39 39 37 37 38 39 37 36 35
21 28 24 20 18 17 20 26 31 36 32 31 37 39 34 35 35 37 36 31 35 33 37 38 40 39 45 45 44 41 40 41 38 39 41 41 38 36 37 39 40 42 41 39
26 18 7 15 20 22 26 27 29 31 29 23 32 41 38 43 38 37 36 37 30 23 37 42 40 40 46 47 44 41 40 36 36 38 40 39 37 35 34 36 39 42 44 45
26 29 27 22 24 24 36 25 28 32 30 24 26 20 40 48 39 35 33 29 19 22 30 40 45 46 46 38 34 32 32 32 32 35 34 36 36 34 34 35 36 37 42 45
20 14 12 23 33 27 40 30 29 27 32 29 49 7 37 32 36 26 21 21 22 29 30 33 40 43 33 19 19 22 23 26 30 34 36 36 36 37 37 36 38 39 39 40
27 18 22 24 24 23 22 26 27 24 19 7 34 17 24 15 11 10 10 11 21 29 32 33 32 19 14 13 14 18 21 27 29 32 35 37 38 38 39 40 42 41 41 41
18 17 17 18 21 19 21 20 5 4 3 6 7 10 11 7 13 10 20 24 19 22 30 27 23 16 7 7 10 17 22 26 30 33 37 40 42 42 43 43 43 44 44 44
20 15 17 12 15 15 18 21 9 4 3 4 17 8 7 6 7 13 13 18 22 4 16 19 9 4 8 12 17 19 23 29 34 35 37 39 42 44 45 45 45 45 45 45
11 15 13 14 17 16 9 12 11 9 17 6 6 10 10 9 10 13 7 16 10 13 16 5 5 11 15 16 20 26 30 35 38 39 40 40 41 42 44 44 43 44 43 43
30 29 24 22 19 18 15 11 6 8 3 5 4 6 6 2 11 14 9 8 7 7 7 10 14 22 24 26 31 34 38 40 40 40 41 41 42 43 42 42 42 42 43 43
8 28 23 19 21 20 15 18 11 8 8 3 2 5 4 9 8 8 11 9 9 11 11 18 21 25 32 38 38 38 37 38 38 39 40 42 42 41 40 39 40 41 42 42
27 16 25 25 22 19 15 22 23 11 6 12 8 11 14 11 8 11 14 7 8 10 20 21 26 32 38 40 41 38 36 37 39 40 41 40 37 36 37 38 39 41 41 39
20 16 13 10 11 12 18 19 21 20 17 24 10 8 8 15 13 16 15 19 9 25 21 25 31 36 36 34 34 34 34 35 37 39 38 35 34 33 34 34 33 33 35 33
22 26 22 18 15 12 10 18 20 19 12 15 21 28 22 22 18 21 21 23 22 15 20 28 33 36 34 33 31 30 32 33 33 33 31 29 28 28 28 28 27 28 30 30
23 25 24 27 23 13 15 16 17 16 18 26 28 26 20 21 17 20 21 20 17 20 24 30 35 37 33 27 25 26 27 28 26 22 21 21 22 20 20 21 26 25 25 24
22 17 18 20 20 17 14 15 17 21 21 19 17 19 22 18 18 17 19 19 18 21 27 35 38 34 26 21 19 17 18 16 17 18 18 18 16 13 12 11 12 12 16 18
22 21 17 8 14 14 15 21 25 25 24 23 25 26 24 18 18 19 19 20 21 25 30 33 27 23 17 12 11 9 11 17 19 20 22 25 25 25 26 24 21 20 21 16
20 18 15 6 6 4 8 10 11 15 19 19 19 17 18 20 23 25 25 24 24 27 27 23 16 13 9 5 5 8 10 12 13 16 19 23 26 29 31 32 33 31 28 27
18 16 8 7 12 6 6 12 12 12 14 18 20 22 24 26 27 28 25 25 25 21 17 13 9 7 6 3 2 5 9 12 17 20 21 25 25 27 28 29 33 35 36 35
16 14 17 11 4 5 7 13 18 14 19 19 21 21 19 17 18 14 18 16 14 12 11 7 4 4 3 2 5 11 12 11 10 15 19 21 24 27 28 28 28 30 32 35
22 20 22 17 8 8 15 15 14 8 9 8 12 15 17 17 14 13 12 13 11 8 6 3 4 5 6 8 11 8 6 7 13 17 18 19 22 24 27 28 28 30 31 30
23 16 14 18 8 12 13 11 12 14 17 19 20 23 23 22 18 13 13 10 7 5 4 5 6 10 10 11 9 7 6 8 14 15 17 18 20 22 23 24 25 25 26 27
14 17 12 12 11 11 7 9 13 17 17 14 14 12 11 9 14 13 11 8 5 4 5 7 12 12 12 12 7 6 7 12 14 15 15 17 19 20 21 21 22 23 23 25
18 21 13 14 13 14 13 11 14 14 11 9 6 6 8 8 6 7 8 6 6 6 6 10 13 13 11 8 7 7 10 12 13 14 15 16 16 18 19 20 21 22 22 24
19 19 18 20 18 16 16 15 12 9 6 3 5 8 8 9 7 7 7 7 7 8 10 12 13 11 9 8 7 7 10 12 11 12 13 14 16 18 19 21 22 24 25 25
19 18 17 12 8 7 6 6 6 4 2 2 6 8 10 10 9 9 9 9 9 11 13 13 12 10 9 8 8 9 9 8 8 9 11 13 16 18 20 22 23 24 25 25

GFSCGP_700_spd_123.txt.gz
Wind_Speed
16 24 28 21 19 21 22 22 24 20 17 23 30 39 32 29 27 28 27 28 30 31 31 30 36 36 37 35 40 38 34 32 29 35 35 33 36 37 38 41 43 44 40 43
23 29 22 19 21 19 18 24 24 23 19 21 30 41 39 35 33 33 35 34 35 33 33 33 33 39 37 36 39 41 38 38 37 37 38 36 36 39 41 46 42 41 43 45
26 17 6 12 14 14 20 24 25 26 24 31 34 41 39 34 36 21 21 27 21 18 23 29 36 37 41 39 42 41 40 43 43 44 43 41 40 40 41 39 39 39 42 44
20 23 24 24 25 24 27 21 26 30 27 26 15 21 43 27 19 26 27 24 24 20 24 30 36 38 39 40 40 34 33 36 40 42 42 42 40 41 41 39 38 38 38 41
20 19 15 15 18 14 24 24 29 31 26 26 24 11 26 31 19 15 16 13 16 22 27 33 36 38 39 37 41 41 32 30 33 36 37 37 38 42 44 40 41 40 39 37
25 22 23 20 15 17 17 20 21 20 24 11 34 16 17 15 7 13 15 18 18 24 30 34 32 29 27 25 22 23 23 21 24 25 27 32 40 42 43 42 41 41 41 40
16 18 16 15 18 13 16 15 5 3 2 6 5 8 14 17 10 12 15 14 18 24 19 28 28 23 19 21 19 17 18 20 20 22 26 31 34 40 42 44 44 43 43 43
12 9 7 8 10 11 12 15 11 4 3 5 10 9 14 17 11 11 16 20 8 13 15 16 19 18 16 16 13 13 16 22 24 27 31 34 37 40 44 46 46 46 45 44
9 10 7 10 16 11 9 13 17 15 8 3 10 12 15 15 14 9 9 9 16 23 21 19 12 13 16 23 22 22 28 33 33 31 34 36 38 41 43 45 47 47 47 46
25 23 18 17 19 17 17 13 5 6 3 5 6 12 15 12 11 11 12 7 6 9 7 7 13 16 23 29 33 33 33 34 31 36 41 41 40 42 44 45 46 46 46 46
31 30 21 18 22 23 20 19 16 12 8 4 3 7 11 9 10 12 13 8 7 13 10 13 18 22 27 34 38 38 36 36 34 34 36 38 41 43 43 43 43 43 43 44
17 13 17 19 21 21 20 22 22 17 8 13 8 15 13 16 12 10 11 17 14 15 13 20 19 23 30 35 38 36 35 35 35 35 36 37 37 38 38 39 40 41 41 42
21 14 9 7 17 18 19 24 25 27 28 23 10 8 9 14 17 16 13 12 15 15 17 20 22 26 32 37 37 33 32 33 32 33 34 34 33 32 33 34 36 37 38 38
24 26 22 17 13 7 15 19 21 24 23 23 24 25 19 24 22 22 20 20 19 18 17 17 23 27 32 36 30 27 27 28 27 27 26 25 25 24 23 24 25 28 29 30
24 26 25 27 25 26 25 22 22 28 32 21 22 26 26 29 22 21 20 21 21 18 18 20 23 26 29 28 23 20 19 18 20 19 16 14 15 17 17 16 16 17 18 21
27 27 25 30 29 23 28 24 23 27 28 30 28 24 19 19 22 17 18 20 18 19 21 23 23 22 23 18 14 13 12 13 16 17 17 21 24 23 22 21 19 19 20 19
28 31 25 15 15 17 20 26 29 31 28 28 28 27 24 21 20 16 17 20 22 22 23 21 20 19 15 12 9 8 9 11 12 13 16 19 23 27 30 32 29 25 24 23
28 27 19 4 7 5 11 13 17 22 25 27 27 25 21 16 15 18 20 21 23 25 24 21 18 14 13 10 8 8 7 7 10 14 18 19 23 25 26 28 30 33 31 27
33 24 9 7 15 11 8 14 14 15 15 16 15 17 19 20 22 23 22 22 23 20 18 15 12 11 10 7 6 2 6 11 12 11 13 16 20 23 25 26 28 29 29 31
19 19 21 12 5 6 5 14 21 18 24 27 25 25 24 24 23 17 17 16 13 12 11 10 9 9 8 6 5 7 10 7 7 11 15 18 18 19 22 25 26 26 28 29
24 23 25 18 9 9 17 18 15 12 14 10 12 16 19 20 18 17 17 15 14 13 9 8 9 9 7 9 11 9 5 6 8 13 16 17 18 20 23 26 25 25 25 26
25 18 18 17 9 12 18 15 18 14 12 17 21 23 23 24 24 21 17 14 13 10 7 9 9 9 11 13 11 7 6 6 10 14 16 17 18 20 22 23 24 24 24 26
19 21 19 15 11 14 9 9 10 13 16 19 19 20 20 19 16 13 13 12 9 7 8 7 6 9 11 13 7 7 7 8 10 12 14 15 18 19 19 19 19 20 21 22
22 20 22 17 20 17 16 16 16 17 17 16 15 13 10 8 7 8 11 9 8 7 6 6 10 13 14 9 7 7 5 7 8 11 13 14 15 16 17 18 19 20 21 22
21 20 22 25 21 17 17 18 19 18 14 11 9 7 9 9 6 7 8 8 7 7 8 10 14 14 10 8 8 5 3 3 8 11 12 13 13 15 16 18 20 23 24 25
21 22 21 20 15 16 14 9 10 10 8 6 7 8 9 10 8 8 8 8 8 9 10 13 13 10 8 6 6 4 2 3 7 9 10 11 14 16 19 22 24 25 26 27

GFSCGP_700_spd_126.txt.gz
Wind_Speed
19 26 28 16 16 18 17 19 23 24 19 24 26 27 25 27 27 27 24 25 28 28 28 30 30 30 29 30 35 34 35 32 34 31 29 30 29 28 28 30 32 34 38 42
23 28 20 18 19 18 18 19 20 21 15 23 28 35 33 22 24 25 19 19 20 22 26 29 27 28 28 28 31 35 35 33 35 35 35 35 35 33 32 35 38 39 40 42
25 16 12 14 14 15 18 16 18 22 22 24 33 29 1 25 20 14 24 24 21 22 23 23 25 28 28 31 32 32 36 37 32 34 36 37 35 35 38 39 40 40 40 40
19 17 20 19 20 21 21 17 18 20 21 20 25 10 27 6 9 26 19 19 18 17 21 24 26 29 30 32 34 35 35 38 43 38 37 40 41 38 40 42 41 38 40 43
10 11 11 18 16 9 18 12 14 17 19 21 11 13 7 19 29 18 15 13 14 19 21 26 29 31 31 31 33 34 33 32 32 37 42 43 42 43 39 42 42 42 43 43
20 21 19 18 14 12 14 15 19 18 18 8 17 17 16 16 17 18 18 13 16 21 22 22 31 32 30 33 35 29 29 31 31 33 35 37 36 38 40 42 43 42 43 42
16 15 14 16 16 13 17 14 4 2 4 6 9 12 23 26 24 21 13 9 13 17 20 21 14 26 19 25 34 23 21 23 23 25 27 30 32 35 37 38 40 43 42 42
9 7 5 5 14 13 10 16 9 4 3 4 5 8 11 19 22 19 12 11 8 9 17 18 17 11 12 18 19 24 25 26 27 22 25 31 33 38 36 39 42 45 45 44
8 10 7 7 8 11 11 15 16 19 11 4 8 17 22 24 22 22 18 8 7 1 9 5 6 9 11 15 20 23 27 27 26 25 28 36 40 41 42 42 43 47 47 46
27 24 21 19 17 19 23 14 6 7 2 4 7 14 19 21 19 20 18 8 6 8 10 12 10 12 15 19 25 29 31 33 30 28 29 29 28 38 44 45 45 47 47 47
21 30 27 19 20 24 21 20 15 13 10 4 2 10 14 18 18 13 11 5 8 11 13 12 15 19 20 25 31 36 38 33 32 32 33 33 34 33 35 39 41 41 41 43
18 10 14 21 19 22 22 26 26 16 7 12 6 25 28 21 15 15 7 11 12 13 15 16 18 22 22 26 31 37 36 33 31 32 32 33 34 32 32 34 36 37 36 36
21 22 11 5 13 19 25 28 27 30 33 26 9 13 7 12 12 15 14 14 18 18 18 18 21 20 23 27 31 36 33 30 28 29 28 28 28 27 28 28 29 28 29 31
22 27 25 20 21 20 16 19 23 28 24 24 32 34 31 25 22 23 27 22 23 23 21 20 21 21 25 26 29 30 27 23 22 22 23 23 21 19 19 19 18 19 21 23
28 30 29 30 28 29 27 22 19 25 31 29 41 32 30 32 24 26 24 21 22 23 24 22 22 25 25 27 27 24 20 18 17 16 16 18 20 21 22 21 20 21 23 25
27 31 26 34 31 30 29 32 34 31 33 41 38 38 35 28 24 20 20 21 21 22 23 22 25 26 27 25 21 16 14 14 12 11 11 13 16 21 24 27 29 28 29 30
30 30 26 21 25 26 27 38 33 31 30 31 32 34 29 25 22 20 19 19 19 20 22 25 26 27 28 22 12 11 10 6 3 8 13 18 21 23 24 24 25 28 32 35
33 31 28 19 10 5 18 15 15 18 20 24 28 28 27 23 17 16 16 16 20 22 25 27 26 24 21 15 10 9 6 4 10 10 10 12 16 18 22 23 25 26 28 29
33 31 19 9 14 18 16 14 16 16 16 17 16 15 16 16 16 18 18 19 21 22 21 19 20 20 15 11 9 6 7 11 7 6 9 12 15 17 19 21 23 25 27 29
34 35 31 15 5 8 5 4 8 12 22 21 22 23 23 21 21 18 19 19 16 15 13 14 16 14 11 10 8 8 13 4 4 6 10 14 15 17 19 22 23 25 26 28
27 34 32 22 11 8 12 16 14 10 13 11 9 11 14 16 17 17 16 14 15 14 14 13 13 11 9 10 8 13 6 3 2 7 13 15 16 18 20 22 22 24 25 26
26 18 17 20 12 9 16 15 16 13 13 11 14 19 21 21 21 21 20 18 14 13 12 11 11 8 7 11 13 10 4 3 7 11 13 14 15 17 19 20 21 21 22 23
18 26 15 14 10 15 10 9 8 8 11 16 18 22 22 20 18 16 13 9 9 9 8 7 6 6 11 14 14 6 5 6 8 10 10 11 13 15 16 17 17 18 19 19
27 20 26 19 23 22 20 17 15 16 17 19 22 21 19 14 10 9 9 10 9 7 6 7 8 10 15 16 9 7 6 6 8 8 9 10 12 15 16 17 19 20 20 21
18 19 23 26 24 19 16 15 16 20 21 21 20 16 10 6 6 5 7 7 6 6 6 8 10 15 15 10 8 7 6 6 5 6 8 10 12 13 15 18 20 24 26 27
18 25 24 24 16 16 16 18 17 14 14 15 13 9 7 8 5 6 7 7 6 7 7 9 14 15 12 8 7 5 3 2 4 6 8 10 12 16 19 22 24 26 28 29